Date StartTime U_cm/s V_cm/s W_cm/s Ustd_cm/s Vstd_cm/s Wstd_cm/s Uvar_(cm/s)^2 Vvar_(cm/s)^2 Wvar_(cm/s)^2 KE_(m/s)^2 TurbulentKE_(m/s)^2 HorizWindSpeed_cm/s FrictionSpeec_cm/s DragCoef SpeedOfSound_m/s SonicTemperature_C Pressure_mb 
10/30/2014  00:00:00     -130.142      -49.965       -4.158       38.819       25.077       18.759     1506.900      628.868      351.906        1.097        0.124      139.404       16.131        0.013      337.924       10.226      864.828
10/30/2014  00:01:00      -44.986      -26.542       -4.452       28.069       19.805       11.925      787.892      392.223      142.212        0.203        0.066       52.232        9.113        0.030      337.904       10.193      864.816
10/30/2014  00:02:00      -44.001      -34.408       -3.892       21.915       26.016       12.277      480.270      676.820      150.736        0.222        0.065       55.857        9.320        0.028      337.981       10.324      864.802
10/30/2014  00:03:00      -71.668      -49.608       -3.485       25.956       24.910       14.582      673.715      620.512      212.629        0.456        0.075       87.162        8.449        0.009      337.982       10.323      864.804
10/30/2014  00:04:00      -88.311      -51.960        1.767       26.626       29.302       18.902      708.932      858.595      357.274        0.621        0.096      102.463       16.487        0.026      337.891       10.171      864.812
10/30/2014  00:05:00      -53.903      -48.314        9.898       41.270       28.107       21.729     1703.212      790.006      472.157        0.415        0.148       72.386       21.464        0.088      337.856       10.112      864.809
10/30/2014  00:06:00      -84.770      -49.936        2.310       40.032       26.035       20.095     1602.590      677.795      403.804        0.618        0.134       98.385       18.999        0.037      337.923       10.225      864.803
10/30/2014  00:07:00      -86.111      -54.619        2.987       34.998       27.981       23.090     1224.829      782.944      533.165        0.647        0.127      101.973       20.405        0.040      337.887       10.164      864.803
10/30/2014  00:08:00      -84.382      -49.577        2.882       23.953       17.943       15.862      573.757      321.946      251.590        0.537        0.057       97.868       13.123        0.018      337.921       10.222      864.804
10/30/2014  00:09:00      -56.573      -33.607        5.345       34.079       23.971       17.009     1161.369      574.623      289.322        0.319        0.101       65.802       20.159        0.094      337.954       10.277      864.798
10/30/2014  00:10:00      -38.878      -31.877       -0.466       31.567       21.175       14.412      996.498      448.392      207.699        0.209        0.083       50.276       11.552        0.053      337.939       10.254      864.796
10/30/2014  00:11:00      -34.612      -28.610        6.795       26.545       24.780       14.028      704.646      614.043      196.787        0.179        0.076       44.906       15.067        0.113      337.906       10.196      864.801
10/30/2014  00:12:00      -60.938      -35.447       -0.016       24.465       15.650       12.380      598.529      244.916      153.266        0.298        0.050       70.498       10.335        0.021      337.845       10.094      864.793
10/30/2014  00:13:00      -54.431      -29.845        4.654       31.180       17.537       16.660      972.162      307.531      277.567        0.272        0.078       62.077       18.208        0.086      337.774        9.976      864.780
10/30/2014  00:14:00      -57.954      -28.330        0.968       13.544        9.627        9.488      183.438       92.672       90.029        0.226        0.018       64.508        6.396        0.010      337.745        9.928      864.769
10/30/2014  00:15:00      -27.882      -24.838        1.942       15.686       10.261        8.832      246.061      105.289       78.008        0.091        0.021       37.341        7.817        0.044      337.803       10.024      864.753
10/30/2014  00:16:00      -59.520      -31.201       -8.410       17.750        9.704        8.285      315.057       94.172       68.638        0.253        0.024       67.202        4.684        0.005      337.817       10.048      864.732
10/30/2014  00:17:00      -68.069      -50.486       -6.779       28.831       20.517       15.764      831.211      420.947      248.505        0.436        0.075       84.748       10.805        0.016      337.737        9.914      864.710
10/30/2014  00:18:00      -50.652      -36.020       -7.018       34.078       26.359       20.585     1161.286      694.805      423.746        0.310        0.114       62.154       20.417        0.108      337.743        9.922      864.704
10/30/2014  00:19:00      -42.261      -24.570       -9.036       18.964       18.626       15.371      359.645      346.921      236.270        0.171        0.047       48.884       10.745        0.048      337.747        9.930      864.703
10/30/2014  00:20:00      -65.226      -47.934       -5.347       28.932       15.506       18.174      837.060      240.433      330.299        0.399        0.070       80.945       17.168        0.045      337.731        9.902      864.700
10/30/2014  00:21:00     -118.612      -41.932       -5.909       28.128       17.355       10.887      791.212      301.193      118.518        0.854        0.061      125.805        7.822        0.004      337.722        9.888      864.702
10/30/2014  00:22:00      -66.677      -42.763       -2.904       17.805       15.458       10.325      317.017      238.960      106.604        0.347        0.033       79.211        4.673        0.003      337.728        9.898      864.715
10/30/2014  00:23:00      -81.708      -24.994       -1.502       19.389       17.087       10.771      375.940      291.962      116.025        0.404        0.039       85.445       11.136        0.017      337.774        9.975      864.723
10/30/2014  00:24:00      -84.472      -36.864       -4.206       14.928       11.431       10.059      222.853      130.660      101.182        0.448        0.023       92.166        3.360        0.001      337.746        9.927      864.723
10/30/2014  00:25:00      -87.137      -33.808       -5.171       12.513       14.500       10.350      156.573      210.241      107.129        0.462        0.024       93.466        6.398        0.005      337.819       10.050      864.725
10/30/2014  00:26:00      -86.610      -32.452       -9.320        9.535       10.562        8.639       90.907      111.553       74.630        0.446        0.014       92.490        4.847        0.003      337.838       10.082      864.727
10/30/2014  00:27:00      -60.842      -44.066        0.729       20.620       15.764       10.322      425.189      248.489      106.540        0.321        0.039       75.124       11.178        0.022      337.720        9.885      864.746
10/30/2014  00:28:00      -68.929      -64.230       -2.216       34.045       28.513       17.876     1159.046      812.969      319.553        0.559        0.115       94.216       15.100        0.026      337.746        9.929      864.752
10/30/2014  00:29:00      -89.284      -64.708        0.261       32.551       36.872       23.133     1059.569     1359.524      535.129        0.756        0.148      110.267       20.748        0.035      337.835       10.079      864.759
10/30/2014  00:30:00     -104.257      -70.603       -2.099       47.199       36.208       33.097     2227.745     1310.989     1095.405        1.025        0.232      125.914       26.803        0.045      337.804       10.026      864.760
10/30/2014  00:31:00      -79.187      -51.476       -0.312       54.796       32.015       26.306     3002.654     1024.939      692.031        0.682        0.236       94.448       14.748        0.024      337.806       10.029      864.766
10/30/2014  00:32:00      -69.860      -39.015       -6.250       31.213       19.435       15.529      974.251      377.736      241.165        0.402        0.080       80.016       10.519        0.017      337.836       10.079      864.779
10/30/2014  00:33:00      -83.189      -42.599       -3.232       28.169       27.992       16.133      793.472      783.568      260.276        0.529        0.092       93.461       11.491        0.015      337.795       10.011      864.776
10/30/2014  00:34:00      -90.821      -62.940       -1.636       29.943       20.095       17.721      896.574      403.823      314.026        0.691        0.081      110.499        8.516        0.006      337.697        9.846      864.778
10/30/2014  00:35:00      -45.674      -42.808        0.446       34.396       17.757       17.657     1183.086      315.328      311.783        0.286        0.091       62.600       17.692        0.080      337.647        9.762      864.778
10/30/2014  00:36:00      -68.045      -38.545       -5.535       16.782       15.518       11.006      281.621      240.813      121.133        0.339        0.032       78.203        7.693        0.010      337.663        9.788      864.784
10/30/2014  00:37:00      -72.724      -23.427       -8.686       17.270       10.926        9.847      298.245      119.386       96.968        0.321        0.026       76.405        6.687        0.008      337.711        9.869      864.777
10/30/2014  00:38:00      -85.394      -18.762      -10.888       17.872       15.537       13.263      319.391      241.409      175.907        0.425        0.037       87.431       13.176        0.023      337.677        9.814      864.776
10/30/2014  00:39:00      -92.096      -16.607      -10.588       17.187       11.108        7.816      295.384      123.377       61.094        0.467        0.024       93.581        5.227        0.003      337.645        9.759      864.776
10/30/2014  00:40:00      -84.324      -12.024       -8.487       16.952       11.728       10.728      287.383      137.551      115.085        0.393        0.027       85.177        7.737        0.008      337.608        9.698      864.770
10/30/2014  00:41:00      -76.391       -8.799       -8.940       32.127       22.411       20.927     1032.147      502.273      437.938        0.398        0.099       76.896       21.047        0.075      337.400        9.346      864.779
10/30/2014  00:42:00      -87.091      -17.978       -5.157       21.282       17.678       14.592      452.924      312.527      212.923        0.446        0.049       88.927       11.605        0.017      337.393        9.336      864.770
10/30/2014  00:43:00      -89.505      -21.989       -0.020       29.491       21.530       13.332      869.725      463.536      177.736        0.500        0.076       92.167       15.281        0.027      337.358        9.278      864.743
10/30/2014  00:44:00      -87.510      -25.313       -2.773       28.022       18.771       15.347      785.206      352.363      235.525        0.484        0.069       91.098       14.401        0.025      337.358        9.277      864.725
10/30/2014  00:45:00     -124.228      -21.105      -15.034       22.661       13.702       15.898      513.502      187.741      252.738        0.853        0.048      126.008       14.720        0.014      337.265        9.122      864.707
10/30/2014  00:46:00     -129.566      -33.739      -17.440       14.252       12.237        9.855      203.128      149.739       97.120        0.934        0.022      133.887        4.472        0.001      337.159        8.945      864.709
10/30/2014  00:47:00     -121.652      -15.547      -14.850       30.172       12.129       15.762      910.340      147.116      248.455        0.828        0.065      122.642       14.597        0.014      337.221        9.049      864.705
10/30/2014  00:48:00     -127.363      -24.636      -14.885       21.013       15.832       11.806      441.534      250.667      139.383        0.894        0.042      129.723       10.878        0.007      337.222        9.050      864.701
10/30/2014  00:49:00     -106.986      -17.524      -12.027       17.814       13.424       15.229      317.356      180.195      231.926        0.631        0.036      108.412        7.661        0.005      337.263        9.120      864.696
10/30/2014  00:50:00      -91.198      -30.984      -21.682       19.013       13.167       13.151      361.484      173.365      172.944        0.523        0.035       96.317        6.067        0.004      337.238        9.078      864.697
10/30/2014  00:51:00      -72.347      -30.760       -9.932       17.773       17.912       19.003      315.872      320.857      361.126        0.364        0.050       78.614       13.510        0.030      337.162        8.949      864.698
10/30/2014  00:52:00      -92.076      -18.028      -10.055       27.982       27.646       12.474      783.015      764.327      155.607        0.530        0.085       93.824       13.672        0.021      337.175        8.972      864.695
10/30/2014  00:53:00      -86.366      -14.313      -17.115       19.012       13.739        9.107      361.451      188.755       82.936        0.429        0.032       87.544        7.022        0.006      337.156        8.938      864.698
10/30/2014  00:54:00      -66.815      -41.957       -8.753       25.932       32.016       16.817      672.483     1025.027      282.809        0.414        0.099       78.896       17.776        0.051      337.177        8.975      864.701
10/30/2014  00:55:00      -65.862      -41.133       -6.193       23.391       26.578       18.967      547.155      706.399      359.730        0.384        0.081       77.651        8.963        0.013      337.173        8.968      864.696
10/30/2014  00:56:00      -72.722      -48.852      -15.598       19.860       14.157       12.492      394.420      200.424      156.056        0.433        0.038       87.607        9.608        0.012      337.187        8.991      864.679
10/30/2014  00:57:00      -39.371      -52.162       -6.663       23.262       17.459       20.177      541.102      304.819      407.125        0.278        0.063       65.352        7.854        0.014      337.195        9.005      864.649
10/30/2014  00:58:00      -72.615       -9.223      -10.618       15.418       17.318       15.966      237.700      299.920      254.904        0.313        0.040       73.198       12.934        0.031      337.228        9.062      864.626
10/30/2014  00:59:00      -61.443      -33.487      -15.693        9.866       15.983       15.348       97.345      255.446      235.549        0.287        0.029       69.976        7.336        0.011      337.282        9.151      864.623
10/30/2014  01:00:00      -75.669      -41.875      -18.168       20.850       20.241       13.606      434.742      409.705      185.112        0.442        0.051       86.483       11.311        0.017      337.211        9.032      864.617
10/30/2014  01:01:00      -83.889      -35.900      -23.897       17.583       24.747       14.347      309.169      612.398      205.843        0.501        0.056       91.248       12.251        0.018      337.112        8.866      864.614
10/30/2014  01:02:00      -90.940      -41.522      -20.760       20.451       22.576       16.783      418.233      509.664      281.653        0.582        0.060       99.970       11.396        0.013      337.081        8.813      864.616
10/30/2014  01:03:00      -87.873      -34.450      -22.290       23.843       25.888       23.464      568.465      670.166      550.556        0.560        0.089       94.385       17.189        0.033      337.122        8.882      864.595
10/30/2014  01:04:00     -103.407      -30.298      -21.468       17.496       26.829       13.242      306.122      719.783      175.340        0.664        0.060      107.754       13.437        0.016      337.069        8.793      864.585
10/30/2014  01:05:00      -81.675      -28.938       -9.683       28.170       27.473       17.678      793.563      754.770      312.507        0.473        0.093       86.650       16.320        0.035      337.070        8.796      864.578
10/30/2014  01:06:00      -81.782      -38.156       -8.170       26.517       35.203       19.955      703.145     1239.258      398.185        0.528        0.117       90.245       13.143        0.021      337.153        8.935      864.555
10/30/2014  01:07:00     -108.199      -24.239      -14.195       18.393       26.109       15.356      338.310      681.677      235.809        0.688        0.063      110.880       12.255        0.012      337.208        9.029      864.540
10/30/2014  01:08:00     -119.815      -37.900      -18.537       13.823       22.392       14.518      191.069      501.397      210.780        0.852        0.045      125.667       11.008        0.008      337.195        9.005      864.532
10/30/2014  01:09:00     -119.728      -37.529      -11.886       18.378       22.617       15.104      337.746      511.546      228.128        0.848        0.054      125.472       12.719        0.010      337.206        9.023      864.527
10/30/2014  01:10:00     -114.603      -23.157      -15.746       14.908       14.952       14.857      222.244      223.555      220.728        0.729        0.033      116.919        9.996        0.007      337.146        8.924      864.516
10/30/2014  01:11:00     -107.608      -30.890       -9.561       18.320       14.194       12.358      335.616      201.458      152.732        0.666        0.034      111.954        9.970        0.008      337.127        8.890      864.508
10/30/2014  01:12:00     -111.382      -25.637      -12.817       16.453       14.092       10.793      270.691      198.575      116.496        0.691        0.029      114.294        6.631        0.003      337.253        9.105      864.504
10/30/2014  01:13:00     -102.144      -30.141      -10.816       16.242       13.945       13.843      263.803      194.455      191.625        0.605        0.032      106.498       11.316        0.011      337.268        9.127      864.509
10/30/2014  01:14:00     -104.662      -33.655      -16.641       11.459       12.070        7.394      131.300      145.677       54.677        0.635        0.017      109.940        6.367        0.003      337.262        9.116      864.500
10/30/2014  01:15:00     -102.775      -26.361      -11.359       13.438       12.240       11.502      180.574      149.812      132.305        0.592        0.023      106.102        6.427        0.004      337.151        8.931      864.499
10/30/2014  01:16:00     -111.956      -29.766      -20.931       13.354       14.216       10.963      178.333      202.102      120.196        0.718        0.025      115.846        6.906        0.004      337.132        8.900      864.508
10/30/2014  01:17:00     -128.739      -46.316      -18.816        9.715       11.331        8.491       94.376      128.390       72.097        0.968        0.015      136.817        4.814        0.001      337.126        8.890      864.499
10/30/2014  01:18:00     -127.363      -38.780      -16.573       13.444       13.928       10.621      180.752      193.999      112.799        0.924        0.024      133.136        4.344        0.001      337.127        8.891      864.496
10/30/2014  01:19:00     -120.623      -30.980      -16.318       16.412       12.112       14.149      269.340      146.710      200.202        0.820        0.031      124.538       10.535        0.007      337.153        8.936      864.492
10/30/2014  01:20:00     -117.718      -33.828      -10.012       20.682       14.199       13.982      427.748      201.620      195.501        0.796        0.041      122.482       11.971        0.010      337.106        8.857      864.495
10/30/2014  01:21:00     -115.702      -45.490      -11.144       10.951        8.584        9.110      119.919       73.686       82.993        0.793        0.014      124.323        6.791        0.003      337.048        8.759      864.492
10/30/2014  01:22:00     -122.544      -64.586       -9.778       13.338       12.584        8.833      177.895      158.365       78.019        0.985        0.021      138.522        2.811        0.000      337.109        8.861      864.491
10/30/2014  01:23:00     -140.603      -61.011       -7.802       14.915       15.389       12.533      222.447      236.815      157.066        1.208        0.031      153.269        4.016        0.001      337.011        8.698      864.505
10/30/2014  01:24:00     -125.575      -43.806      -11.575       14.890       18.191       12.144      221.699      330.925      147.472        0.926        0.035      132.997        5.353        0.002      336.976        8.639      864.521
10/30/2014  01:25:00      -96.585      -23.932       -6.841       14.988       13.572        9.911      224.651      184.194       98.233        0.523        0.025       99.506        6.526        0.004      336.973        8.633      864.513
10/30/2014  01:26:00      -95.766      -40.153      -10.095       14.289       15.088        8.272      204.162      227.651       68.418        0.569        0.025      103.843        5.724        0.003      337.056        8.773      864.501
10/30/2014  01:27:00      -88.200      -32.017       -5.393       33.270       23.271       19.901     1106.881      541.520      396.036        0.544        0.102       93.832       20.729        0.049      337.054        8.769      864.489
10/30/2014  01:28:00      -70.955      -30.192        4.082       39.622       37.478       21.733     1569.940     1404.574      472.310        0.470        0.172       77.112       21.160        0.075      337.105        8.854      864.489
10/30/2014  01:29:00      -79.796      -44.947        2.406       32.048       27.455       17.489     1027.059      753.751      305.877        0.524        0.104       91.584       16.194        0.031      337.025        8.719      864.485
10/30/2014  01:30:00      -78.243      -55.964       -3.302       27.612       16.127       17.998      762.450      260.077      323.935        0.531        0.067       96.198       15.647        0.026      336.957        8.607      864.473
10/30/2014  01:31:00     -100.084      -63.781       -9.940       31.922       31.321       19.559     1019.028      981.012      382.540        0.828        0.119      118.680       16.594        0.020      336.977        8.641      864.462
10/30/2014  01:32:00     -138.799      -44.614      -14.661       27.594       33.323       19.414      761.430     1110.435      376.919        1.186        0.112      145.793       15.822        0.012      336.973        8.632      864.449
10/30/2014  01:33:00     -103.131      -21.391       -3.599       30.768       28.959       20.615      946.683      838.625      424.989        0.666        0.111      105.326       17.515        0.028      336.879        8.477      864.447
10/30/2014  01:34:00      -97.610      -51.962       -6.427       25.924       26.542       15.507      672.054      704.491      240.470        0.694        0.081      110.580        7.279        0.004      337.011        8.696      864.445
10/30/2014  01:35:00      -82.304      -30.104      -13.112       15.967       23.715       13.430      254.942      562.424      180.368        0.442        0.050       87.637       10.130        0.013      336.949        8.593      864.449
10/30/2014  01:36:00     -100.302      -32.433      -15.985       13.117       11.253       10.105      172.046      126.623      102.115        0.588        0.020      105.415        4.718        0.002      336.948        8.592      864.441
10/30/2014  01:37:00     -115.756      -21.984      -17.487       15.778       20.638       15.386      248.953      425.939      236.728        0.755        0.046      117.825       10.035        0.007      337.054        8.767      864.428
10/30/2014  01:38:00     -107.269      -31.435      -13.921       27.306       18.722       15.784      745.626      350.527      249.142        0.702        0.067      111.780       14.136        0.016      337.035        8.735      864.414
10/30/2014  01:39:00      -92.804      -35.259       -4.020       18.358       15.929        9.996      337.003      253.739       99.930        0.528        0.035       99.276        7.092        0.005      337.007        8.689      864.410
10/30/2014  01:40:00     -106.360      -67.008      -10.656       16.166       16.272       13.317      261.324      264.789      177.355        0.831        0.035      125.708        6.815        0.003      337.009        8.692      864.423
10/30/2014  01:41:00      -90.124      -73.525       -4.452       38.290       32.148       18.876     1466.100     1033.470      356.301        0.820        0.143      116.311       15.932        0.019      337.026        8.720      864.436
10/30/2014  01:42:00      -76.730      -66.834        4.022       46.063       30.741       22.765     2121.834      945.036      518.242        0.698        0.179      101.756       17.212        0.029      336.994        8.668      864.451
10/30/2014  01:43:00     -108.984      -66.209       -1.629       38.802       24.412       24.231     1505.611      595.947      587.130        0.948        0.134      127.520       20.820        0.027      337.039        8.743      864.462
10/30/2014  01:44:00      -59.776      -53.346       -2.883       29.990       24.369       21.089      899.425      593.838      444.728        0.418        0.097       80.118       20.073        0.063      337.099        8.843      864.465
10/30/2014  01:45:00      -99.463      -47.774       -4.692       28.211       21.727       16.285      795.885      472.059      265.211        0.686        0.077      110.341       11.864        0.012      337.062        8.781      864.456
10/30/2014  01:46:00      -74.949      -50.773        1.327       33.591       24.916       20.669     1128.340      620.810      427.193        0.519        0.109       90.527       18.779        0.043      336.976        8.638      864.463
10/30/2014  01:47:00     -119.979      -32.730       -4.680       22.319       20.233       14.507      498.156      409.361      210.442        0.830        0.056      124.363       13.340        0.012      336.900        8.512      864.464
10/30/2014  01:48:00     -110.747      -38.196        4.558       38.325       33.718       22.841     1468.807     1136.872      521.692        0.844        0.156      117.149       21.222        0.033      336.864        8.453      864.463
10/30/2014  01:49:00     -136.219      -55.290       -0.982       24.882       26.764       19.110      619.094      716.318      365.188        1.166        0.085      147.012       11.681        0.006      336.868        8.457      864.462
10/30/2014  01:50:00     -132.194      -48.181       -1.059       39.318       24.852       20.990     1545.889      617.601      440.575        1.120        0.130      140.700       23.420        0.028      336.908        8.524      864.458
10/30/2014  01:51:00     -134.412      -53.382        0.593       33.547       24.615       16.828     1125.383      605.886      283.187        1.147        0.101      144.624       18.806        0.017      336.946        8.589      864.456
10/30/2014  01:52:00     -123.208      -63.984        2.981       33.597       20.722       18.279     1128.776      429.402      334.132        1.059        0.095      138.831       16.455        0.014      337.082        8.815      864.458
10/30/2014  01:53:00     -135.008      -54.668       -6.389       29.147       22.580       18.648      849.524      509.859      347.734        1.148        0.085      145.656       15.106        0.011      336.999        8.678      864.470
10/30/2014  01:54:00     -134.347      -44.100        3.428       30.438       26.099       22.873      926.473      681.178      523.197        1.107        0.107      141.400       20.015        0.020      336.926        8.555      864.459
10/30/2014  01:55:00     -154.160      -15.889      -13.151       34.638       24.161       16.097     1199.792      583.734      259.126        1.312        0.102      154.977       18.292        0.014      336.786        8.323      864.451
10/30/2014  01:56:00     -125.347      -47.126       -0.047       27.710       18.646       15.673      767.826      347.687      245.648        0.965        0.068      133.913       13.141        0.010      336.860        8.444      864.441
10/30/2014  01:57:00     -134.885      -46.923       -3.830       18.226       17.226       11.738      332.192      296.751      137.781        1.059        0.038      142.813        8.413        0.003      336.881        8.481      864.432
10/30/2014  01:58:00     -110.090      -29.300       -5.566       26.984       20.467       18.494      728.119      418.918      342.020        0.725        0.074      113.923       16.968        0.022      336.869        8.460      864.421
10/30/2014  01:59:00     -107.644      -24.190       -2.606       32.510       21.984       22.864     1056.885      483.288      522.779        0.712        0.103      110.329       22.040        0.040      336.852        8.431      864.413
10/30/2014  02:00:00     -103.848      -19.250       -2.397       38.355       20.420       18.594     1471.076      416.968      345.719        0.670        0.112      105.617       19.618        0.035      336.808        8.357      864.409
10/30/2014  02:01:00     -115.601       -0.381       -5.189       45.038       23.601       20.299     2028.412      557.005      412.069        0.819        0.150      115.602       23.790        0.042      336.775        8.305      864.413
10/30/2014  02:02:00      -79.496      -11.426       -3.101       48.236       28.487       19.535     2326.668      811.516      381.611        0.499        0.176       80.313       20.737        0.067      336.787        8.324      864.411
10/30/2014  02:03:00      -67.638      -41.629       -4.326       37.969       31.358       22.299     1441.635      983.298      497.250        0.462        0.146       79.422       21.673        0.074      336.824        8.385      864.421
10/30/2014  02:04:00     -117.362      -57.473       -5.760       29.512       17.630       12.126      870.964      310.831      147.039        0.922        0.066      130.679        6.331        0.002      336.807        8.355      864.431
10/30/2014  02:05:00     -131.469      -57.166       -9.637       19.128       15.133       11.001      365.865      229.011      121.011        1.068        0.036      143.359        4.436        0.001      336.829        8.392      864.434
10/30/2014  02:06:00     -103.834      -36.634       -4.278       18.538       16.190       12.405      343.668      262.114      153.880        0.645        0.038      110.107       11.112        0.010      336.762        8.282      864.423
10/30/2014  02:07:00      -95.739      -17.304       -8.269       24.867       21.010       15.395      618.373      441.412      236.994        0.542        0.065       97.291       13.010        0.018      336.710        8.195      864.418
10/30/2014  02:08:00     -101.249      -40.839       -3.618       22.962       17.845       12.906      527.261      318.455      166.562        0.647        0.051      109.175       11.043        0.010      336.764        8.285      864.428
10/30/2014  02:09:00      -25.631      -31.198       11.104       40.874       18.665       17.048     1670.675      348.397      290.621        0.203        0.115       40.376       22.337        0.306      336.789        8.327      864.440
10/30/2014  02:10:00      -22.046      -17.813        6.678       28.856       15.142       15.610      832.669      229.283      243.667        0.108        0.065       28.343       19.370        0.467      336.768        8.293      864.448
10/30/2014  02:11:00      -47.704      -23.865       -6.208       15.211       10.446        7.284      231.386      109.120       53.060        0.164        0.020       53.341        5.901        0.012      336.811        8.364      864.435
10/30/2014  02:12:00      -91.087      -11.072      -12.397       17.409        9.975        7.774      303.076       99.509       60.438        0.452        0.023       91.758        7.246        0.006      336.875        8.469      864.419
10/30/2014  02:13:00     -103.220      -14.010      -10.867       20.416       12.291        8.788      416.802      151.077       77.223        0.581        0.032      104.167        6.046        0.003      336.823        8.383      864.412
10/30/2014  02:14:00     -112.531      -25.527      -10.289       16.220       16.769       11.303      263.104      281.204      127.758        0.705        0.034      115.390        7.433        0.004      336.749        8.260      864.416
10/30/2014  02:15:00     -113.168      -34.667       -6.304       24.821       16.605       10.539      616.090      275.725      111.069        0.753        0.050      118.359        9.235        0.006      336.716        8.206      864.425
10/30/2014  02:16:00     -102.246      -15.981       -5.607       20.342       16.958       16.492      413.817      287.567      271.971        0.586        0.049      103.487       12.905        0.016      336.748        8.259      864.428
10/30/2014  02:17:00      -72.193      -45.697        0.543       26.573       17.797       15.490      706.114      316.751      239.947        0.428        0.063       85.441       13.848        0.026      336.725        8.221      864.436
10/30/2014  02:18:00      -59.944      -37.215        6.076       30.807       28.274       21.877      949.079      799.415      478.591        0.362        0.111       70.556       16.865        0.057      336.674        8.136      864.434
10/30/2014  02:19:00      -91.348      -39.622       -0.304       28.847       19.120       14.568      832.170      365.559      212.226        0.566        0.070       99.570       13.052        0.017      336.629        8.060      864.429
10/30/2014  02:20:00      -84.163      -36.634       -1.322       18.966       19.416       11.569      359.694      376.963      133.837        0.465        0.044       91.790        8.864        0.009      336.620        8.044      864.428
10/30/2014  02:21:00      -56.704      -35.592        8.314       35.932       26.764       19.895     1291.078      716.286      395.829        0.348        0.120       66.949       22.410        0.112      336.677        8.140      864.418
10/30/2014  02:22:00      -97.106      -57.917        0.406       25.529       22.264       16.429      651.753      495.689      269.918        0.710        0.071      113.066       14.152        0.016      336.739        8.241      864.424
10/30/2014  02:23:00      -61.771      -40.446        3.980       39.376       20.163       18.466     1550.483      406.550      340.978        0.388        0.115       73.834       19.519        0.070      336.653        8.101      864.435
10/30/2014  02:24:00      -49.286      -36.306        3.174       38.481       21.154       16.807     1480.783      447.486      282.461        0.298        0.111       61.214       20.131        0.108      336.567        7.956      864.439
10/30/2014  02:25:00      -51.056      -36.250        3.403       35.096       21.099       17.827     1231.697      445.157      317.801        0.296        0.100       62.616       17.718        0.080      336.576        7.971      864.435
10/30/2014  02:26:00     -112.252      -44.116        3.615       21.998       17.350       12.727      483.917      301.033      161.965        0.775        0.047      120.610       11.631        0.009      336.611        8.029      864.428
10/30/2014  02:27:00      -62.021      -38.673        6.062       34.919       21.855       21.709     1219.352      477.647      471.283        0.377        0.108       73.091       20.742        0.081      336.523        7.883      864.430
10/30/2014  02:28:00      -84.522      -38.345       -1.620       47.955       28.375       16.216     2299.640      805.166      262.963        0.599        0.168       92.813       14.439        0.024      336.525        7.886      864.432
10/30/2014  02:29:00      -92.528      -45.056       -0.161       52.526       24.776       20.210     2759.006      613.826      408.462        0.719        0.189      102.915       11.249        0.012      336.416        7.702      864.430
10/30/2014  02:30:00      -97.540      -53.480        8.491       35.156       29.777       17.584     1235.956      886.686      309.201        0.744        0.122      111.240       18.530        0.028      336.505        7.852      864.431
10/30/2014  02:31:00      -81.037      -40.124        2.551       41.441       27.108       21.109     1717.343      734.858      445.607        0.554        0.145       90.426       21.553        0.057      336.485        7.818      864.430
10/30/2014  02:32:00      -93.639      -23.817        3.641       36.728       27.904       18.987     1348.982      778.659      360.500        0.592        0.124       96.620       19.576        0.041      336.366        7.620      864.434
10/30/2014  02:33:00      -93.840      -27.358        5.208       35.786       28.842       23.933     1280.663      831.836      572.804        0.613        0.134       97.746       21.070        0.046      336.395        7.668      864.442
10/30/2014  02:34:00     -133.560      -52.543       -4.226       24.649       19.432       13.661      607.584      377.603      186.634        1.089        0.059      143.523       11.154        0.006      336.661        8.113      864.450
10/30/2014  02:35:00     -121.663      -72.027      -11.399       19.284       19.248       12.510      371.885      370.498      156.503        1.051        0.045      141.385        4.688        0.001      336.683        8.151      864.440
10/30/2014  02:36:00     -112.945      -55.712       -7.543       23.975       15.274       13.322      574.801      233.291      177.468        0.845        0.049      125.938        4.606        0.001      336.637        8.075      864.426
10/30/2014  02:37:00     -101.431      -44.453      -12.858       17.534       22.043       11.314      307.427      485.892      128.002        0.668        0.046      110.745        6.276        0.003      336.533        7.900      864.413
10/30/2014  02:38:00     -105.157      -16.372      -13.735       19.215       15.161        9.836      369.212      229.847       96.747        0.611        0.035      106.424        6.674        0.004      336.486        7.819      864.396
10/30/2014  02:39:00     -103.974      -23.944      -13.047       21.022       19.156       14.727      441.925      366.954      216.886        0.629        0.051      106.695       12.598        0.014      336.476        7.804      864.389
10/30/2014  02:40:00     -116.863      -44.119       -7.646       21.364       22.470       11.133      456.404      504.911      123.936        0.837        0.054      124.914        9.437        0.006      336.505        7.853      864.379
10/30/2014  02:41:00     -122.441      -37.220       -8.242       25.525       20.389       14.422      651.528      415.694      207.984        0.886        0.064      127.973        7.351        0.003      336.358        7.606      864.363
10/30/2014  02:42:00     -141.696      -46.930       -3.688       27.497       19.532       16.404      756.106      381.506      269.104        1.185        0.070      149.265       16.298        0.012      336.398        7.672      864.349
10/30/2014  02:43:00     -154.738      -39.354       -6.897       25.906       30.756       21.088      671.101      945.936      444.695        1.380        0.103      159.664       15.332        0.009      336.357        7.606      864.349
10/30/2014  02:44:00     -134.898      -43.348       -6.895       21.023       19.092       12.537      441.968      364.513      157.182        1.054        0.048      141.692        6.876        0.002      336.353        7.598      864.351
10/30/2014  02:45:00     -118.059      -54.000       -4.037       29.891       18.122       14.700      893.451      328.414      216.080        0.915        0.072      129.822       15.221        0.014      336.357        7.603      864.344
10/30/2014  02:46:00     -103.375      -49.331       -0.408       31.422       18.878       14.368      987.336      356.364      206.454        0.733        0.078      114.542       10.851        0.009      336.352        7.596      864.330
10/30/2014  02:47:00      -57.753      -45.497        4.928       40.339       21.125       16.888     1627.253      446.256      285.219        0.389        0.118       73.522       19.399        0.070      336.371        7.628      864.332
10/30/2014  02:48:00      -90.086      -38.008       -3.909       14.862       16.722        9.284      220.879      279.641       86.186        0.508        0.029       97.776        6.270        0.004      336.437        7.738      864.325
10/30/2014  02:49:00      -55.153      -26.806        3.789       41.919       15.562       15.394     1757.238      242.172      236.977        0.301        0.112       61.323       18.092        0.087      336.417        7.705      864.315
10/30/2014  02:50:00      -79.717      -63.911       -2.696       26.741       23.984       13.549      715.092      575.242      183.572        0.596        0.074      102.174       12.026        0.014      336.431        7.726      864.324
10/30/2014  02:51:00     -130.793      -89.323       -3.840       28.017       30.897       21.117      784.948      954.644      445.929        1.364        0.109      158.384       13.559        0.007      336.359        7.608      864.333
10/30/2014  02:52:00     -133.169      -71.272        0.163       60.809       36.211       22.039     3697.677     1311.234      485.721        1.415        0.275      151.042       21.730        0.021      336.185        7.316      864.329
10/30/2014  02:53:00     -123.609      -60.849       -1.285       40.949       29.972       22.016     1676.848      898.346      484.694        1.102        0.153      137.775       20.476        0.022      336.201        7.344      864.323
10/30/2014  02:54:00      -97.782      -42.100       -3.929       26.739       21.594       14.511      714.975      466.281      210.568        0.637        0.070      106.460        6.927        0.004      336.281        7.477      864.321
10/30/2014  02:55:00      -61.051      -35.926        0.502       18.261       17.184       12.031      333.448      295.300      144.752        0.290        0.039       70.837       10.407        0.022      336.233        7.397      864.327
10/30/2014  02:56:00      -68.678      -57.767       -2.395       26.044       19.937       18.641      678.294      397.483      347.489        0.474        0.071       89.742       14.898        0.028      336.355        7.600      864.343
10/30/2014  02:57:00      -65.395      -44.899        4.584       42.576       36.443       22.452     1812.718     1328.109      504.071        0.498        0.182       79.324       22.365        0.079      336.306        7.518      864.345
10/30/2014  02:58:00     -100.276      -51.272        5.439       39.282       29.059       24.415     1543.103      844.435      596.084        0.785        0.149      112.624       18.100        0.026      336.243        7.413      864.345
10/30/2014  02:59:00     -112.582      -84.879        0.063       46.100       30.620       20.415     2125.198      937.612      416.783        1.168        0.174      140.994       18.799        0.018      336.376        7.637      864.326
10/30/2014  03:00:00      -79.421      -50.957       10.436       40.940       39.900       25.978     1676.092     1591.980      674.882        0.648        0.197       94.363       23.531        0.062      336.355        7.601      864.310
10/30/2014  03:01:00     -118.713      -61.917        1.687       33.104       28.916       19.945     1095.865      836.118      397.810        1.013        0.116      133.890       20.234        0.023      336.366        7.620      864.283
10/30/2014  03:02:00     -122.171      -43.987       -0.714       24.405       19.943       16.971      595.614      397.721      288.016        0.907        0.064      129.848       13.902        0.011      336.242        7.412      864.262
10/30/2014  03:03:00     -134.871      -39.566       -3.389       24.660       18.428       12.551      608.094      339.584      157.520        1.044        0.055      140.555       12.115        0.007      336.166        7.286      864.256
10/30/2014  03:04:00     -129.338      -36.192       -0.161       35.486       25.681       17.698     1259.284      659.490      313.217        1.013        0.112      134.306       15.595        0.013      336.143        7.247      864.244
10/30/2014  03:05:00     -133.183      -36.021        2.264       40.192       23.208       20.541     1615.413      538.614      421.943        1.081        0.129      137.968       20.852        0.023      336.170        7.291      864.231
10/30/2014  03:06:00     -124.953      -61.179        4.006       29.810       27.643       17.479      888.639      764.144      305.515        1.066        0.098      139.126       14.004        0.010      336.223        7.381      864.217
10/30/2014  03:07:00     -123.126      -68.212        2.266       40.609       33.767       23.369     1649.119     1140.205      546.089        1.158        0.167      140.758       22.998        0.027      336.277        7.470      864.203
10/30/2014  03:08:00     -144.979      -55.849       -4.272       28.784       24.468       17.523      828.544      598.698      307.064        1.294        0.087      155.364       12.014        0.006      336.347        7.588      864.198
10/30/2014  03:09:00     -131.635      -48.088        2.031       31.886       25.480       16.756     1016.724      649.255      280.767        1.080        0.097      140.144       15.177        0.012      336.144        7.249      864.185
10/30/2014  03:10:00     -136.639      -49.515        0.583       35.762       28.470       18.886     1278.940      810.568      356.668        1.178        0.122      145.334       16.656        0.013      336.105        7.183      864.178
10/30/2014  03:11:00     -145.027      -45.723       -7.120       26.457       21.954       18.478      699.976      481.972      341.451        1.235        0.076      152.064       13.470        0.008      336.128        7.222      864.178
10/30/2014  03:12:00     -142.099      -19.666      -12.690       37.711       22.870       17.433     1422.114      523.022      303.903        1.149        0.112      143.454       16.723        0.014      336.115        7.200      864.172
10/30/2014  03:13:00     -106.432      -14.861       -0.608       47.691       34.588       24.138     2274.472     1196.304      582.650        0.780        0.203      107.465       23.736        0.049      336.135        7.233      864.164
10/30/2014  03:14:00     -118.770      -32.370       -2.135       35.152       27.748       19.051     1235.655      769.927      362.956        0.876        0.118      123.102       20.484        0.028      336.191        7.326      864.148
10/30/2014  03:15:00     -105.395      -14.698       -6.241       48.015       23.739       16.847     2305.450      563.536      283.820        0.726        0.158      106.415       19.245        0.033      336.156        7.268      864.119
10/30/2014  03:16:00     -121.382      -20.448       -4.417       33.706       25.007       22.791     1136.119      625.362      519.426        0.873        0.114      123.093       21.610        0.031      336.118        7.203      864.098
10/30/2014  03:17:00     -106.224      -18.851       -1.890       44.472       33.017       27.714     1977.742     1090.152      768.087        0.774        0.192      107.884       27.763        0.066      336.033        7.062      864.091
10/30/2014  03:18:00      -67.151      -42.850        4.367       44.968       28.238       20.903     2022.084      797.404      436.926        0.481        0.163       79.658       23.140        0.084      336.019        7.040      864.098
10/30/2014  03:19:00     -133.424      -43.572      -17.110       17.820       14.413       12.943      317.565      207.723      167.511        1.034        0.035      140.359        3.978        0.001      336.075        7.133      864.098
10/30/2014  03:20:00      -66.718      -38.691       -0.534       33.170       22.783       15.334     1100.241      519.049      235.128        0.390        0.093       77.125       14.418        0.035      336.119        7.206      864.103
10/30/2014  03:21:00      -68.371      -50.609        0.004       27.910       30.774       15.745      778.951      947.028      247.890        0.460        0.099       85.064       11.610        0.019      336.259        7.439      864.098
10/30/2014  03:22:00      -65.107      -21.902       -4.554       24.685       17.285        9.610      609.329      298.756       92.345        0.287        0.050       68.693        7.377        0.012      336.329        7.557      864.090
10/30/2014  03:23:00      -96.280      -34.640       -7.134       11.137       16.357       10.622      124.037      267.549      112.819        0.551        0.025      102.322        5.255        0.003      336.326        7.552      864.069
10/30/2014  03:24:00     -103.411      -34.974       -9.090       18.056       22.040       16.039      326.008      485.741      257.241        0.653        0.053      109.165       12.609        0.013      336.240        7.407      864.068
10/30/2014  03:25:00      -86.718      -39.666       -1.905       29.614       23.133       12.150      876.974      535.146      147.612        0.533        0.078       95.360       10.407        0.012      336.287        7.487      864.044
10/30/2014  03:26:00      -94.819      -35.768       -1.611       20.276       18.044       12.313      411.112      325.588      151.621        0.558        0.044      101.341        8.235        0.007      336.260        7.441      864.031
10/30/2014  03:27:00      -64.929      -14.018        0.626       35.539       17.804       12.159     1263.024      316.993      147.841        0.307        0.086       66.425       14.123        0.045      336.194        7.331      864.020
10/30/2014  03:28:00      -63.760      -12.535        4.010       25.299       16.216       16.249      640.014      262.969      264.019        0.270        0.058       64.980       15.515        0.057      336.128        7.222      864.019
10/30/2014  03:29:00      -70.197      -24.381        3.663       24.988       19.613       14.189      624.422      384.683      201.314        0.337        0.061       74.311       14.427        0.038      336.212        7.362      864.023
10/30/2014  03:30:00      -79.926      -44.939        1.235       31.692       21.439       14.968     1004.410      459.626      224.028        0.505        0.084       91.694       16.101        0.031      336.211        7.361      864.023
10/30/2014  03:31:00      -58.024      -60.292        4.903       32.671       24.839       18.136     1067.362      616.962      328.922        0.452        0.101       83.678       17.782        0.045      336.286        7.486      864.024
10/30/2014  03:32:00      -60.858      -34.975        2.584       28.904       25.828       17.467      835.420      667.084      305.089        0.337        0.090       70.192       14.946        0.045      336.256        7.437      864.007
10/30/2014  03:33:00      -89.101      -35.766        2.465       26.610       16.257       13.017      708.070      264.292      169.450        0.518        0.057       96.011       12.181        0.016      336.198        7.338      863.989
10/30/2014  03:34:00      -41.984      -35.798        4.570       35.971       21.674       13.802     1293.937      469.775      190.505        0.251        0.098       55.174       15.209        0.076      336.163        7.280      863.979
10/30/2014  03:35:00      -26.785      -29.367        1.041       23.140       17.948       12.938      535.452      322.132      167.395        0.130        0.051       39.747       11.476        0.083      336.202        7.345      863.968
10/30/2014  03:36:00      -38.575      -35.935        2.343       19.548       17.055       14.023      382.132      290.869      196.655        0.183        0.043       52.720        8.999        0.029      336.187        7.321      863.967
10/30/2014  03:37:00      -83.135      -66.104       -8.268       18.879       19.580       12.343      356.399      383.366      152.355        0.612        0.045      106.213        4.862        0.002      336.268        7.456      863.968
10/30/2014  03:38:00      -53.272      -53.157        0.714       36.686       34.338       16.970     1345.882     1179.111      287.985        0.424        0.141       75.256       18.667        0.062      336.205        7.350      863.969
10/30/2014  03:39:00      -55.793      -35.818        4.686       37.143       30.192       21.041     1379.630      911.542      442.706        0.358        0.137       66.301       18.282        0.076      336.234        7.399      863.968
10/30/2014  03:40:00     -100.148      -35.343      -10.363       19.741       19.227       16.371      389.696      369.668      268.026        0.621        0.051      106.202        7.335        0.005      336.200        7.341      863.963
10/30/2014  03:41:00      -85.303      -43.371       -1.783       26.150       24.317       14.800      683.806      591.301      219.047        0.533        0.075       95.696        9.921        0.011      336.166        7.284      863.958
10/30/2014  03:42:00      -59.649      -20.948       -0.053       30.763       18.507       12.413      946.347      342.491      154.082        0.272        0.072       63.221       14.177        0.050      336.073        7.129      863.953
10/30/2014  03:43:00      -60.932       -8.719       -2.125       22.429       19.297       13.150      503.057      372.370      172.934        0.242        0.052       61.553       10.648        0.030      336.015        7.033      863.940
10/30/2014  03:44:00      -76.744      -18.061       -1.705       24.319       18.829       13.982      591.421      354.513      195.488        0.368        0.057       78.841       12.817        0.026      335.943        6.912      863.926
10/30/2014  03:45:00      -60.065      -37.871        3.030       27.588       17.981       16.712      761.099      323.313      279.284        0.321        0.068       71.008       16.928        0.057      335.976        6.966      863.929
10/30/2014  03:46:00     -100.221      -20.022       -1.077       21.614       17.624       11.098      467.150      310.589      123.162        0.567        0.045      102.201       10.639        0.011      335.919        6.873      863.924
10/30/2014  03:47:00      -64.994      -14.351       -3.984       23.669       11.084        8.904      560.217      122.851       79.277        0.260        0.038       66.559        5.560        0.007      335.850        6.758      863.916
10/30/2014  03:48:00      -38.256      -19.362       -6.161       15.767        8.242        6.002      248.592       67.933       36.019        0.111        0.018       42.877        6.602        0.024      335.875        6.798      863.915
10/30/2014  03:49:00      -71.126      -21.324       -8.358       10.341       10.002        7.002      106.927      100.041       49.025        0.292        0.013       74.254        5.651        0.006      335.916        6.868      863.909
10/30/2014  03:50:00      -91.879       -1.221       -9.367       23.914       15.612       13.715      571.894      243.732      188.108        0.477        0.050       91.887       11.763        0.016      335.875        6.800      863.896
10/30/2014  03:51:00     -112.840      -10.695       -6.813       20.194       15.490       14.525      407.780      239.925      210.978        0.688        0.043      113.346        9.988        0.008      335.851        6.759      863.891
10/30/2014  03:52:00     -115.754       -9.209       -5.799       19.112       17.391       14.678      365.272      302.456      215.437        0.720        0.044      116.120       12.101        0.011      335.737        6.571      863.887
10/30/2014  03:53:00      -91.125       -1.813       -5.860       22.254       13.932       12.958      495.226      194.103      167.913        0.460        0.043       91.143        8.388        0.008      335.718        6.539      863.884
10/30/2014  03:54:00      -56.749       -1.008       -7.724       23.198       18.553       13.234      538.129      344.210      175.145        0.217        0.053       56.758       10.625        0.035      335.709        6.524      863.875
10/30/2014  03:55:00      -95.682       -0.479      -10.648       11.524        9.078        9.118      132.798       82.416       83.145        0.478        0.015       95.683        6.397        0.004      335.792        6.662      863.864
10/30/2014  03:56:00      -81.020      -14.211      -11.931       15.892       12.366        8.420      252.566      152.924       70.890        0.369        0.024       82.257        7.779        0.009      335.786        6.652      863.854
10/30/2014  03:57:00      -89.626      -18.648      -14.380        9.622       10.807        6.807       92.589      116.790       46.339        0.442        0.013       91.545        1.656        0.000      335.774        6.632      863.842
10/30/2014  03:58:00      -95.586      -25.406      -13.871        9.544       12.566        7.291       91.097      157.914       53.165        0.514        0.015       98.905        3.561        0.001      335.715        6.535      863.829
10/30/2014  03:59:00      -86.894       -8.495      -12.874       14.664        9.886        9.044      215.021       97.732       81.799        0.409        0.020       87.309        7.204        0.007      335.742        6.579      863.829
10/30/2014  04:00:00      -63.268      -15.745       -2.609       15.929       12.354       10.894      253.741      152.624      118.679        0.239        0.026       65.198       10.584        0.026      335.718        6.538      863.833
10/30/2014  04:01:00      -73.730       -8.877       -2.327       26.250       11.339       10.725      689.070      128.569      115.023        0.323        0.047       74.262       12.862        0.030      335.694        6.500      863.823
10/30/2014  04:02:00      -95.232       -9.139      -13.265       17.294       11.443       10.011      299.096      130.935      100.218        0.493        0.027       95.670        9.393        0.010      335.778        6.638      863.795
10/30/2014  04:03:00      -90.331       -5.679      -15.740       14.038       13.266       10.766      197.053      175.977      115.913        0.446        0.024       90.509        9.174        0.010      335.787        6.654      863.782
10/30/2014  04:04:00      -83.147       -2.080       -9.341       12.646       10.434        9.563      159.912      108.875       91.449        0.368        0.018       83.173        5.298        0.004      335.675        6.466      863.774
10/30/2014  04:05:00      -85.227      -12.041       -8.813       13.381       14.044       11.234      179.040      197.232      126.204        0.399        0.025       86.074        7.981        0.009      335.671        6.461      863.788
10/30/2014  04:06:00      -84.945      -22.730       -6.891       17.781       12.657       11.471      316.171      160.190      131.588        0.419        0.030       87.933        5.025        0.003      335.636        6.403      863.799
10/30/2014  04:07:00      -84.319      -19.421       -2.867       23.150       19.663       13.638      535.907      386.628      185.983        0.430        0.055       86.527       12.164        0.020      335.633        6.398      863.807
10/30/2014  04:08:00      -88.974      -30.085       -4.189       18.083       18.753       14.193      326.991      351.661      201.446        0.486        0.044       93.923        7.875        0.007      335.568        6.289      863.802
10/30/2014  04:09:00      -73.037      -25.857       -1.804       23.716       12.678       10.341      562.440      160.743      106.934        0.342        0.042       77.479       10.092        0.017      335.633        6.395      863.795
10/30/2014  04:10:00      -59.547      -18.568       -0.579       18.085       15.067        9.259      327.077      227.015       85.734        0.227        0.032       62.375        6.196        0.010      335.626        6.384      863.794
10/30/2014  04:11:00      -89.864      -24.100       -6.363       18.577       12.028       12.452      345.092      144.680      155.059        0.467        0.032       93.040        9.818        0.011      335.641        6.408      863.794
10/30/2014  04:12:00      -83.898      -27.502       -1.388       21.292       15.331       12.419      453.356      235.029      154.224        0.432        0.042       88.291       12.081        0.019      335.618        6.373      863.788
10/30/2014  04:13:00     -101.255      -17.823       -8.911       14.888       10.895       10.831      221.643      118.695      117.305        0.555        0.023      102.812        8.853        0.007      335.623        6.381      863.779
10/30/2014  04:14:00      -89.263      -23.139       -4.239       19.550       11.891        9.440      382.204      141.390       89.115        0.457        0.031       92.213        8.233        0.008      335.615        6.369      863.762
10/30/2014  04:15:00      -52.718      -20.383        7.101       25.431       16.379       15.027      646.753      268.265      225.804        0.219        0.057       56.522       15.155        0.072      335.510        6.192      863.755
10/30/2014  04:16:00      -45.888      -17.804        0.498       19.246       13.145       12.522      370.417      172.788      156.789        0.156        0.035       49.220       12.482        0.064      335.594        6.333      863.739
10/30/2014  04:17:00      -48.633       -2.898       -1.905       16.652       12.574        9.736      277.303      158.117       94.797        0.145        0.027       48.719        8.568        0.031      335.597        6.337      863.715
10/30/2014  04:18:00      -69.963       -3.313      -10.575        9.636       10.828        8.130       92.847      117.247       66.104        0.265        0.014       70.041        3.990        0.003      335.653        6.430      863.692
10/30/2014  04:19:00      -72.281      -22.604       -8.330       14.028       12.274        7.916      196.774      150.639       62.668        0.311        0.021       75.733        5.089        0.005      335.715        6.534      863.680
10/30/2014  04:20:00      -73.381      -31.926       -7.833        8.115        7.407        6.449       65.861       54.870       41.594        0.331        0.008       80.025        3.949        0.002      335.744        6.582      863.683
10/30/2014  04:21:00      -35.490      -22.743        6.686       32.957       18.327       14.678     1086.196      335.878      215.440        0.173        0.082       42.152       17.605        0.174      335.690        6.492      863.686
10/30/2014  04:22:00      -20.533      -19.091        3.154       19.804       15.622       13.635      392.205      244.058      185.906        0.081        0.041       28.036        9.920        0.125      335.678        6.474      863.684
10/30/2014  04:23:00      -51.668      -25.356       -1.147       22.144        5.967       10.137      490.355       35.607      102.766        0.197        0.031       57.554       12.213        0.045      335.665        6.448      863.669
10/30/2014  04:24:00      -55.955      -28.999       -5.972       11.646        9.942        6.141      135.621       98.849       37.708        0.214        0.014       63.023        5.724        0.008      335.639        6.406      863.663
10/30/2014  04:25:00      -46.253      -12.844       -3.737       25.088       13.208        9.258      629.405      174.461       85.706        0.160        0.044       48.003        6.757        0.020      335.646        6.420      863.656
10/30/2014  04:26:00      -78.008       -2.525       -5.595       11.307       11.385        6.253      127.844      129.618       39.105        0.321        0.015       78.049        2.908        0.001      335.603        6.348      863.658
10/30/2014  04:27:00      -73.379       -8.903       -3.114       16.289       16.149       11.438      265.337      260.789      130.837        0.307        0.033       73.917       10.269        0.019      335.585        6.317      863.650
10/30/2014  04:28:00      -84.156       -7.865       -1.469       20.009       15.520       11.603      400.372      240.870      134.620        0.396        0.039       84.522        9.699        0.013      335.557        6.269      863.636
10/30/2014  04:29:00      -65.778      -24.896       -0.825       21.285       13.785       13.238      453.055      190.025      175.233        0.288        0.041       70.331       11.408        0.026      335.565        6.283      863.631
10/30/2014  04:30:00      -42.850      -26.406       -0.426       20.108       15.157       13.088      404.345      229.721      171.305        0.167        0.040       50.333        9.233        0.034      335.614        6.365      863.636
10/30/2014  04:31:00      -66.177      -17.076       -3.549       10.489        8.243        5.037      110.028       67.944       25.375        0.244        0.010       68.345        2.907        0.002      335.621        6.377      863.633
10/30/2014  04:32:00      -76.199      -19.972       -8.135        7.452        8.371        6.174       55.526       70.067       38.122        0.322        0.008       78.773        2.448        0.001      335.508        6.189      863.630
10/30/2014  04:33:00      -76.594      -26.856       -4.892       25.043       16.637       12.158      627.148      276.786      147.826        0.383        0.053       81.166       11.619        0.020      335.486        6.152      863.627
10/30/2014  04:34:00      -90.134      -40.257        1.810       27.399       18.343       15.755      750.680      336.472      248.218        0.554        0.067       98.716       15.485        0.025      335.426        6.051      863.621
10/30/2014  04:35:00      -74.392      -12.843       -1.235       34.683       23.305       15.155     1202.889      543.120      229.675        0.384        0.099       75.492       18.790        0.062      335.330        5.891      863.620
10/30/2014  04:36:00      -77.081      -20.875       -6.570       31.247       16.192       14.076      976.370      262.171      198.130        0.393        0.072       79.858       16.027        0.040      335.339        5.906      863.620
10/30/2014  04:37:00      -58.811      -28.811        2.366       22.567       21.615       11.477      509.254      467.219      131.731        0.270        0.055       65.489       11.116        0.029      335.375        5.966      863.619
10/30/2014  04:38:00      -55.364      -26.574        1.339       19.536       18.835       12.092      381.636      354.768      146.205        0.233        0.044       61.412        7.217        0.014      335.401        6.009      863.613
10/30/2014  04:39:00      -63.029      -23.096       -2.421       33.401       17.941       11.896     1115.600      321.872      141.524        0.305        0.079       67.127       12.531        0.035      335.405        6.016      863.612
10/30/2014  04:40:00      -64.311      -18.100       -1.931       21.197       17.699       11.623      449.300      313.262      135.085        0.268        0.045       66.810        9.843        0.022      335.430        6.057      863.620
10/30/2014  04:41:00     -101.586      -27.470       -8.197       20.460       12.754        9.784      418.631      162.655       95.728        0.591        0.034      105.234        5.438        0.003      335.453        6.096      863.616
10/30/2014  04:42:00     -106.686      -54.796       -4.844       26.648       20.436       12.981      710.139      417.619      168.499        0.785        0.065      119.935        8.950        0.006      335.438        6.072      863.613
10/30/2014  04:43:00      -82.349      -32.814       -0.628       23.813       16.834       12.570      567.075      283.381      157.999        0.443        0.050       88.646       12.178        0.019      335.345        5.915      863.617
10/30/2014  04:44:00      -52.852      -14.830       -0.297       21.227       12.200        9.874      450.601      148.829       97.488        0.186        0.035       54.894       10.288        0.035      335.327        5.886      863.634
10/30/2014  04:45:00      -31.097      -22.797        5.620       22.247       14.933       10.428      494.922      223.009      108.736        0.117        0.041       38.558       11.813        0.094      335.376        5.969      863.630
10/30/2014  04:46:00      -49.141      -20.946       -2.472       25.986       12.868       11.251      675.293      165.590      126.584        0.191        0.048       53.419       12.381        0.054      335.309        5.856      863.633
10/30/2014  04:47:00      -87.148      -11.880       -7.902       13.026       14.935       10.938      169.683      223.067      119.637        0.416        0.026       87.954        8.122        0.009      335.323        5.881      863.646
10/30/2014  04:48:00      -99.121      -14.953       -9.113       14.232       12.881       12.557      202.537      165.908      157.684        0.533        0.026      100.243        8.981        0.008      335.351        5.926      863.663
10/30/2014  04:49:00     -109.392      -12.382      -11.882       15.383       15.622       11.196      236.626      244.052      125.358        0.643        0.030      110.091        8.603        0.006      335.264        5.781      863.667
10/30/2014  04:50:00     -112.230      -14.677      -12.309       22.824       14.588       13.284      520.919      212.799      176.453        0.694        0.046      113.185       11.160        0.010      335.273        5.798      863.662
10/30/2014  04:51:00     -109.386      -11.996       -5.429       25.765       21.865       15.343      663.813      478.096      235.413        0.676        0.069      110.041       14.208        0.017      335.200        5.676      863.650
10/30/2014  04:52:00     -122.826       -9.883      -13.441       26.591       16.988       20.077      707.081      288.600      403.097        0.838        0.070      123.223       17.458        0.020      335.169        5.625      863.643
10/30/2014  04:53:00     -104.719      -10.327       -9.708       43.860       24.243       20.823     1923.735      587.746      433.583        0.706        0.147      105.227       23.081        0.048      335.154        5.599      863.632
10/30/2014  04:54:00     -123.497        0.483      -12.186       32.223       23.844       16.428     1038.347      568.548      269.877        0.864        0.094      123.498       11.213        0.008      335.074        5.467      863.629
10/30/2014  04:55:00     -119.252       -3.374      -12.205       31.178       26.222       19.683      972.066      687.582      387.418        0.821        0.102      119.300       16.771        0.020      335.197        5.671      863.644
10/30/2014  04:56:00     -141.775        8.973      -18.016       23.828       28.248       20.501      567.778      797.924      420.309        1.115        0.089      142.059       15.263        0.012      335.160        5.611      863.652
10/30/2014  04:57:00      -92.712      -24.346       -5.732       23.413       26.280       19.323      548.172      690.622      373.364        0.542        0.081       95.856       14.404        0.023      335.156        5.602      863.646
10/30/2014  04:58:00      -95.791      -27.660       -5.804       24.616       32.980       16.814      605.931     1087.651      282.709        0.598        0.099       99.705       13.130        0.017      335.090        5.493      863.640
10/30/2014  04:59:00      -52.777      -12.966       -0.686       34.626       23.119       19.352     1198.973      534.498      374.501        0.253        0.105       54.346       18.877        0.121      335.083        5.481      863.641
10/30/2014  05:00:00      -67.514      -20.376       -5.550       34.199       21.223       18.217     1169.581      450.402      331.862        0.348        0.098       70.522       20.572        0.085      335.111        5.528      863.629
10/30/2014  05:01:00      -99.843       -0.569       -8.405       27.629       24.937       17.049      763.378      621.841      290.683        0.586        0.084       99.844       12.555        0.016      335.228        5.721      863.610
10/30/2014  05:02:00     -138.085       -8.815      -19.093       14.430       18.649       12.788      208.235      347.803      163.541        1.011        0.036      138.366        8.417        0.004      335.338        5.903      863.599
10/30/2014  05:03:00     -148.342       -3.491      -16.663       22.738       23.046       14.444      517.009      531.118      208.637        1.178        0.063      148.384       14.599        0.010      335.327        5.886      863.584
10/30/2014  05:04:00     -137.425       -8.937      -18.901       26.377       23.444       17.418      695.743      549.604      303.376        1.044        0.077      137.716       15.414        0.013      335.324        5.881      863.581
10/30/2014  05:05:00     -138.046        3.774      -11.186       19.474       19.975       12.586      379.229      398.982      158.407        1.007        0.047      138.098        7.768        0.003      335.308        5.853      863.568
10/30/2014  05:06:00     -144.417        4.053      -17.611       50.771       30.662       21.107     2577.702      940.153      445.486        1.257        0.198      144.474       24.807        0.029      335.344        5.914      863.565
10/30/2014  05:07:00     -122.198      -17.349      -10.347       45.699       31.102       20.857     2088.380      967.307      435.016        0.941        0.175      123.424       20.633        0.028      335.290        5.824      863.560
10/30/2014  05:08:00     -126.637      -20.839      -10.319       36.227       28.687       24.352     1312.427      822.950      593.023        0.965        0.136      128.340       22.681        0.031      335.214        5.697      863.542
10/30/2014  05:09:00     -111.295       -0.824       -0.448       43.506       31.479       23.785     1892.804      990.898      565.706        0.792        0.172      111.298       22.470        0.041      335.266        5.785      863.531
10/30/2014  05:10:00      -97.765       -4.202      -10.316       33.603       38.311       21.543     1129.165     1467.702      464.098        0.637        0.153       97.855       11.430        0.014      335.249        5.756      863.533
10/30/2014  05:11:00     -104.843      -25.945      -12.592       19.016       21.023       16.973      361.612      441.973      288.091        0.646        0.055      108.006       11.361        0.011      335.306        5.851      863.539
10/30/2014  05:12:00      -82.495      -13.579       -1.750       21.362       24.639       18.229      456.333      607.094      332.286        0.419        0.070       83.605       13.546        0.026      335.274        5.798      863.542
10/30/2014  05:13:00      -67.969      -24.952       -4.179       19.924       19.940       11.817      396.956      397.588      139.646        0.310        0.047       72.405        8.315        0.013      335.287        5.820      863.543
10/30/2014  05:14:00      -50.573      -20.089       -0.902       21.072       17.475       11.743      444.026      305.377      137.895        0.192        0.044       54.417       13.063        0.058      335.256        5.768      863.541
10/30/2014  05:15:00      -75.373      -31.173       -5.115       17.140       21.287        9.562      293.795      453.157       91.434        0.376        0.042       81.564        6.294        0.006      335.373        5.962      863.537
10/30/2014  05:16:00      -87.885      -40.020      -10.214       18.304       28.909        8.442      335.031      835.748       71.268        0.534        0.062       96.568        9.807        0.010      335.425        6.049      863.525
10/30/2014  05:17:00     -100.205      -26.521      -13.260       17.270       16.270       11.035      298.247      264.698      121.764        0.580        0.034      103.655        6.376        0.004      335.320        5.873      863.521
10/30/2014  05:18:00      -84.765      -33.990       -8.795       16.774       14.455       10.604      281.362      208.952      112.435        0.451        0.030       91.326        8.089        0.008      335.320        5.874      863.511
10/30/2014  05:19:00      -88.722      -35.524        0.838       14.953       13.944        8.280      223.589      194.445       68.554        0.481        0.024       95.569        6.662        0.005      335.307        5.852      863.536
10/30/2014  05:20:00      -82.218      -39.273       -4.451       12.994       12.058        8.421      168.843      145.390       70.914        0.435        0.019       91.116        6.000        0.004      335.300        5.841      863.542
10/30/2014  05:21:00      -70.685      -40.440       -3.660       15.222       13.610       12.307      231.696      185.236      151.454        0.361        0.028       81.436        5.171        0.004      335.261        5.776      863.543
10/30/2014  05:22:00      -72.949      -18.271       -7.588       13.210       15.992        9.976      174.499      255.736       99.521        0.312        0.026       75.203        8.013        0.011      335.266        5.784      863.541
10/30/2014  05:23:00      -86.282      -20.860       -6.656       19.343       13.112       12.828      374.147      171.923      164.554        0.432        0.036       88.768       11.969        0.018      335.244        5.748      863.544
10/30/2014  05:24:00     -114.286        1.209      -12.357       22.829       13.463       11.733      521.149      181.258      137.656        0.703        0.042      114.292        7.444        0.004      335.213        5.697      863.527
10/30/2014  05:25:00     -102.321       -1.486      -11.812       23.805       16.920       12.868      566.684      286.293      165.575        0.581        0.051      102.332       10.801        0.011      335.222        5.712      863.506
10/30/2014  05:26:00      -75.607      -24.060       -2.770       31.654       21.097       11.814     1001.951      445.076      139.573        0.394        0.079       79.343       10.629        0.018      335.274        5.797      863.494
10/30/2014  05:27:00      -89.865      -19.351        0.571       29.308       18.375       15.769      858.974      337.627      248.672        0.495        0.072       91.924       15.930        0.030      335.287        5.820      863.473
10/30/2014  05:28:00      -98.659      -29.402       -0.930       30.796       17.034       13.248      948.382      290.167      175.499        0.601        0.071      102.947       11.895        0.013      335.329        5.890      863.457
10/30/2014  05:29:00     -105.328      -42.809       -2.283       27.919       35.108       14.822      779.493     1232.567      219.683        0.758        0.112      113.695       12.917        0.013      335.219        5.707      863.450
10/30/2014  05:30:00      -75.332      -12.877       -0.612       47.553       21.074       16.998     2261.310      444.102      288.945        0.442        0.150       76.424       22.449        0.086      335.128        5.558      863.456
10/30/2014  05:31:00     -129.475        6.548      -10.497       25.332       22.400       14.637      641.708      501.771      214.230        0.914        0.068      129.640       14.959        0.013      335.402        6.013      863.445
10/30/2014  05:32:00     -130.410      -16.568       -7.392       25.210       25.317       14.720      635.561      640.966      216.669        0.941        0.075      131.459       11.206        0.007      335.386        5.984      863.424
10/30/2014  05:33:00     -121.986      -19.839      -10.120       28.290       20.819       16.051      800.334      433.421      257.627        0.843        0.075      123.589       14.923        0.015      335.328        5.887      863.409
10/30/2014  05:34:00     -115.000      -29.828       -6.201       28.803       25.714       16.218      829.614      661.202      263.038        0.795        0.088      118.805       12.622        0.011      335.251        5.760      863.400
10/30/2014  05:35:00     -120.306      -17.909       -4.568       64.970       32.795       25.492     4221.063     1075.481      649.867        1.038        0.297      121.632       33.573        0.076      335.167        5.621      863.398
10/30/2014  05:36:00      -84.287      -32.805       -5.257       45.663       39.262       16.430     2085.104     1541.522      269.941        0.605        0.195       90.446       14.894        0.027      335.131        5.563      863.389
10/30/2014  05:37:00     -147.994      -57.155       -6.067       34.278       35.664       23.207     1174.976     1271.904      538.562        1.409        0.149      158.647       15.129        0.009      335.067        5.454      863.388
10/30/2014  05:38:00     -130.118      -37.546       -3.038       42.877       45.683       26.347     1838.458     2086.966      694.190        1.148        0.231      135.426        7.850        0.003      335.055        5.437      863.392
10/30/2014  05:39:00     -105.567      -41.544       -1.224       46.447       54.112       24.469     2157.307     2928.129      598.754        0.928        0.284      113.447       21.305        0.035      335.058        5.442      863.386
10/30/2014  05:40:00     -115.683      -35.797        1.816       64.394       55.701       30.141     4146.551     3102.656      908.465        1.141        0.408      121.095       29.670        0.060      334.998        5.341      863.391
10/30/2014  05:41:00     -107.353       -9.153       -2.943       41.588       37.842       24.290     1729.527     1432.045      589.980        0.768        0.188      107.743       22.493        0.044      334.961        5.281      863.374
10/30/2014  05:42:00      -72.981      -31.136        1.805       34.197       31.324       16.610     1169.437      981.221      275.883        0.436        0.121       79.345       16.510        0.043      334.967        5.290      863.363
10/30/2014  05:43:00      -68.059        2.064       -4.074       26.114       28.002       18.783      681.939      784.124      352.784        0.324        0.091       68.090       13.137        0.037      335.013        5.365      863.357
10/30/2014  05:44:00      -80.682      -23.694      -11.722       28.875       19.733       22.765      833.779      389.396      518.238        0.447        0.087       84.090       12.377        0.022      335.094        5.501      863.364
10/30/2014  05:45:00     -115.428      -35.218      -26.298       34.350       32.696       16.941     1179.934     1069.028      287.004        0.890        0.127      120.681       12.353        0.010      335.127        5.556      863.358
10/30/2014  05:46:00     -109.803      -40.553      -16.941       46.424       28.767       18.125     2155.207      827.561      328.520        0.865        0.166      117.052       13.372        0.013      335.115        5.536      863.342
10/30/2014  05:47:00      -67.561      -49.054       -5.807       38.540       27.000       20.066     1485.322      728.987      402.642        0.481        0.131       83.491       19.695        0.056      335.110        5.528      863.336
10/30/2014  05:48:00      -62.020      -45.322      -16.189       35.666       23.391       27.769     1272.029      547.132      771.133        0.438        0.130       76.815       15.373        0.040      335.088        5.491      863.329
10/30/2014  05:49:00      -78.898      -38.286      -12.826       17.942       20.820       18.865      321.923      433.468      355.889        0.448        0.056       87.696        5.713        0.004      335.118        5.539      863.330
10/30/2014  05:50:00      -61.090      -19.505       -9.168       33.042       27.270       19.916     1091.802      743.640      396.637        0.321        0.112       64.128       11.038        0.030      335.188        5.655      863.324
10/30/2014  05:51:00      -85.385      -51.797      -19.973       21.078       25.014       18.043      444.268      625.703      325.538        0.588        0.070       99.868       11.144        0.012      335.188        5.656      863.323
10/30/2014  05:52:00      -91.087      -44.423      -19.145       24.168       26.042       19.314      584.112      678.197      373.041        0.614        0.082      101.342       14.099        0.019      335.146        5.586      863.329
10/30/2014  05:53:00      -94.485      -64.788      -14.564       22.925       23.057       14.808      525.555      531.630      219.285        0.731        0.064      114.564       10.523        0.008      335.163        5.615      863.332
10/30/2014  05:54:00     -129.561      -61.879      -17.556       19.459       21.072       12.534      378.657      444.021      157.104        1.095        0.049      143.580       10.192        0.005      335.110        5.527      863.340
10/30/2014  05:55:00     -148.969      -47.118      -18.380       26.093       19.622       11.364      680.859      385.007      129.150        1.297        0.060      156.243       10.350        0.004      335.147        5.588      863.349
10/30/2014  05:56:00     -158.155      -14.955      -14.111       20.648       15.602       12.638      426.357      243.422      159.729        1.313        0.041      158.861        9.724        0.004      335.149        5.591      863.341
10/30/2014  05:57:00     -126.549      -36.826      -15.831       16.709       16.231       12.120      279.195      263.455      146.897        0.916        0.034      131.799        6.821        0.003      335.120        5.544      863.332
10/30/2014  05:58:00     -114.150      -68.720      -10.108       17.610       18.805       13.060      310.105      353.637      170.566        0.934        0.042      133.239        9.346        0.005      335.176        5.636      863.343
10/30/2014  05:59:00     -127.610      -56.767       -2.246       26.619       24.450       14.459      708.555      597.823      209.069        1.051        0.076      139.666       13.821        0.010      335.126        5.554      863.361
10/30/2014  06:00:00      -70.024      -38.667        2.161       29.219       14.158       13.577      853.723      200.439      184.332        0.382        0.062       79.991        5.189        0.004      335.204        5.683      863.372
10/30/2014  06:01:00      -45.097      -27.161        7.007       33.596       27.621       19.335     1128.722      762.920      373.833        0.254        0.113       52.645       17.632        0.112      335.163        5.613      863.378
10/30/2014  06:02:00      -74.443      -50.687       -2.244       35.628       19.507       16.762     1269.354      380.527      280.962        0.502        0.097       90.061       14.384        0.026      335.183        5.647      863.379
10/30/2014  06:03:00      -90.683      -56.289       -9.262       23.512       15.565       13.560      552.835      242.258      183.865        0.623        0.049      106.733        7.263        0.005      335.158        5.605      863.386
10/30/2014  06:04:00     -108.137      -57.168       -7.023       23.025       27.274       15.429      530.155      743.883      238.055        0.826        0.076      122.318       10.397        0.007      335.180        5.642      863.380
10/30/2014  06:05:00     -127.266      -47.474      -18.834       14.346       18.075       10.607      205.821      326.713      112.500        0.972        0.032      135.833        6.317        0.002      335.240        5.740      863.362
10/30/2014  06:06:00     -120.683      -48.134       -4.921       25.017       18.727       12.691      625.860      350.707      161.058        0.902        0.057      129.928       10.299        0.006      335.255        5.766      863.344
10/30/2014  06:07:00     -117.640      -65.424       -4.866       33.275       21.378       18.765     1107.253      457.034      352.143        1.003        0.096      134.609       11.894        0.008      335.215        5.700      863.353
10/30/2014  06:08:00     -124.263      -58.774      -10.853       26.779       22.009       16.210      717.102      484.414      262.779        1.024        0.073      137.462       12.411        0.008      335.210        5.691      863.371
10/30/2014  06:09:00      -88.486      -29.217       -5.301       22.882       29.013       13.572      523.574      841.769      184.209        0.513        0.077       93.184       12.562        0.018      335.199        5.673      863.380
10/30/2014  06:10:00      -51.889      -24.971        2.183       17.185       15.596        9.397      295.321      243.240       88.295        0.197        0.031       57.585        9.432        0.027      335.220        5.708      863.380
10/30/2014  06:11:00      -39.854      -16.242       -3.703       17.029       13.959        8.804      289.986      194.858       77.517        0.121        0.028       43.037        8.075        0.035      335.180        5.642      863.368
10/30/2014  06:12:00      -63.095      -23.678       -9.720       15.742       12.688        8.553      247.810      160.974       73.161        0.256        0.024       67.391        7.110        0.011      335.242        5.745      863.369
10/30/2014  06:13:00     -102.540      -28.983      -14.545       17.077       15.064       11.959      291.628      226.918      143.028        0.611        0.033      106.557       10.158        0.009      335.210        5.692      863.370
10/30/2014  06:14:00     -104.030      -41.829      -12.484       13.588       18.525       11.485      184.629      343.172      131.908        0.669        0.033      112.124        8.817        0.006      335.134        5.567      863.389
10/30/2014  06:15:00      -85.491      -58.078       -9.376       18.175       17.317       16.227      330.333      299.865      263.321        0.583        0.045      103.353        5.057        0.002      335.064        5.451      863.395
10/30/2014  06:16:00      -67.373      -51.635       -7.497       21.819       23.911       14.288      476.053      571.750      204.151        0.426        0.063       84.884       12.245        0.021      335.046        5.423      863.402
10/30/2014  06:17:00      -59.260      -25.746       -8.010       13.050       11.774        7.214      170.292      138.616       52.035        0.230        0.018       64.611        2.570        0.002      335.066        5.453      863.406
10/30/2014  06:18:00      -64.220      -32.442      -12.672       14.040       11.514       10.058      197.123      132.562      101.157        0.288        0.022       71.950        9.162        0.016      335.077        5.474      863.405
10/30/2014  06:19:00      -70.544      -34.071      -16.574       11.219       15.451        9.424      125.863      238.719       88.804        0.343        0.023       78.341        3.799        0.002      335.141        5.579      863.392
10/30/2014  06:20:00      -67.439      -13.543      -12.028       15.832       15.323       11.898      250.664      234.809      141.559        0.275        0.031       68.785        6.227        0.008      335.036        5.406      863.382
10/30/2014  06:21:00      -75.002      -32.747      -14.329       13.216       11.968       11.729      174.666      143.233      137.571        0.368        0.023       81.840        7.835        0.009      335.035        5.403      863.369
10/30/2014  06:22:00      -71.105      -43.514      -12.986       40.636       22.313       18.800     1651.307      497.858      353.435        0.481        0.125       83.363       20.710        0.062      335.077        5.472      863.379
10/30/2014  06:23:00      -94.219      -57.214       -4.768       35.480       24.795       17.078     1258.855      614.809      291.664        0.717        0.108      110.230       19.268        0.031      334.939        5.242      863.395
10/30/2014  06:24:00      -86.345      -36.924       -8.749       23.308       21.983       14.443      543.251      483.233      208.599        0.507        0.062       93.909       10.981        0.014      334.980        5.309      863.397
10/30/2014  06:25:00      -98.937      -18.961       -8.778       14.545       19.430        9.641      211.559      377.522       92.942        0.545        0.034      100.737        5.912        0.003      335.092        5.496      863.392
10/30/2014  06:26:00      -89.337      -54.945        0.450       34.137       24.549       18.965     1165.352      602.667      359.672        0.656        0.106      104.881       16.226        0.024      335.176        5.635      863.408
10/30/2014  06:27:00      -98.665      -47.544       -1.278       22.082       26.080       15.713      487.623      680.158      246.896        0.671        0.071      109.523       14.041        0.016      335.258        5.771      863.414
10/30/2014  06:28:00      -57.067      -15.254       -6.010       15.968       14.132        7.213      254.988      199.722       52.034        0.202        0.025       59.070        3.885        0.004      335.250        5.759      863.402
10/30/2014  06:29:00      -60.040       -8.074       -5.510       13.509       10.340        6.154      182.490      106.916       37.877        0.201        0.016       60.580        4.061        0.004      335.316        5.868      863.383
10/30/2014  06:30:00      -76.168      -15.361       -6.930       15.465       14.044        9.754      239.175      197.220       95.136        0.331        0.027       77.702        7.924        0.010      335.321        5.876      863.382
10/30/2014  06:31:00      -83.392      -41.337       -4.039       16.876       14.104        9.681      284.809      198.925       93.723        0.463        0.029       93.075        5.861        0.004      335.391        5.994      863.393
10/30/2014  06:32:00      -84.895      -36.955       -6.682       25.273       21.356       14.641      638.717      456.074      214.352        0.496        0.065       92.589       13.378        0.021      335.349        5.922      863.386
10/30/2014  06:33:00      -95.599      -40.611       -4.958       30.775       19.852       13.407      947.126      394.120      179.756        0.617        0.076      103.868       11.070        0.011      335.236        5.735      863.375
10/30/2014  06:34:00      -94.046      -47.452       -8.206       27.903       17.829       15.310      778.570      317.866      234.403        0.625        0.067      105.339       14.749        0.020      335.163        5.615      863.376
10/30/2014  06:35:00      -89.076      -43.691       -1.842       21.159       24.333       14.918      447.714      592.088      222.556        0.555        0.063       99.214        8.322        0.007      335.130        5.560      863.387
10/30/2014  06:36:00      -62.645      -20.935       -0.797       25.483       16.745       12.311      649.393      280.379      151.565        0.272        0.054       66.051       14.085        0.045      335.140        5.575      863.389
10/30/2014  06:37:00      -54.831       -7.863       -2.999       12.520       12.910        8.201      156.762      166.664       67.251        0.173        0.020       55.392        6.866        0.015      335.094        5.499      863.389
10/30/2014  06:38:00      -46.454      -22.023       -4.971        9.201       10.251        7.777       84.656      105.083       60.474        0.146        0.013       51.410        4.267        0.007      335.197        5.670      863.389
10/30/2014  06:39:00      -46.294      -15.210       -5.582       11.617       11.262        6.536      134.952      126.836       42.726        0.136        0.015       48.729        4.079        0.007      335.238        5.737      863.384
10/30/2014  06:40:00      -65.518      -17.537       -5.402       11.621       13.843        7.050      135.059      191.624       49.704        0.250        0.019       67.824        5.513        0.007      335.279        5.806      863.392
10/30/2014  06:41:00      -74.595       -7.236       -9.164       12.658       12.449       13.322      160.213      154.975      177.466        0.310        0.025       74.945        8.376        0.012      335.154        5.599      863.398
10/30/2014  06:42:00      -75.743      -21.400       -2.813       15.169       15.210       10.094      230.100      231.344      101.894        0.338        0.028       78.708        5.107        0.004      335.133        5.565      863.386
10/30/2014  06:43:00      -89.318      -20.888       -8.130       13.490       17.756        9.964      181.973      315.258       99.289        0.454        0.030       91.728        8.650        0.009      335.122        5.548      863.359
10/30/2014  06:44:00     -115.479       -1.930      -11.112       15.439        9.143        9.732      238.348       83.590       94.706        0.694        0.021      115.496        5.926        0.003      335.134        5.566      863.343
10/30/2014  06:45:00     -106.601      -15.021       -5.334       18.808       17.642       11.230      353.722      311.241      126.107        0.620        0.040      107.654        8.984        0.007      335.046        5.420      863.365
10/30/2014  06:46:00      -94.347      -33.571       -2.954       23.246       18.227       12.504      540.373      332.236      156.341        0.553        0.051      100.142        9.760        0.009      335.080        5.477      863.406
10/30/2014  06:47:00      -79.186      -27.324       -5.484       26.405       14.315       14.919      697.234      204.916      222.585        0.409        0.056       83.768       15.111        0.033      335.049        5.426      863.434
10/30/2014  06:48:00      -92.258      -38.340       -5.047       23.325       21.592       18.256      544.060      466.214      333.299        0.567        0.067       99.907       15.718        0.025      335.085        5.485      863.446
10/30/2014  06:49:00      -69.265      -27.991       -0.043       24.356       26.140       16.391      593.220      683.289      268.660        0.356        0.077       74.707       14.664        0.039      335.051        5.428      863.437
10/30/2014  06:50:00      -90.388        6.651       -4.891       31.672       18.956       18.672     1003.134      359.329      348.644        0.497        0.086       90.633       16.461        0.033      334.943        5.248      863.419
10/30/2014  06:51:00      -71.685      -12.043       -3.391       18.852       20.544       15.760      355.397      422.037      248.390        0.316        0.051       72.690       10.231        0.020      335.039        5.409      863.424
10/30/2014  06:52:00      -19.389       -8.997       -9.404       19.870        6.334        8.375      394.836       40.115       70.143        0.053        0.025       21.375       11.269        0.278      335.100        5.511      863.438
10/30/2014  06:53:00      -29.566       -0.609       -6.311       13.944       13.358        7.719      194.429      178.425       59.577        0.067        0.022       29.572        9.859        0.111      335.446        6.085      863.444
10/30/2014  06:54:00      -15.841      -26.860       -2.047       13.446        9.924        9.284      180.800       98.482       86.198        0.067        0.018       31.183        6.189        0.039      335.395        5.998      863.459
10/30/2014  06:55:00      -40.764      -44.865       -2.741       27.494       22.708       14.930      755.919      515.632      222.907        0.259        0.075       60.618       10.408        0.029      335.287        5.820      863.478
10/30/2014  06:56:00      -72.294      -59.386       -2.601       35.824       25.578       18.516     1283.363      654.230      342.841        0.552        0.114       93.558       19.108        0.042      335.083        5.482      863.504
10/30/2014  06:57:00     -113.423      -55.609       -0.940       31.147       23.395       17.941      970.140      547.343      321.864        0.890        0.092      126.321       18.351        0.021      335.027        5.390      863.515
10/30/2014  06:58:00     -113.348      -47.321      -10.505       21.937       12.603       11.180      481.222      158.836      124.985        0.798        0.038      122.829        6.234        0.003      335.055        5.435      863.495
10/30/2014  06:59:00     -103.161       -9.391      -10.525       34.269       28.081       19.224     1174.355      788.537      369.544        0.659        0.117      103.587       18.857        0.033      334.932        5.230      863.476
10/30/2014  07:00:00      -43.964      -32.024       -3.700       40.778       28.080       15.266     1662.848      788.482      233.050        0.283        0.134       54.391       15.677        0.083      334.916        5.204      863.474
10/30/2014  07:01:00      -80.138      -30.412       -9.805       38.649       25.741       15.345     1493.772      662.619      235.455        0.492        0.120       85.715        8.911        0.011      335.083        5.483      863.497
10/30/2014  07:02:00     -109.801      -26.116       -8.864       48.428       35.689       22.151     2345.274     1273.717      490.683        0.846        0.205      112.864       23.187        0.042      334.966        5.288      863.508
10/30/2014  07:03:00     -125.457      -31.702       -8.826       33.901       29.450       22.050     1149.268      867.288      486.224        0.966        0.125      129.400       20.603        0.025      334.930        5.227      863.502
10/30/2014  07:04:00     -101.480      -11.014       -3.124       63.744       30.746       25.695     4063.259      945.335      660.221        0.805        0.283      102.076       29.022        0.081      334.956        5.273      863.501
10/30/2014  07:05:00      -70.471       -7.389        1.354       39.495       30.920       22.662     1559.889      956.036      513.562        0.403        0.151       70.858       23.183        0.107      334.924        5.217      863.500
10/30/2014  07:06:00      -19.682       -9.281        9.926       25.779       24.773       21.696      664.545      613.679      470.710        0.116        0.087       21.761       21.072        0.938      334.977        5.306      863.497
10/30/2014  07:07:00       -6.109       -3.430       -8.223       24.214       23.633       10.183      586.310      558.542      103.688        0.068        0.062        7.007        7.872        1.262      335.047        5.421      863.500
10/30/2014  07:08:00       13.889       16.487       11.788       14.845       23.715       14.977      220.380      562.400      224.307        0.081        0.050       21.558       15.202        0.497      335.139        5.575      863.498
10/30/2014  07:09:00       35.357       54.899       44.892       17.271       16.983       14.199      298.286      288.408      201.620        0.353        0.039       65.300        4.538        0.005      335.117        5.537      863.482
10/30/2014  07:10:00       45.457       43.452       27.365       17.050       14.189       13.173      290.711      201.329      173.537        0.268        0.033       62.884        9.634        0.023      335.079        5.476      863.449
10/30/2014  07:11:00       46.131       27.915        9.637        8.558        7.073       10.034       73.234       50.023      100.680        0.161        0.011       53.919        4.938        0.008      335.173        5.630      863.417
10/30/2014  07:12:00       31.091       19.470        3.735        8.614        5.278        8.699       74.204       27.854       75.666        0.077        0.009       36.684        4.289        0.014      335.234        5.730      863.401
10/30/2014  07:13:00       16.062        2.905        0.474       10.059        6.193        4.586      101.183       38.353       21.031        0.021        0.008       16.322        5.535        0.115      335.299        5.840      863.400
10/30/2014  07:14:00      -12.096      -26.244       -6.850        9.192       10.924        4.665       84.491      119.326       21.766        0.055        0.011       28.897        3.586        0.015      335.331        5.891      863.411
10/30/2014  07:15:00      -11.406      -20.160        0.239       10.915        7.005        6.000      119.145       49.074       35.997        0.037        0.010       23.163        4.079        0.031      335.351        5.926      863.415
10/30/2014  07:16:00       -0.190        2.644        6.897        9.669        6.190        8.000       93.484       38.311       64.004        0.013        0.010        2.650        6.652        6.299      335.234        5.731      863.410
10/30/2014  07:17:00        7.701       19.044       20.128        8.744       10.392        8.094       76.466      107.987       65.512        0.054        0.012       20.542        5.271        0.066      335.112        5.530      863.413
10/30/2014  07:18:00       -7.092        7.035       14.798        8.155        9.511       10.815       66.503       90.466      116.954        0.030        0.014        9.989        8.758        0.769      335.038        5.407      863.417
10/30/2014  07:19:00      -29.403       -5.497       -4.051        8.676        6.259        6.197       75.266       39.179       38.401        0.053        0.008       29.913        3.549        0.014      335.151        5.595      863.425
10/30/2014  07:20:00      -26.422       -9.687       -2.490        6.635        6.017        5.438       44.023       36.205       29.577        0.045        0.005       28.141        3.422        0.015      335.121        5.544      863.443
10/30/2014  07:21:00      -31.828      -12.013       -5.301        7.867        5.212        4.876       61.895       27.169       23.771        0.065        0.006       34.019        3.607        0.011      335.142        5.579      863.458
10/30/2014  07:22:00      -49.661        1.933       -6.350        7.113        9.973        5.953       50.598       99.462       35.441        0.135        0.009       49.698        4.095        0.007      335.157        5.605      863.451
10/30/2014  07:23:00      -65.375        4.026       -6.994       14.900        8.460        6.771      222.022       71.569       45.847        0.234        0.017       65.499        4.769        0.005      335.203        5.679      863.443
10/30/2014  07:24:00     -101.749       -6.919      -13.434        8.809       10.988        7.488       77.607      120.726       56.071        0.542        0.013      101.984        5.843        0.003      335.322        5.878      863.424
10/30/2014  07:25:00     -122.918        8.650      -12.432       17.758       11.612        9.442      315.363      134.845       89.158        0.794        0.027      123.222        6.627        0.003      335.088        5.491      863.406
10/30/2014  07:26:00      -65.464      -16.366       -0.152       37.956       18.936       15.036     1440.676      358.588      226.068        0.329        0.101       67.479       19.930        0.087      334.916        5.205      863.405
10/30/2014  07:27:00      -30.815       -9.397        0.498       27.828       17.117       15.575      774.415      292.981      242.565        0.117        0.065       32.216       17.380        0.291      334.940        5.245      863.411
10/30/2014  07:28:00      -25.969      -10.313       -1.298       13.886       14.872       10.365      192.810      221.172      107.437        0.065        0.026       27.942        8.216        0.086      334.999        5.342      863.408
10/30/2014  07:29:00      -49.188      -21.587       -7.708       16.581       17.687        9.823      274.931      312.822       96.484        0.181        0.034       53.716        4.506        0.007      334.987        5.323      863.408
10/30/2014  07:30:00      -68.330      -30.859      -12.610       28.349       22.019       12.288      803.654      484.828      151.003        0.361        0.072       74.975        9.843        0.017      335.029        5.394      863.415
10/30/2014  07:31:00      -51.793      -42.331        2.006       38.047       19.628       17.479     1447.558      385.248      305.511        0.331        0.107       66.892       15.398        0.053      335.017        5.371      863.434
10/30/2014  07:32:00      -35.760      -10.444        4.908       27.544       22.803       16.096      758.676      519.980      259.083        0.147        0.077       37.254       18.401        0.244      334.996        5.338      863.459
10/30/2014  07:33:00      -46.044      -21.715       -3.057       24.985       20.319       13.838      624.258      412.867      191.489        0.191        0.061       50.908       12.725        0.062      335.085        5.486      863.473
10/30/2014  07:34:00      -42.335        1.235        5.119       23.077       18.598       11.124      532.561      345.899      123.750        0.141        0.050       42.353        9.924        0.055      335.033        5.397      863.472
10/30/2014  07:35:00      -54.387      -20.065        1.845       21.516       17.323       11.032      462.926      300.090      121.711        0.212        0.044       57.970        7.798        0.018      335.112        5.530      863.491
10/30/2014  07:36:00      -50.573      -18.500        2.558       25.240       17.533       13.459      637.083      307.421      181.138        0.202        0.056       53.850       10.769        0.040      335.172        5.631      863.516
10/30/2014  07:37:00      -73.515       -7.781       -2.102       28.205       17.228       11.416      795.524      296.813      130.330        0.335        0.061       73.926       12.823        0.030      335.069        5.458      863.519
10/30/2014  07:38:00      -83.391      -11.573       -2.947       26.076       20.258       12.888      679.981      410.376      166.107        0.418        0.063       84.190       11.425        0.018      335.067        5.456      863.516
10/30/2014  07:39:00     -102.349      -30.859       -1.519       22.476       15.961       13.478      505.186      254.744      181.665        0.619        0.047      106.900       11.583        0.012      335.102        5.512      863.529
10/30/2014  07:40:00      -66.918      -45.634       -2.489       31.376       23.761       14.030      984.431      564.584      196.842        0.416        0.087       80.997       16.267        0.040      335.113        5.530      863.553
10/30/2014  07:41:00      -75.039      -18.883       -4.464       18.950       12.227        9.003      359.093      149.505       81.054        0.330        0.029       77.378        6.080        0.006      335.077        5.473      863.562
10/30/2014  07:42:00      -62.166      -17.107       -4.651       16.216       13.070        8.139      262.960      170.833       66.236        0.234        0.025       64.477        5.436        0.007      335.131        5.562      863.547
10/30/2014  07:43:00      -48.999      -14.623       -5.722       16.161       13.833        8.996      261.169      191.349       80.934        0.159        0.027       51.134        7.250        0.020      335.136        5.571      863.531
10/30/2014  07:44:00      -54.789      -19.933       -8.640       24.646       17.007        9.203      607.404      289.242       84.701        0.223        0.049       58.303        9.623        0.027      335.008        5.358      863.521
10/30/2014  07:45:00      -78.710      -39.351       -8.614       14.436       14.871       10.673      208.384      221.152      113.916        0.418        0.027       87.998        8.433        0.009      335.060        5.444      863.528
10/30/2014  07:46:00      -69.126      -33.881       -7.214        9.807       10.932        7.541       96.176      119.517       56.861        0.313        0.014       76.983        3.879        0.003      335.054        5.434      863.544
10/30/2014  07:47:00      -65.537      -33.354       -7.759       13.563       11.127        9.668      183.955      123.800       93.475        0.293        0.020       73.536        4.553        0.004      335.036        5.405      863.576
10/30/2014  07:48:00      -38.845      -26.657       -8.084       15.775       11.200       16.225      248.845      125.430      263.241        0.146        0.032       47.112       11.432        0.059      334.995        5.335      863.605
10/30/2014  07:49:00      -38.264       18.847       -8.074       14.790       16.321        8.919      218.745      266.366       79.542        0.122        0.028       42.654        9.273        0.047      334.997        5.339      863.618
10/30/2014  07:50:00      -25.991       22.261       -4.263       11.526        4.653        5.691      132.841       21.655       32.387        0.069        0.009       34.221        6.106        0.032      335.190        5.659      863.627
10/30/2014  07:51:00        8.739       15.195       -1.598        4.977        9.232        3.344       24.770       85.236       11.179        0.022        0.006       17.528        2.689        0.024      335.456        6.100      863.643
10/30/2014  07:52:00        5.733        1.051       -2.017        9.112       10.362        9.606       83.028      107.361       92.266        0.016        0.014        5.829        8.441        2.097      335.475        6.132      863.669
10/30/2014  07:53:00       -0.900      -14.435        2.890        8.347       10.649        9.212       69.667      113.403       84.853        0.024        0.013       14.463        5.654        0.153      335.524        6.215      863.688
10/30/2014  07:54:00       -0.027        0.001       10.287       10.377       12.492        9.832      107.684      156.040       96.665        0.023        0.018        0.027        8.971   113993.763      335.366        5.951      863.693
10/30/2014  07:55:00       -2.168       15.385       17.341        7.265        6.006        5.672       52.778       36.076       32.177        0.033        0.006       15.538        4.640        0.089      335.277        5.802      863.677
10/30/2014  07:56:00       11.395        8.269        8.443        9.724        6.752        5.713       94.547       45.591       32.640        0.022        0.009       14.079        5.534        0.154      335.296        5.834      863.669
10/30/2014  07:57:00       30.876       13.275       -0.813        9.886        6.372        8.098       97.734       40.604       65.572        0.067        0.010       33.609        6.929        0.043      335.399        6.006      863.682
10/30/2014  07:58:00       13.520        9.589        9.098       14.671        9.107        7.998      215.241       82.933       63.973        0.036        0.018       16.575        5.616        0.115      335.390        5.989      863.706
10/30/2014  07:59:00        3.282        5.275        3.460        8.422        5.498        8.806       70.932       30.229       77.553        0.011        0.009        6.213        4.529        0.531      335.347        5.917      863.716
10/30/2014  08:00:00       -2.480       -4.364       -2.926        5.670        5.742        6.665       32.153       32.973       44.428        0.007        0.005        5.019        2.793        0.310      335.506        6.187      863.709
10/30/2014  08:01:00      -14.157        6.858       -1.521       11.219        9.182        6.661      125.859       84.305       44.366        0.025        0.013       15.731        3.615        0.053      335.435        6.066      863.705
10/30/2014  08:02:00        4.457       31.294      -11.333       14.868       22.600        6.477      221.062      510.780       41.956        0.095        0.039       31.610        6.312        0.040      335.496        6.169      863.697
10/30/2014  08:03:00       -4.734       35.392       -1.283       17.298       13.073        9.863      299.233      170.909       97.278        0.092        0.028       35.707        9.033        0.064      335.455        6.100      863.690
10/30/2014  08:04:00       -3.240       32.933       -4.781        4.532        7.009        4.344       20.542       49.122       18.870        0.060        0.004       33.092        1.472        0.002      335.488        6.154      863.685
10/30/2014  08:05:00      -21.103       13.361       -6.566       10.167       11.723        6.677      103.363      137.434       44.579        0.048        0.014       24.977        4.196        0.028      335.440        6.076      863.699
10/30/2014  08:06:00      -16.392       -6.346       -4.950        8.155        6.352        6.335       66.497       40.348       40.133        0.024        0.007       17.578        4.311        0.060      335.498        6.171      863.730
10/30/2014  08:07:00      -18.600       -4.559       -7.244        7.811        8.274        6.188       61.016       68.467       38.295        0.029        0.008       19.150        4.110        0.046      335.541        6.243      863.748
10/30/2014  08:08:00      -34.315      -13.396       -3.453       20.791        8.392        8.833      432.257       70.427       78.014        0.097        0.029       36.837       10.001        0.074      335.529        6.225      863.770
10/30/2014  08:09:00      -60.606      -12.131       -4.270        9.151        8.905        6.859       83.747       79.296       47.052        0.202        0.011       61.808        3.859        0.004      335.486        6.152      863.782
10/30/2014  08:10:00      -56.433      -11.476       -7.183        9.526        8.073        7.539       90.746       65.166       56.841        0.179        0.011       57.588        5.279        0.008      335.531        6.227      863.776
10/30/2014  08:11:00      -48.695      -19.601       -5.863       11.300        8.568        5.367      127.701       73.416       28.800        0.151        0.011       52.492        3.769        0.005      335.536        6.235      863.780
10/30/2014  08:12:00       -9.661       -1.804        2.211       11.921        7.536       12.672      142.099       56.795      160.577        0.023        0.018        9.827       11.360        1.336      335.625        6.384      863.771
10/30/2014  08:13:00        3.098        6.806       18.680        7.627        9.085        6.371       58.171       82.536       40.588        0.029        0.009        7.478        5.486        0.538      335.665        6.451      863.765
10/30/2014  08:14:00      -11.285        7.233        2.363        9.522       10.879        7.776       90.662      118.354       60.466        0.023        0.013       13.404        4.673        0.122      335.621        6.377      863.773
10/30/2014  08:15:00      -28.788        9.851       -3.786       15.332       13.834        7.845      235.066      191.387       61.551        0.071        0.024       30.427        7.574        0.062      335.581        6.312      863.797
10/30/2014  08:16:00      -41.438       16.654       -6.862       11.635        5.368        9.042      135.370       28.816       81.763        0.114        0.012       44.659        6.448        0.021      335.591        6.329      863.819
10/30/2014  08:17:00      -10.945       12.992        4.941       13.838        8.350        9.057      191.482       69.720       82.033        0.033        0.017       16.988        7.951        0.219      335.619        6.374      863.818
10/30/2014  08:18:00       -2.604        7.866       10.084        5.246        9.115        6.658       27.523       83.088       44.329        0.016        0.008        8.285        3.505        0.179      335.745        6.583      863.830
10/30/2014  08:19:00      -15.134        1.927        2.735        8.458        5.157        7.080       71.532       26.591       50.124        0.019        0.007       15.256        6.325        0.172      335.759        6.609      863.839
10/30/2014  08:20:00       -0.835       -0.678        5.822       13.242        9.425        6.412      175.363       88.838       41.117        0.017        0.015        1.075        8.925       68.874      335.792        6.663      863.856
10/30/2014  08:21:00       26.960       31.911        1.800       10.840        8.380        9.612      117.501       70.217       92.391        0.101        0.014       41.775        4.756        0.013      335.699        6.507      863.859
10/30/2014  08:22:00       38.681       35.952        6.027       18.151       14.483       14.656      329.476      209.766      214.794        0.179        0.038       52.808        7.381        0.020      335.710        6.526      863.841
10/30/2014  08:23:00       33.437       43.313      -14.890       13.382       17.662       12.593      179.081      311.953      158.575        0.193        0.032       54.718        8.563        0.024      335.739        6.573      863.834
10/30/2014  08:24:00       39.048       35.794       -4.502       20.951       17.265       12.463      438.944      298.073      155.321        0.186        0.045       52.971        8.365        0.025      335.692        6.495      863.839
10/30/2014  08:25:00       36.917       20.022       -0.584       16.734       18.262       15.218      280.041      333.518      231.578        0.130        0.042       41.997        9.990        0.057      335.627        6.388      863.868
10/30/2014  08:26:00       29.422       26.358       -8.319       13.855       19.752        9.625      191.957      390.130       92.646        0.115        0.034       39.502        8.551        0.047      335.521        6.210      863.881
10/30/2014  08:27:00       30.521       32.277       -2.209       12.082       15.395       16.776      145.976      236.999      281.443        0.132        0.033       44.422       11.696        0.069      335.511        6.194      863.894
10/30/2014  08:28:00       15.488       47.565       -6.285       12.213       11.810       10.003      149.146      139.470      100.069        0.147        0.019       50.023        9.375        0.035      335.542        6.246      863.888
10/30/2014  08:29:00        9.778       37.356       -2.802        7.837       15.515       10.305       61.412      240.709      106.199        0.095        0.020       38.614       10.650        0.076      335.604        6.350      863.901
10/30/2014  08:30:00        1.239       46.732       -8.265        4.214        5.686        5.398       17.754       32.327       29.137        0.117        0.004       46.748        3.148        0.005      335.619        6.372      863.915
10/30/2014  08:31:00       -8.086       38.657       -2.345        9.774       10.363        5.809       95.539      107.389       33.743        0.090        0.012       39.493        2.327        0.003      335.656        6.434      863.914
10/30/2014  08:32:00      -26.084       22.520       -2.103       11.321       13.184        9.611      128.162      173.823       92.373        0.079        0.020       34.461        7.904        0.053      335.685        6.483      863.926
10/30/2014  08:33:00      -10.657       24.450       -1.323       15.320       11.402        5.415      234.693      130.013       29.326        0.055        0.020       26.672        3.176        0.014      335.766        6.620      863.932
10/30/2014  08:34:00        7.221       37.458       -3.739       15.542       12.827        6.817      241.566      164.529       46.477        0.096        0.023       38.148        6.012        0.025      335.725        6.552      863.941
10/30/2014  08:35:00       18.361       38.330       -7.293        7.630       14.722        6.086       58.219      216.742       37.036        0.109        0.016       42.500        5.143        0.015      335.728        6.555      863.921
10/30/2014  08:36:00       16.524       35.519      -12.305        9.670       15.363        8.437       93.501      236.013       71.190        0.104        0.020       39.175       10.105        0.067      335.757        6.605      863.904
10/30/2014  08:37:00       10.435       15.316       -5.286       11.669        6.265        9.011      136.157       39.248       81.205        0.031        0.013       18.533        5.909        0.102      335.785        6.652      863.922
10/30/2014  08:38:00       -8.097        3.740       -0.419        6.829        4.380        5.716       46.630       19.183       32.668        0.009        0.005        8.919        2.066        0.054      335.797        6.669      863.924
10/30/2014  08:39:00      -19.519       -3.157       -2.226       13.443        7.119        4.294      180.708       50.686       18.441        0.032        0.012       19.773        3.933        0.040      335.867        6.786      863.953
10/30/2014  08:40:00      -23.561      -19.358       -3.955       23.995       10.668        7.359      575.777      113.800       54.153        0.084        0.037       30.493        8.232        0.073      336.025        7.048      863.971
10/30/2014  08:41:00      -36.342        0.604        1.904       14.290       10.590        7.546      204.211      112.154       56.938        0.085        0.019       36.347        6.247        0.030      336.023        7.046      863.990
10/30/2014  08:42:00       -0.719        4.029       13.112       11.050        5.772        9.842      122.111       33.312       96.863        0.022        0.013        4.092        9.780        5.711      336.086        7.151      863.984
10/30/2014  08:43:00        7.799       39.738        0.282        7.090       20.431       10.326       50.273      417.424      106.625        0.111        0.029       40.496       12.625        0.097      335.923        6.879      863.991
10/30/2014  08:44:00       -7.798       10.700       -3.275        9.908       14.307        6.386       98.159      204.677       40.782        0.026        0.017       13.240        5.560        0.176      335.917        6.872      864.018
10/30/2014  08:45:00      -39.746        9.137       -2.795       10.467        7.646        5.977      109.556       58.464       35.726        0.094        0.010       40.783        4.072        0.010      335.986        6.983      864.056
10/30/2014  08:46:00      -49.980       10.832       -4.768       12.602       10.299        7.328      158.800      106.059       53.704        0.148        0.016       51.140        4.925        0.009      336.051        7.093      864.066
10/30/2014  08:47:00      -32.055       13.667        1.730       12.234        7.832        7.468      149.666       61.335       55.776        0.074        0.013       34.847        5.593        0.026      336.053        7.095      864.051
10/30/2014  08:48:00      -38.452       11.312        1.472       10.974        9.352        7.960      120.433       87.458       63.364        0.094        0.014       40.082        5.402        0.018      336.103        7.179      864.038
10/30/2014  08:49:00      -50.860        7.774       -2.869       11.620        6.218        6.235      135.014       38.665       38.880        0.143        0.011       51.451        2.564        0.002      336.166        7.284      864.041
10/30/2014  08:50:00      -16.725        4.376        4.626        8.318        5.869        7.208       69.189       34.442       51.951        0.024        0.008       17.288        4.928        0.081      336.190        7.325      864.049
10/30/2014  08:51:00      -15.777       16.031        2.054        7.466        7.907        6.226       55.747       62.521       38.768        0.033        0.008       22.493        4.243        0.036      336.173        7.297      864.068
10/30/2014  08:52:00      -17.189       12.144       -0.409       14.498       12.276        7.730      210.192      150.698       59.752        0.043        0.021       21.046        7.902        0.141      336.203        7.346      864.065
10/30/2014  08:53:00      -26.571       25.883       -0.917       16.366       16.811       10.635      267.835      282.615      113.110        0.102        0.033       37.093        8.711        0.055      336.234        7.397      864.053
10/30/2014  08:54:00       -3.220       51.439       -2.474       12.012       36.078       10.178      144.292     1301.632      103.595        0.211        0.077       51.540       15.139        0.086      336.183        7.312      864.030
10/30/2014  08:55:00        0.832       88.072      -12.696        4.845       11.815        4.916       23.472      139.583       24.166        0.405        0.009       88.076        2.600        0.001      336.133        7.229      863.994
10/30/2014  08:56:00        7.238       87.691      -14.149        8.060       14.215        9.008       64.969      202.065       81.135        0.415        0.017       87.990        6.707        0.006      336.068        7.121      863.973
10/30/2014  08:57:00        2.830       62.528      -10.796        5.749       10.504        6.167       33.054      110.332       38.029        0.211        0.009       62.592        4.321        0.005      336.089        7.156      863.966
10/30/2014  08:58:00       -7.637       33.569        5.013       13.581       19.886       12.596      184.432      395.450      158.659        0.097        0.037       34.427       10.858        0.099      336.158        7.272      863.993
10/30/2014  08:59:00       -4.382       26.375       -3.201        6.800       10.499        6.990       46.240      110.224       48.855        0.047        0.010       26.737        5.070        0.036      336.138        7.237      864.018
10/30/2014  09:00:00        3.705        6.368       -0.677        9.868        5.716        5.675       97.374       32.668       32.201        0.011        0.008        7.367        2.092        0.081      336.194        7.332      864.019
10/30/2014  09:01:00       -7.126       -2.020       -1.072        4.603        4.624        4.666       21.192       21.384       21.772        0.006        0.003        7.407        2.419        0.107      336.305        7.517      864.010
10/30/2014  09:02:00       -2.942       -0.712        2.083        5.231        4.360        8.556       27.362       19.010       73.198        0.007        0.006        3.027        4.030        1.773      336.508        7.856      864.019
10/30/2014  09:03:00      -28.848       -8.876        3.304       13.674        9.149        8.178      186.989       83.712       66.885        0.063        0.017       30.182        7.637        0.064      336.444        7.749      864.026
10/30/2014  09:04:00      -11.143       -5.434        1.710        9.175       12.571        7.922       84.181      158.037       62.757        0.023        0.015       12.398        6.490        0.274      336.491        7.829      864.022
10/30/2014  09:05:00      -15.462        1.795        0.833       15.988        9.713        7.191      255.622       94.334       51.712        0.032        0.020       15.566        6.577        0.179      336.511        7.863      864.011
10/30/2014  09:06:00      -34.769       11.535        4.659       10.780        8.175        7.243      116.218       66.836       52.462        0.080        0.012       36.633        5.392        0.022      336.473        7.799      864.008
10/30/2014  09:07:00      -23.261       11.918        3.662        6.635        7.476        5.003       44.028       55.893       25.033        0.041        0.006       26.136        3.354        0.016      336.531        7.896      864.028
10/30/2014  09:08:00      -27.211       -1.203        0.310        8.268       11.344        5.753       68.354      128.694       33.096        0.049        0.012       27.237        4.724        0.030      336.548        7.925      864.025
10/30/2014  09:09:00      -29.672       13.063       -6.136       16.345       14.864        8.489      267.145      220.940       72.068        0.082        0.028       32.420        8.019        0.061      336.508        7.857      864.019
10/30/2014  09:10:00      -67.975        7.424       -7.434       15.660       16.601        9.329      245.250      275.601       87.039        0.267        0.030       68.380        9.882        0.021      336.516        7.870      864.019
10/30/2014  09:11:00      -67.399      -14.759       -7.324       15.248       11.496        8.936      232.499      132.164       79.855        0.263        0.022       68.996        6.189        0.008      336.609        8.028      864.008
10/30/2014  09:12:00      -66.298      -34.148       -3.046       18.782       22.635       10.366      352.754      512.338      107.462        0.327        0.049       74.576        6.800        0.008      336.592        7.997      863.997
10/30/2014  09:13:00      -63.757      -36.621       -6.279       22.751       28.874       15.757      517.604      833.684      248.275        0.352        0.080       73.526       11.680        0.025      336.652        8.098      863.992
10/30/2014  09:14:00      -52.915      -13.578       -3.428       23.275       17.471       12.711      541.730      305.236      161.560        0.200        0.050       54.629       10.072        0.034      336.570        7.960      863.980
10/30/2014  09:15:00      -58.444        0.304       -4.472       31.145       22.160       18.852      970.026      491.045      355.398        0.263        0.091       58.444       18.834        0.104      336.495        7.835      863.981
10/30/2014  09:16:00      -80.655        8.414      -11.919       14.651       17.429       13.635      214.654      303.770      185.918        0.371        0.035       81.092        3.223        0.002      336.446        7.754      863.989
10/30/2014  09:17:00      -58.893       -5.302       -9.109       10.769       13.789        8.425      115.980      190.149       70.973        0.198        0.019       59.132        7.271        0.015      336.493        7.833      863.986
10/30/2014  09:18:00      -54.752       -4.196       -8.067       11.816       11.646        8.028      139.629      135.633       64.443        0.171        0.017       54.912        6.946        0.016      336.537        7.906      863.987
10/30/2014  09:19:00      -30.349       -7.963        0.886       16.188       13.618        9.045      262.052      185.439       81.809        0.076        0.026       31.376        4.935        0.025      336.616        8.039      863.954
10/30/2014  09:20:00        9.613       22.404        5.578        9.741       16.295       11.332       94.894      265.539      128.418        0.056        0.024       24.379        6.373        0.068      336.614        8.037      863.929
10/30/2014  09:21:00       23.689       24.951       -2.068       11.118        9.923        9.305      123.610       98.465       86.587        0.075        0.015       34.405        5.504        0.026      336.604        8.019      863.907
10/30/2014  09:22:00       26.606       25.068       -1.591       10.968       12.784       10.714      120.300      163.429      114.790        0.087        0.020       36.556        8.735        0.057      336.636        8.073      863.874
10/30/2014  09:23:00       13.632       27.168        1.051       17.871       16.787       12.387      319.384      281.807      153.428        0.084        0.038       30.396       10.360        0.116      336.676        8.140      863.867
10/30/2014  09:24:00        7.502       42.264       -5.330        8.519       12.053        4.597       72.572      145.263       21.130        0.105        0.012       42.925        2.464        0.003      336.676        8.135      863.872
10/30/2014  09:25:00        8.496       23.514       -7.189        7.540       11.429        4.066       56.847      130.616       16.534        0.044        0.010       25.002        2.468        0.010      336.686        8.153      863.875
10/30/2014  09:26:00        4.597       10.143        6.577        6.790        8.525        8.718       46.106       72.677       76.009        0.018        0.010       11.136        6.836        0.377      336.802        8.348      863.895
10/30/2014  09:27:00       22.396       30.277       14.448       19.860       14.726       17.563      394.439      216.857      308.464        0.127        0.046       37.660       15.833        0.177      336.778        8.311      863.893
10/30/2014  09:28:00       25.620       31.658       17.865       17.166       15.760       22.039      294.662      248.393      485.713        0.150        0.051       40.726       14.231        0.122      336.783        8.318      863.889
10/30/2014  09:29:00       20.146       28.744       32.173       32.535       24.686       29.118     1058.546      609.388      847.840        0.239        0.126       35.101       18.399        0.275      336.777        8.307      863.892
10/30/2014  09:30:00       22.260       25.205       21.508       23.460       13.367       18.338      550.365      178.685      336.296        0.133        0.053       33.628       14.179        0.178      336.786        8.323      863.882
10/30/2014  09:31:00       33.080       33.872       25.549       26.264       21.532       17.371      689.773      463.630      301.768        0.217        0.073       47.346       15.260        0.104      336.771        8.296      863.869
10/30/2014  09:32:00       63.472       54.605        6.861        6.563        6.695        6.473       43.078       44.820       41.902        0.359        0.006       83.728        4.437        0.003      336.676        8.137      863.864
10/30/2014  09:33:00       49.192       42.585       -4.670       10.663       11.803        8.204      113.701      139.314       67.300        0.229        0.016       65.064        3.313        0.003      336.685        8.152      863.846
10/30/2014  09:34:00       36.169       19.292       -5.974        9.604        9.541        8.923       92.236       91.039       79.617        0.099        0.013       40.993        5.661        0.019      336.714        8.205      863.843
10/30/2014  09:35:00       43.127       22.308       -0.694       11.950       14.636       15.126      142.809      214.223      228.801        0.147        0.029       48.555        6.824        0.020      336.752        8.265      863.831
10/30/2014  09:36:00       52.993       31.182        0.303       17.811       13.595       13.853      317.229      184.813      191.907        0.224        0.035       61.486        8.189        0.018      336.701        8.180      863.809
10/30/2014  09:37:00       64.243       40.181        2.850       10.247        9.746        9.706      104.992       94.984       94.210        0.302        0.015       75.774        4.924        0.004      336.674        8.135      863.813
10/30/2014  09:38:00       63.526       38.870        7.198        7.302        7.032       10.107       53.313       49.453      102.155        0.290        0.010       74.474        2.105        0.001      336.686        8.153      863.809
10/30/2014  09:39:00       59.275       33.775       18.420       16.454       16.527       17.382      270.749      273.130      302.120        0.292        0.042       68.223        9.813        0.021      336.748        8.257      863.796
10/30/2014  09:40:00       49.826       40.263       -0.949       20.735       16.140       21.287      429.948      260.503      453.135        0.262        0.057       64.060        7.344        0.013      336.781        8.315      863.797
10/30/2014  09:41:00       55.124       40.932       10.790       20.708       16.209       18.291      428.827      262.744      334.560        0.293        0.051       68.660       12.019        0.031      336.764        8.287      863.797
10/30/2014  09:42:00       43.607       32.784       14.771       16.500       15.350       16.822      272.257      235.625      282.971        0.199        0.040       54.556       10.206        0.035      336.810        8.361      863.808
10/30/2014  09:43:00       31.561       27.840        4.608       21.251       21.334       15.500      451.601      455.154      240.248        0.147        0.057       42.085       12.738        0.092      336.777        8.306      863.815
10/30/2014  09:44:00       13.104       27.229       10.115       18.817       14.863       14.970      354.074      220.894      224.105        0.091        0.040       30.218        8.978        0.088      336.827        8.391      863.801
10/30/2014  09:45:00       17.514       16.717        3.330       17.303       16.537       13.086      299.411      273.475      171.247        0.067        0.037       24.211        5.241        0.047      336.813        8.366      863.794
10/30/2014  09:46:00       22.049       23.135        2.516       14.130       19.766       16.876      199.648      390.697      284.785        0.095        0.044       31.959       13.382        0.175      336.790        8.329      863.796
10/30/2014  09:47:00       23.097       24.678       -9.066       11.584       10.538        8.864      134.199      111.045       78.577        0.077        0.016       33.801        5.921        0.031      336.762        8.283      863.795
10/30/2014  09:48:00       14.671       18.853        6.046       11.774       17.542       10.772      138.633      307.727      116.045        0.058        0.028       23.889        5.784        0.059      336.837        8.407      863.787
10/30/2014  09:49:00       -0.180       14.894        8.425        7.419        9.396        9.680       55.045       88.294       93.710        0.026        0.012       14.895        6.932        0.217      336.962        8.617      863.808
10/30/2014  09:50:00       -5.906        2.609        7.754        8.322        5.015        5.010       69.259       25.150       25.104        0.011        0.006        6.456        4.002        0.384      337.080        8.814      863.809
10/30/2014  09:51:00      -14.548       -3.628        1.720        8.813       16.074        9.767       77.666      258.381       95.399        0.033        0.022       14.993        8.827        0.347      337.036        8.739      863.789
10/30/2014  09:52:00        2.225        9.399       19.839       11.646        8.819        9.827      135.626       77.771       96.576        0.040        0.015        9.659        7.585        0.617      337.126        8.890      863.769
10/30/2014  09:53:00        1.662       37.619       -3.229       14.772       17.038       15.039      218.205      290.300      226.180        0.108        0.037       37.656        9.933        0.070      337.028        8.724      863.751
10/30/2014  09:54:00        2.446       36.924      -11.276       17.138       14.298        9.031      293.718      204.437       81.562        0.104        0.029       37.005        8.244        0.050      336.947        8.588      863.748
10/30/2014  09:55:00       -5.907       28.832       -6.921       19.456       11.987       11.218      378.527      143.696      125.837        0.078        0.032       29.431        8.533        0.084      336.971        8.630      863.751
10/30/2014  09:56:00       20.410       25.201        0.202       24.995       16.020       10.365      624.745      256.629      107.435        0.102        0.049       32.430        5.538        0.029      337.007        8.688      863.742
10/30/2014  09:57:00       52.159       37.554        7.011       13.295       13.541       13.326      176.769      183.365      177.571        0.236        0.027       64.272        8.864        0.019      336.943        8.583      863.737
10/30/2014  09:58:00       42.486       36.582       -4.304       23.488       21.442        8.789      551.701      459.775       77.239        0.213        0.054       56.065       10.357        0.034      336.931        8.565      863.740
10/30/2014  09:59:00        9.126        8.514       -1.856       15.085       14.952       12.308      227.564      223.570      151.493        0.038        0.030       12.480       11.569        0.859      337.042        8.747      863.749
10/30/2014  10:00:00       13.240       15.070       -4.020       10.874        9.219        9.620      118.246       84.983       92.553        0.036        0.015       20.060        5.124        0.065      337.028        8.723      863.779
10/30/2014  10:01:00       13.922       10.366       -1.232       10.154       10.372        8.810      103.109      107.576       77.615        0.030        0.014       17.358        7.210        0.173      337.026        8.721      863.795
10/30/2014  10:02:00       11.299        2.227       -2.769        8.251       10.836        7.111       68.075      117.414       50.568        0.019        0.012       11.517        4.906        0.181      337.088        8.825      863.806
10/30/2014  10:03:00        5.943       16.388       -0.964        8.770        9.769       10.064       76.918       95.428      101.277        0.029        0.014       17.432        6.188        0.126      337.123        8.884      863.818
10/30/2014  10:04:00       11.957       14.616       -2.520        8.130        6.761        7.084       66.099       45.717       50.176        0.026        0.008       18.884        4.399        0.054      337.070        8.793      863.817
10/30/2014  10:05:00       10.648       18.352       -9.465        7.484        6.787        6.273       56.006       46.065       39.355        0.034        0.007       21.217        3.630        0.029      337.097        8.839      863.813
10/30/2014  10:06:00       23.187       36.444        4.206       20.447       14.958       17.038      418.078      223.739      290.278        0.141        0.047       43.195       11.344        0.069      337.190        8.997      863.796
10/30/2014  10:07:00       23.870       38.313       43.287       20.960       21.384       10.991      439.307      457.282      120.810        0.246        0.051       45.140        6.784        0.023      337.260        9.115      863.771
10/30/2014  10:08:00       19.473       37.750       33.743       23.094       20.448       18.280      533.353      418.121      334.171        0.211        0.064       42.477        7.484        0.031      337.302        9.185      863.749
10/30/2014  10:09:00       27.372       25.795        6.929       18.852       12.383       18.803      355.396      153.346      353.559        0.116        0.043       37.611       13.063        0.121      337.231        9.066      863.722
10/30/2014  10:10:00       17.953       -1.007        6.168        7.361       11.140       10.831       54.179      124.109      117.303        0.033        0.015       17.982        8.411        0.219      337.229        9.063      863.710
10/30/2014  10:11:00        1.294        6.058       11.347        7.476        9.809        4.774       55.896       96.218       22.794        0.017        0.009        6.195        3.726        0.362      337.386        9.327      863.730
10/30/2014  10:12:00      -32.607       -3.213       -3.305       21.572       18.256       10.012      465.352      333.298      100.249        0.099        0.045       32.765       11.115        0.115      337.308        9.195      863.744
10/30/2014  10:13:00      -29.601       -9.236       -0.081       14.669       12.522       10.635      215.169      156.796      113.111        0.072        0.024       31.008        8.403        0.073      337.393        9.336      863.753
10/30/2014  10:14:00      -29.153       -1.864       -0.335       10.471        9.559        7.553      109.645       91.380       57.044        0.056        0.013       29.213        6.908        0.056      337.387        9.326      863.740
10/30/2014  10:15:00      -16.030       11.483       -1.575        8.341       10.383        5.296       69.567      107.814       28.045        0.030        0.010       19.719        1.471        0.006      337.342        9.252      863.720
10/30/2014  10:16:00      -32.293        6.216        4.409       16.342       10.653       10.451      267.072      113.497      109.217        0.080        0.024       32.886        6.129        0.035      337.380        9.313      863.723
10/30/2014  10:17:00       -3.750        4.172        7.112       10.278        8.786       11.243      105.644       77.199      126.412        0.020        0.015        5.610        7.413        1.746      337.635        9.742      863.712
10/30/2014  10:18:00       -5.846        3.102        8.753       13.344       12.669       11.785      178.058      160.492      138.882        0.030        0.024        6.618        4.467        0.456      337.656        9.776      863.698
10/30/2014  10:19:00      -68.277       -1.890        1.241       27.984       28.596       15.606      783.094      817.733      243.533        0.326        0.092       68.303       11.653        0.029      337.529        9.565      863.678
10/30/2014  10:20:00      -75.473      -45.406        1.886       35.934       26.640       16.045     1291.260      709.698      257.448        0.501        0.113       88.079        8.542        0.009      337.495        9.507      863.654
10/30/2014  10:21:00      -45.182      -35.132        3.203       21.077       16.135       14.210      444.260      260.341      201.922        0.210        0.045       57.233       12.518        0.048      337.536        9.577      863.645
10/30/2014  10:22:00      -45.002      -46.561        3.947       17.345       16.161       14.874      300.860      261.179      221.237        0.250        0.039       64.754       11.446        0.031      337.549        9.597      863.632
10/30/2014  10:23:00      -45.444      -27.284       -6.417       14.422       11.398        8.044      207.982      129.904       64.708        0.163        0.020       53.005        3.514        0.004      337.524        9.555      863.610
10/30/2014  10:24:00      -47.679      -28.918       -8.972       14.329       17.194       13.563      205.333      295.628      183.954        0.194        0.034       55.763       10.719        0.037      337.543        9.589      863.590
10/30/2014  10:25:00       -8.729      -40.557      -10.755        9.524       18.622       11.683       90.707      346.792      136.500        0.121        0.029       41.486       10.543        0.065      337.565        9.625      863.552
10/30/2014  10:26:00      -34.663      -29.546       -6.877       17.783       11.088        8.290      316.219      122.939       68.731        0.131        0.025       45.546        3.877        0.007      337.590        9.668      863.525
10/30/2014  10:27:00      -53.808      -14.685      -13.570       12.274       19.454       11.399      150.645      378.457      129.936        0.198        0.033       55.776       10.142        0.033      337.622        9.719      863.515
10/30/2014  10:28:00      -23.867        8.492       11.493       20.963       12.678       15.841      439.429      160.728      250.939        0.081        0.043       25.333       15.660        0.382      337.801       10.019      863.511
10/30/2014  10:29:00       22.633       33.780       11.551       27.886       25.208       23.888      777.627      635.439      570.617        0.188        0.099       40.661       19.552        0.231      337.688        9.830      863.514
10/30/2014  10:30:00       36.789       35.076       -1.344       24.994       20.738       16.480      624.714      430.081      271.595        0.196        0.066       50.831       15.193        0.089      337.621        9.719      863.510
10/30/2014  10:31:00       40.276       46.507       -0.305       22.438       19.142       24.448      503.481      366.418      597.696        0.263        0.073       61.522       16.065        0.068      337.563        9.621      863.531
10/30/2014  10:32:00       43.043       44.608       -0.235       18.481       16.526       16.098      341.559      273.117      259.130        0.236        0.044       61.988       11.211        0.033      337.514        9.537      863.533
10/30/2014  10:33:00       16.490       36.661        0.139       22.155       18.921       14.397      490.855      357.995      207.278        0.134        0.053       40.199        9.262        0.053      337.592        9.671      863.529
10/30/2014  10:34:00       24.934       49.609       -6.662       11.336       16.053       11.422      128.502      257.710      130.462        0.182        0.026       55.522       10.292        0.034      337.588        9.663      863.530
10/30/2014  10:35:00       29.775       18.135       16.486       20.251       21.833       20.034      410.118      476.677      401.342        0.139        0.064       34.863       17.649        0.256      337.718        9.882      863.522
10/30/2014  10:36:00       64.504       47.943       12.384       20.650       17.216       20.824      426.433      296.400      433.635        0.388        0.058       80.370        9.066        0.013      337.641        9.753      863.535
10/30/2014  10:37:00       41.029       44.850       42.642       26.227       22.566       13.463      687.839      509.217      181.258        0.345        0.069       60.786        8.271        0.019      337.770        9.967      863.552
10/30/2014  10:38:00       30.944       27.273       29.914       20.334       19.259       20.582      413.462      370.913      423.635        0.190        0.060       41.248       13.467        0.107      337.828       10.066      863.549
10/30/2014  10:39:00       16.089       25.060       33.314       16.918       17.152       13.477      286.227      294.207      181.627        0.138        0.038       29.780        7.923        0.071      337.960       10.288      863.561
10/30/2014  10:40:00        1.617       34.820       52.893       24.151       30.720       15.755      583.278      943.738      248.220        0.289        0.089       34.858       13.984        0.161      338.010       10.369      863.560
10/30/2014  10:41:00        3.375       26.938       32.749       20.844       17.855       12.491      434.472      318.811      156.021        0.136        0.045       27.149        6.636        0.060      337.987       10.331      863.551
10/30/2014  10:42:00       17.451       19.832       29.585       27.048       22.785       20.857      731.584      519.168      435.009        0.163        0.084       26.417       16.083        0.371      338.022       10.392      863.522
10/30/2014  10:43:00       38.017       34.599       49.207       30.062       20.602       20.180      903.720      424.448      407.248        0.340        0.087       51.404       10.568        0.042      337.842       10.090      863.486
10/30/2014  10:44:00       51.307       50.349       48.798       34.805       29.864       28.168     1211.363      891.859      793.439        0.522        0.145       71.885       23.524        0.107      337.817       10.048      863.472
10/30/2014  10:45:00       68.613       70.659       46.951       22.130       14.130       21.466      489.742      199.648      460.797        0.653        0.058       98.490       15.978        0.026      337.715        9.875      863.445
10/30/2014  10:46:00       45.817       47.140       21.655       27.688       20.504       22.132      766.611      420.400      489.822        0.323        0.084       65.737       13.311        0.041      337.801       10.020      863.426
10/30/2014  10:47:00       48.856       33.876       40.421       45.392       29.695       24.648     2060.424      881.783      607.521        0.436        0.177       59.451       21.378        0.129      337.932       10.239      863.404
10/30/2014  10:48:00       63.992       42.530       39.115       38.713       39.985       33.333     1498.728     1598.767     1111.095        0.582        0.210       76.836       32.776        0.182      337.887       10.164      863.391
10/30/2014  10:49:00       77.234       54.028       35.069       27.780       24.894       32.705      771.714      619.687     1069.638        0.629        0.123       94.256       25.424        0.073      337.836       10.079      863.408
10/30/2014  10:50:00       26.512      -24.268       28.334       37.918       30.906       28.612     1437.801      955.172      818.666        0.265        0.161       35.942       25.434        0.501      338.073       10.479      863.407
10/30/2014  10:51:00       38.695      -27.378       10.926       25.391       22.741       20.010      644.696      517.168      400.405        0.196        0.078       47.401       14.375        0.092      338.064       10.463      863.406
10/30/2014  10:52:00        3.041        0.948       30.122       13.211       24.719       15.550      174.532      611.017      241.817        0.097        0.051        3.186       16.292       26.157      338.260       10.789      863.405
10/30/2014  10:53:00       11.113       44.222       62.975       29.319       22.899       18.314      859.611      524.342      335.401        0.388        0.086       45.597       15.009        0.108      338.141       10.592      863.386
10/30/2014  10:54:00       28.506       38.686       40.663       34.340       26.750       25.453     1179.205      715.546      647.880        0.325        0.127       48.054       15.881        0.109      338.132       10.576      863.374
10/30/2014  10:55:00       52.339       38.226       35.356       26.847       28.668       20.644      720.787      821.877      426.188        0.371        0.098       64.812       15.710        0.059      338.163       10.629      863.341
10/30/2014  10:56:00       10.535       24.129       35.228       23.642       25.032       20.336      558.948      626.604      413.537        0.177        0.080       26.329       14.445        0.301      338.303       10.863      863.323
10/30/2014  10:57:00       40.517       26.325       13.054       26.540       24.531       31.287      704.353      601.759      978.885        0.239        0.114       48.318       13.592        0.079      338.182       10.660      863.322
10/30/2014  10:58:00       39.307       23.380       29.960       30.974       29.169       26.561      959.387      850.814      705.470        0.275        0.126       45.735       21.087        0.213      338.145       10.598      863.343
10/30/2014  10:59:00       26.396       -2.038        6.528       20.521       15.911       11.020      421.096      253.156      121.436        0.077        0.040       26.475        9.459        0.128      338.090       10.505      863.360
10/30/2014  11:00:00       24.555       27.904        1.300       25.009       21.256       17.458      625.466      451.812      304.784        0.138        0.069       37.170       14.291        0.148      338.040       10.422      863.352
10/30/2014  11:01:00       12.983       42.637        0.720       18.400       19.722       13.215      338.558      388.946      174.649        0.144        0.045       44.570        9.510        0.046      338.087       10.499      863.346
10/30/2014  11:02:00        9.427       18.808       -3.106       10.935       12.407       11.747      119.565      153.929      137.998        0.043        0.021       21.038        7.764        0.136      338.125       10.564      863.354
10/30/2014  11:03:00       27.456       37.841       -4.230       20.824       18.833       16.593      433.630      354.698      275.338        0.163        0.053       46.752       10.985        0.055      338.109       10.538      863.355
10/30/2014  11:04:00       15.481       32.713       38.556       32.505       19.064       17.909     1056.564      363.424      320.731        0.227        0.087       36.191       17.530        0.235      338.274       10.814      863.370
10/30/2014  11:05:00       42.954       60.414       14.718       26.677       24.013       23.846      711.647      576.606      568.647        0.378        0.093       74.127       18.497        0.062      338.078       10.484      863.366
10/30/2014  11:06:00       30.945       77.523       -7.782       26.599       21.029       20.529      707.508      442.202      421.455        0.430        0.079       83.471       14.132        0.029      338.062       10.459      863.331
10/30/2014  11:07:00       40.241       81.063       -4.068       24.701       33.934       23.537      610.132     1151.547      554.002        0.526        0.116       90.502       21.545        0.057      338.088       10.502      863.318
10/30/2014  11:08:00       38.484       46.691        6.987       22.644       19.694       14.340      512.771      387.845      205.646        0.241        0.055       60.507       11.697        0.037      338.116       10.548      863.298
10/30/2014  11:09:00       58.267       63.178       10.164       22.813       23.073       26.886      520.431      532.348      722.854        0.463        0.089       85.945       12.222        0.020      338.164       10.632      863.287
10/30/2014  11:10:00       42.488       27.738        5.022       28.008       26.861       22.556      784.465      721.502      508.764        0.231        0.101       50.741       13.898        0.075      338.136       10.582      863.274
10/30/2014  11:11:00       48.649       42.616        1.931       28.762       30.230       20.775      827.275      913.879      431.612        0.318        0.109       64.675       17.323        0.072      338.221       10.723      863.278
10/30/2014  11:12:00       61.092       56.186       11.694       32.212       20.849       16.656     1037.605      434.664      277.407        0.439        0.087       83.001        7.682        0.009      338.197       10.684      863.268
10/30/2014  11:13:00       56.766       54.828       15.947       23.380       24.339       22.915      546.635      592.386      525.108        0.407        0.083       78.921       12.911        0.027      338.256       10.784      863.247
10/30/2014  11:14:00       12.923       35.969       53.358       29.934       36.902       18.394      896.023     1361.780      338.351        0.345        0.130       38.220       16.551        0.188      338.528       11.241      863.233
10/30/2014  11:15:00       52.742       62.060       35.333       25.832       19.588       24.842      667.302      383.691      617.117        0.477        0.083       81.444       12.494        0.024      338.350       10.941      863.211
10/30/2014  11:16:00       50.770       52.089       14.609       24.863       36.615       33.707      618.168     1340.667     1136.130        0.430        0.155       72.738       16.512        0.052      338.342       10.929      863.206
10/30/2014  11:17:00       68.166       45.136       -2.873       24.752       24.704       17.032      612.683      610.282      290.079        0.410        0.076       81.755        7.215        0.008      338.251       10.775      863.199
10/30/2014  11:18:00       67.602       49.947        6.507       22.639       15.542       13.427      512.528      241.542      180.291        0.402        0.047       84.052        2.311        0.001      338.289       10.838      863.213
10/30/2014  11:19:00        9.434       18.807       17.379       20.432       30.288       23.683      417.455      917.333      560.883        0.132        0.095       21.041       22.982        1.193      338.429       11.074      863.229
10/30/2014  11:20:00       14.311       31.687       23.283       22.861       21.009       25.164      522.647      441.373      633.239        0.167        0.080       34.769       19.013        0.299      338.555       11.286      863.233
10/30/2014  11:21:00       50.333       50.016       32.515       24.933       27.319       31.612      621.638      746.309      999.290        0.423        0.118       70.958       21.376        0.091      338.440       11.092      863.220
10/30/2014  11:22:00       16.599       60.800        3.678       17.056       33.796       21.457      290.907     1142.142      460.418        0.294        0.095       63.025       19.929        0.100      338.399       11.024      863.190
10/30/2014  11:23:00       53.628       54.742       10.547       24.957       22.801       22.108      622.849      519.874      488.770        0.381        0.082       76.633       19.995        0.068      338.353       10.947      863.179
10/30/2014  11:24:00       34.419       35.399       21.061       35.809       33.199       21.477     1282.259     1102.187      461.270        0.286        0.142       49.374       10.082        0.042      338.565       11.302      863.186
10/30/2014  11:25:00       -9.309      -17.751       33.229       24.713       34.629       21.411      610.721     1199.190      458.430        0.189        0.113       20.044       15.770        0.619      338.771       11.648      863.195
10/30/2014  11:26:00       27.081       26.248       32.712       35.891       18.313       24.572     1288.147      335.372      603.773        0.236        0.111       37.714       20.887        0.307      338.703       11.534      863.194
10/30/2014  11:27:00       32.244       14.103        1.476       14.785       20.801       21.151      218.586      432.701      447.344        0.117        0.055       35.193       10.984        0.097      338.484       11.166      863.185
10/30/2014  11:28:00       12.754       16.904        4.486       13.550       20.688       13.595      183.614      428.001      184.824        0.063        0.040       21.175       12.360        0.341      338.696       11.523      863.189
10/30/2014  11:29:00       48.517       37.490       10.182       37.598       20.071       22.953     1413.600      402.837      526.851        0.310        0.117       61.314        8.399        0.019      338.621       11.397      863.171
10/30/2014  11:30:00       80.965       53.466       32.989       31.290       26.227       26.983      979.073      687.865      728.105        0.645        0.120       97.025       19.017        0.038      338.633       11.417      863.159
10/30/2014  11:31:00       96.571       58.689       22.106       25.778       27.758       25.345      664.508      770.519      642.384        0.767        0.104      113.005       14.652        0.017      338.535       11.252      863.140
10/30/2014  11:32:00      108.952       72.810       25.562       23.969       22.157       26.926      574.490      490.935      725.019        0.981        0.090      131.042       13.725        0.011      338.561       11.296      863.121
10/30/2014  11:33:00       66.544       64.536       36.497       25.519       14.965       25.822      651.225      223.963      666.795        0.573        0.077       92.698       16.764        0.033      338.598       11.358      863.103
10/30/2014  11:34:00       64.921       47.258       26.570       20.034       15.336       22.866      401.374      235.198      522.866        0.416        0.058       80.300       12.924        0.026      338.585       11.337      863.086
10/30/2014  11:35:00       47.970       31.553       17.328       21.862       17.913       15.802      477.952      320.864      249.710        0.232        0.052       57.417        6.882        0.014      338.653       11.451      863.098
10/30/2014  11:36:00       40.360       12.006        9.853       26.979       13.913       21.005      727.858      193.562      441.229        0.162        0.068       42.108       18.555        0.194      338.707       11.541      863.085
10/30/2014  11:37:00       59.994       34.692       11.682       27.640       22.826       20.882      763.954      521.041      436.046        0.333        0.086       69.302        9.958        0.021      338.678       11.494      863.068
10/30/2014  11:38:00       93.388       53.547       19.495       32.454       30.398       27.847     1053.290      924.048      775.456        0.736        0.138      107.650       20.693        0.037      338.615       11.386      863.031
10/30/2014  11:39:00       24.475       -4.975       14.937       23.732       31.740       36.258      563.186     1007.449     1314.675        0.187        0.144       24.975       32.270        1.669      338.761       11.631      863.003
10/30/2014  11:40:00       34.732       35.224       58.448       25.454       33.201       17.162      647.905     1102.277      294.523        0.395        0.102       49.467       18.726        0.143      338.817       11.726      862.998
10/30/2014  11:41:00       73.302       49.711       22.388       14.799       12.092       21.655      219.011      146.214      468.958        0.459        0.042       88.568       10.436        0.014      338.631       11.414      862.985
10/30/2014  11:42:00       57.453       48.334       15.506       17.395       14.727       21.971      302.570      216.885      482.718        0.344        0.050       75.080       14.025        0.035      338.680       11.497      862.977
10/30/2014  11:43:00       40.686       59.731       24.538       23.014       26.828       22.156      529.635      719.762      490.877        0.378        0.087       72.271       18.817        0.068      338.782       11.668      862.962
10/30/2014  11:44:00       17.503       33.814       28.395       15.557       16.374       14.936      242.028      268.096      223.088        0.149        0.037       38.075        7.575        0.040      338.977       11.995      862.937
10/30/2014  11:45:00       14.500       56.967       -9.489       13.379       16.057       15.507      178.996      257.827      240.456        0.211        0.034       58.783       11.778        0.040      338.794       11.688      862.935
10/30/2014  11:46:00        3.221       15.343        2.649       13.857       29.713       18.616      192.018      882.842      346.540        0.084        0.071       15.677       21.437        1.870      339.093       12.190      862.923
10/30/2014  11:47:00       48.702       20.005       10.297       37.421       23.413       19.246     1400.348      548.191      370.404        0.260        0.116       52.651        7.499        0.020      339.043       12.107      862.909
10/30/2014  11:48:00       40.831       26.837        4.694       31.809       36.643       25.446     1011.833     1342.714      647.506        0.271        0.150       48.861        6.606        0.018      339.071       12.153      862.908
10/30/2014  11:49:00       76.868       36.363       11.001       25.579       22.042       22.644      654.308      485.864      512.751        0.450        0.083       85.035       12.061        0.020      338.846       11.775      862.892
10/30/2014  11:50:00       10.998       15.698       32.251       19.108       22.380       21.725      365.117      500.867      471.959        0.137        0.067       19.167       10.677        0.310      339.289       12.520      862.886
10/30/2014  11:51:00       38.173      -37.396       20.137       51.520       69.379       46.847     2654.338     4813.405     2194.646        0.646        0.483       53.438       52.501        0.965      339.212       12.391      862.891
10/30/2014  11:52:00       68.091      -75.677       -8.990       33.679       51.719       28.350     1134.296     2674.883      803.701        0.753        0.231      101.801       19.788        0.038      339.079       12.167      862.871
10/30/2014  11:53:00       14.085       43.739       51.224       38.663       34.961       30.729     1494.811     1222.249      944.269        0.420        0.183       45.951       18.674        0.165      339.308       12.551      862.848
10/30/2014  11:54:00       38.105       41.959       61.370       42.487       33.478       23.383     1805.146     1120.780      546.746        0.523        0.174       56.679       11.756        0.043      339.170       12.320      862.828
10/30/2014  11:55:00       13.010       25.390       30.851       30.738       32.079       27.657      944.817     1029.031      764.896        0.225        0.137       28.529       18.944        0.441      339.283       12.511      862.803
10/30/2014  11:56:00       22.490      -47.159        6.754       18.728       45.609       24.115      350.727     2080.185      581.541        0.289        0.151       52.248       25.137        0.231      339.332       12.593      862.789
10/30/2014  11:57:00        9.829      -14.425       11.352       19.959       39.664       26.045      398.347     1573.262      678.364        0.154        0.132       17.455       12.506        0.513      339.466       12.818      862.799
10/30/2014  11:58:00      -17.688       20.189       -1.753       35.224       28.469       20.224     1240.762      810.507      408.997        0.159        0.123       26.842       10.050        0.140      339.270       12.488      862.803
10/30/2014  11:59:00      -23.300      -29.677       13.777       19.705       23.532       19.694      388.274      553.732      387.847        0.147        0.066       37.731       12.750        0.114      339.506       12.887      862.803
10/30/2014  12:00:00       -6.404      -23.728       24.223       22.667       22.453       24.734      513.799      504.124      611.753        0.141        0.081       24.577        8.428        0.118      339.544       12.950      862.786
10/30/2014  12:01:00       22.648       19.377       38.534       30.954       22.990       20.769      958.169      528.545      431.353        0.215        0.096       29.806       15.646        0.276      339.363       12.645      862.777
10/30/2014  12:02:00       48.538       -5.989       19.142       23.856       26.089       24.108      569.104      680.625      581.215        0.229        0.092       48.906       19.482        0.159      339.180       12.336      862.779
10/30/2014  12:03:00      -14.746       -7.075       18.806       14.993       44.610       41.773      224.800     1990.055     1745.003        0.229        0.198       16.355       38.492        5.539      339.386       12.684      862.773
10/30/2014  12:04:00       45.365       50.274       20.265       33.582       28.431       46.787     1127.732      808.315     2189.023        0.456        0.206       67.716       26.330        0.151      339.212       12.391      862.762
10/30/2014  12:05:00       25.839       17.831      -10.171       11.925       17.886       16.618      142.198      319.898      276.168        0.091        0.037       31.394        3.243        0.011      339.256       12.465      862.755
10/30/2014  12:06:00       17.985       45.069        9.263       17.648       21.103       16.424      311.454      445.332      269.736        0.173        0.051       48.525       11.494        0.056      339.257       12.465      862.732
10/30/2014  12:07:00       53.020       55.603        6.691       43.530       24.609       24.038     1894.822      605.619      577.806        0.451        0.154       76.830       15.352        0.040      339.161       12.304      862.694
10/30/2014  12:08:00       15.668       61.107       -3.230       26.702       17.549       19.842      712.999      307.960      393.700        0.270        0.071       63.084       12.972        0.042      339.232       12.424      862.672
10/30/2014  12:09:00        1.665       31.637       59.350       25.726       44.021       25.232      661.846     1937.817      636.679        0.388        0.162       31.681       23.216        0.537      339.592       13.032      862.657
10/30/2014  12:10:00       24.984       63.541       66.595       29.841       34.020       25.734      890.491     1157.393      662.228        0.590        0.136       68.276       23.225        0.116      339.270       12.488      862.639
10/30/2014  12:11:00       65.496       56.270       36.008       33.316       32.714       30.382     1109.934     1070.203      923.051        0.593        0.155       86.348       20.279        0.055      339.232       12.424      862.619
10/30/2014  12:12:00       48.842       69.891       51.122       34.278       30.989       32.005     1174.978      960.299     1024.334        0.652        0.158       85.266       21.355        0.063      339.304       12.545      862.594
10/30/2014  12:13:00       70.724       82.109       63.487       25.057       23.626       22.634      627.849      558.208      512.279        0.874        0.085      108.369        9.297        0.007      339.319       12.569      862.574
10/30/2014  12:14:00      108.837       55.850        8.506       28.741       33.080       28.063      826.031     1094.253      787.546        0.887        0.135      122.331       15.232        0.016      339.212       12.392      862.577
10/30/2014  12:15:00       58.825       25.794        7.466       28.155       36.832       19.589      792.693     1356.584      383.745        0.336        0.127       64.232       16.933        0.069      339.239       12.436      862.568
10/30/2014  12:16:00       64.918        5.321        1.493       39.363       52.963       25.370     1549.409     2805.031      643.653        0.462        0.250       65.135       18.821        0.083      339.456       12.803      862.557
10/30/2014  12:17:00       28.093        8.306       36.227       34.595       26.513       31.355     1196.831      702.930      983.151        0.253        0.144       29.295       23.333        0.634      339.753       13.303      862.547
10/30/2014  12:18:00       45.998        8.019       20.360       19.608       14.986       20.882      384.480      224.590      436.039        0.182        0.052       46.692       11.969        0.066      339.499       12.875      862.526
10/30/2014  12:19:00       -0.667        9.742       22.967        7.986       14.650        6.834       63.782      214.619       46.700        0.047        0.016        9.765        7.084        0.526      339.875       13.507      862.515
10/30/2014  12:20:00        6.023       26.314       47.124       21.670       26.352       26.938      469.585      694.405      725.661        0.242        0.094       26.994       25.130        0.867      339.731       13.266      862.485
10/30/2014  12:21:00       59.173       64.185       54.105       56.320       37.904       29.702     3171.921     1436.743      882.181        0.802        0.275       87.299       28.371        0.106      339.482       12.845      862.450
10/30/2014  12:22:00       33.681       39.958       25.506       37.413       26.645       27.679     1399.706      709.981      766.150        0.313        0.144       52.260       13.513        0.067      339.432       12.761      862.432
10/30/2014  12:23:00       -2.352       32.156       55.044       16.330       33.151       15.638      266.656     1098.974      244.536        0.284        0.081       32.242       15.186        0.222      339.768       13.327      862.418
10/30/2014  12:24:00       56.062       43.768       24.545       35.710       27.375       28.323     1275.181      749.365      802.214        0.424        0.141       71.124       21.681        0.093      339.666       13.157      862.409
10/30/2014  12:25:00       28.361       19.268       14.280       26.620       34.942       29.924      708.600     1220.931      895.436        0.210        0.141       34.287       16.487        0.231      339.587       13.023      862.393
10/30/2014  12:26:00       42.421       48.961        9.585       35.430       33.005       34.622     1255.272     1089.351     1198.670        0.392        0.177       64.782       22.943        0.125      339.734       13.272      862.371
10/30/2014  12:27:00       40.467       18.675       27.716       51.403       40.834       30.583     2642.306     1667.392      935.333        0.400        0.262       44.568       25.690        0.332      339.777       13.343      862.345
10/30/2014  12:28:00      107.003       77.514        8.798       28.804       33.741       23.954      829.645     1138.466      573.782        1.004        0.127      132.129       17.436        0.017      339.415       12.735      862.308
10/30/2014  12:29:00       55.150       64.597        4.744       33.911       22.478       25.496     1149.965      505.275      650.021        0.477        0.115       84.937       17.827        0.044      339.432       12.761      862.267
10/30/2014  12:30:00       83.912       61.837       -5.679       20.395       21.535       18.400      415.962      463.757      338.578        0.606        0.061      104.236       12.435        0.014      339.354       12.629      862.266
10/30/2014  12:31:00       70.677       42.140       24.887       22.762       18.412       26.744      518.127      338.984      715.222        0.448        0.079       82.287       11.133        0.018      339.498       12.872      862.259
10/30/2014  12:32:00       40.661       31.892        6.301       23.556       18.552       23.682      554.886      344.179      560.832        0.208        0.073       51.677       17.688        0.117      339.626       13.089      862.238
10/30/2014  12:33:00       58.188       34.380        7.848       20.143       16.902       21.678      405.753      285.677      469.943        0.290        0.058       67.585        9.023        0.018      339.646       13.122      862.239
10/30/2014  12:34:00       30.585       25.801       19.119       18.542       14.544       21.389      343.798      211.521      457.475        0.149        0.051       40.014       11.108        0.077      339.720       13.247      862.249
10/30/2014  12:35:00       33.057       20.864        9.506       15.179       10.144       18.437      230.401      102.909      339.934        0.115        0.034       39.090       11.088        0.080      339.581       13.013      862.257
10/30/2014  12:36:00       -1.556       15.386        1.468       14.481       36.525       13.036      209.686     1334.105      169.949        0.098        0.086       15.465       13.438        0.755      339.779       13.349      862.257
10/30/2014  12:37:00       10.211       40.396      -10.518       11.653       26.003       10.353      135.790      676.132      107.189        0.138        0.046       41.667       10.637        0.065      339.556       12.970      862.230
10/30/2014  12:38:00       17.031       16.785       15.194       16.512       18.240       17.675      272.648      332.711      312.397        0.086        0.046       23.912        9.148        0.146      339.852       13.469      862.187
10/30/2014  12:39:00       12.939       68.111       -8.006       20.302       30.071       16.333      412.170      904.276      266.772        0.323        0.079       69.329       15.118        0.048      339.775       13.339      862.165
10/30/2014  12:40:00       37.558       56.971      -15.430       23.125       22.030       17.021      534.775      485.324      289.717        0.310        0.065       68.237       13.065        0.037      339.718       13.243      862.147
10/30/2014  12:41:00       31.854       35.365        2.208       24.025       15.137       17.210      577.225      229.128      296.192        0.169        0.055       47.595       16.042        0.114      339.778       13.345      862.119
10/30/2014  12:42:00        2.035       16.851       11.228       10.733       22.449       13.360      115.207      503.960      178.484        0.061        0.040       16.973       14.805        0.761      340.175       14.014      862.088
10/30/2014  12:43:00       18.059       18.457        5.626       35.673       16.286       17.619     1272.583      265.238      310.421        0.127        0.092       25.823       19.812        0.589      339.982       13.690      862.062
10/30/2014  12:44:00       71.037       36.985        3.266       30.139       24.097       24.363      908.338      580.678      593.536        0.425        0.104       80.088       13.488        0.028      339.884       13.524      862.060
10/30/2014  12:45:00       29.918       34.940        9.487       34.797       18.289       17.267     1210.853      334.484      298.144        0.202        0.092       45.998       17.131        0.139      340.004       13.725      862.077
10/30/2014  12:46:00       25.446        5.719       -3.155       28.896       45.306       17.139      834.996     2052.630      293.735        0.194        0.159       26.081       17.242        0.437      339.947       13.630      862.077
10/30/2014  12:47:00       50.237      -17.101       16.658       44.744       63.259       38.274     2002.049     4001.760     1464.882        0.528        0.373       53.068       44.640        0.708      340.088       13.867      862.043
10/30/2014  12:48:00       37.555       65.347       70.396       30.537       27.560       17.621      932.486      759.567      310.508        0.632        0.100       75.370       15.502        0.042      339.991       13.703      862.023
10/30/2014  12:49:00       50.641       32.750       28.624       35.498       24.305       19.525     1260.110      590.728      381.244        0.334        0.112       60.308        7.966        0.017      339.928       13.598      861.999
10/30/2014  12:50:00       26.313       21.458       19.640       17.288       13.925       14.642      298.863      193.893      214.377        0.112        0.035       33.953        9.569        0.079      340.145       13.963      861.973
10/30/2014  12:51:00        2.543      -22.141       11.166       29.037       46.508       22.330      843.175     2162.997      498.637        0.206        0.175       22.286       16.555        0.552      340.301       14.226      861.952
10/30/2014  12:52:00       55.447       36.370       35.052       32.524       27.570       26.770     1057.820      760.126      716.624        0.408        0.127       66.311       22.109        0.111      340.204       14.063      861.927
10/30/2014  12:53:00       46.683       14.241       14.368       21.696       17.278       18.853      470.698      298.544      355.453        0.186        0.056       48.807        7.701        0.025      340.117       13.917      861.921
10/30/2014  12:54:00       60.323       25.355       -0.887       19.461       22.804       31.003      378.728      520.029      961.170        0.307        0.093       65.435       18.667        0.081      340.026       13.763      861.936
10/30/2014  12:55:00       26.787       22.891       14.535       22.368       17.283       22.133      500.328      298.716      489.880        0.137        0.064       35.235       22.213        0.397      340.293       14.213      861.932
10/30/2014  12:56:00       75.657       58.641       49.491       42.302       22.825       25.710     1789.494      520.981      661.012        0.729        0.149       95.723       21.753        0.052      340.162       13.994      861.898
10/30/2014  12:57:00       66.977       27.181       25.451       51.724       30.528       33.479     2675.351      931.946     1120.817        0.530        0.236       72.283       26.489        0.134      340.342       14.295      861.877
10/30/2014  12:58:00       66.739       35.985      -13.407       56.663       32.108       25.941     3210.743     1030.897      672.946        0.542        0.246       75.822       17.095        0.051      340.375       14.352      861.826
10/30/2014  12:59:00       67.795       51.391       16.895       53.675       26.078       25.762     2881.055      680.085      663.687        0.587        0.211       85.071       25.937        0.093      340.579       14.697      861.794
10/30/2014  13:00:00       18.532       33.761        5.663       25.407       20.740       22.884      645.507      430.146      523.678        0.156        0.080       38.513       19.406        0.254      340.611       14.751      861.783
10/30/2014  13:01:00       -4.772       41.003       65.048       20.160       39.760       27.203      406.407     1580.841      740.001        0.433        0.136       41.280       25.430        0.379      340.930       15.289      861.782
10/30/2014  13:02:00       66.219       64.511       27.462       35.181       24.964       32.279     1237.674      623.183     1041.903        0.610        0.145       92.448       18.564        0.040      340.302       14.228      861.769
10/30/2014  13:03:00       12.345       37.496       64.814       26.932       34.880       22.594      725.357     1216.584      510.479        0.411        0.123       39.476       18.879        0.229      340.913       15.261      861.761
10/30/2014  13:04:00       15.311      -19.790       29.714       31.438       40.860       25.819      988.318     1669.514      666.641        0.242        0.166       25.022       20.780        0.690      340.934       15.297      861.745
10/30/2014  13:05:00       95.994      -70.877        4.459       51.946       51.405       36.500     2698.422     2642.483     1332.256        1.046        0.334      119.325       34.796        0.085      340.388       14.375      861.719
10/30/2014  13:06:00       31.463      -27.732       10.415       29.739       19.926       25.373      884.427      397.053      643.775        0.190        0.096       41.940       14.536        0.120      340.530       14.613      861.702
10/30/2014  13:07:00        6.393       40.879       49.082       32.450       37.912       31.517     1052.974     1437.343      993.335        0.380        0.174       41.376       27.668        0.447      340.821       15.106      861.660
10/30/2014  13:08:00       85.996       65.550       51.484       62.166       38.679       39.915     3864.637     1496.068     1593.202        1.065        0.348      108.130       38.642        0.128      340.445       14.469      861.624
10/30/2014  13:09:00      108.671       50.199        8.738       30.998       30.084       26.725      960.876      905.071      714.222        0.849        0.129      119.705       14.922        0.016      340.449       14.478      861.585
10/30/2014  13:10:00       55.371       10.133       21.271       38.483       24.259       26.530     1480.941      588.476      703.825        0.320        0.139       56.291       24.487        0.189      340.675       14.859      861.579
10/30/2014  13:11:00       -8.333       22.808       47.994       19.816       26.030       19.356      392.662      677.560      374.642        0.217        0.072       24.283       16.878        0.483      341.066       15.521      861.576
10/30/2014  13:12:00       22.451       32.653       38.037       33.699       29.806       20.371     1135.606      888.399      414.985        0.273        0.122       39.626       15.871        0.160      340.835       15.129      861.570
10/30/2014  13:13:00       -1.269       21.897       45.089       30.761       22.839       29.099      946.266      521.639      846.761        0.241        0.116       21.934       23.560        1.154      341.151       15.665      861.546
10/30/2014  13:14:00       42.836       47.254       -2.003       37.433       36.433       30.256     1401.207     1327.344      915.439        0.386        0.182       63.780       21.581        0.114      340.606       14.744      861.520
10/30/2014  13:15:00       52.553       45.890       45.633       47.996       39.536       26.667     2303.581     1563.061      711.133        0.576        0.229       69.769       18.814        0.073      341.035       15.469      861.482
10/30/2014  13:16:00       28.780       49.114       71.819       63.956       49.715       35.991     4090.378     2471.565     1295.385        0.813        0.393       56.925       32.366        0.323      340.828       15.118      861.456
10/30/2014  13:17:00       22.459        7.964       65.526       39.055       60.412       21.949     1525.308     3649.557      481.768        0.526        0.283       23.829       19.302        0.656      341.020       15.443      861.440
10/30/2014  13:18:00       -6.255       -2.438       37.912       22.114       27.352       19.101      489.031      748.131      364.833        0.154        0.080        6.714       14.399        4.600      341.225       15.789      861.435
10/30/2014  13:19:00       17.622       11.935       35.522       33.113       30.377       31.903     1096.500      922.792     1017.820        0.238        0.152       21.283       29.884        1.972      340.906       15.251      861.441
10/30/2014  13:20:00      -20.865      -37.040       -1.124       20.813       22.057       21.747      433.191      486.522      472.925        0.160        0.070       42.513        7.020        0.027      340.710       14.918      861.430
10/30/2014  13:21:00        1.400       -7.323       18.575       15.942       25.070       11.086      254.162      628.517      122.894        0.070        0.050        7.456        4.700        0.397      341.198       15.745      861.400
10/30/2014  13:22:00       41.967       41.575       34.892       26.170       23.244       25.602      684.865      540.275      655.468        0.329        0.094       59.074        9.864        0.028      340.840       15.139      861.359
10/30/2014  13:23:00       16.397      -19.676       23.294       29.639       48.408       28.642      878.496     2343.379      820.371        0.262        0.202       25.612       22.791        0.792      340.964       15.348      861.315
10/30/2014  13:24:00       20.795      -42.817        5.269       31.814       49.268       29.144     1012.118     2427.373      849.361        0.329        0.214       47.599       26.726        0.315      340.936       15.301      861.273
10/30/2014  13:25:00       58.445     -130.898      -11.077       35.680       40.308       29.432     1273.031     1624.712      866.271        1.222        0.188      143.353       16.490        0.013      340.537       14.625      861.252
10/30/2014  13:26:00       47.662      -20.006       21.744       38.417       56.409       46.195     1475.851     3181.928     2133.986        0.497        0.340       51.691       44.390        0.737      340.815       15.096      861.215
10/30/2014  13:27:00       20.628      -15.713        5.107       21.563       34.095       19.653      464.957     1162.439      386.257        0.136        0.101       25.931        5.538        0.046      340.661       14.836      861.205
10/30/2014  13:28:00       19.818       24.059       28.442       29.486       36.143       31.397      869.408     1306.306      985.755        0.247        0.158       31.171       26.439        0.719      340.704       14.908      861.168
10/30/2014  13:29:00       70.165       45.168        8.962       40.559       32.358       22.235     1645.053     1047.021      494.379        0.511        0.159       83.446       14.691        0.031      340.764       15.011      861.150
10/30/2014  13:30:00       84.967       70.577       41.868       46.965       35.398       37.192     2205.695     1253.000     1383.269        0.940        0.242      110.456       25.367        0.053      340.734       14.958      861.125
10/30/2014  13:31:00        8.684       16.914       26.662       40.381       50.055       22.026     1630.650     2505.474      485.145        0.285        0.231       19.013       15.281        0.646      340.900       15.239      861.133
10/30/2014  13:32:00       10.924       41.956       63.043       33.487       44.234       38.939     1121.356     1956.647     1516.227        0.522        0.230       43.355       33.017        0.580      340.971       15.360      861.124
10/30/2014  13:33:00       10.107       62.382       54.825       38.807       39.758       37.053     1506.018     1580.701     1372.948        0.573        0.223       63.196       17.761        0.079      340.927       15.284      861.098
10/30/2014  13:34:00        5.810       16.807       33.551       26.439       32.694       24.908      699.031     1068.881      620.384        0.191        0.119       17.783       18.563        1.090      341.288       15.897      861.070
10/30/2014  13:35:00       93.322       77.841       14.127       42.639       31.218       34.892     1818.051      974.533     1217.445        0.949        0.201      121.525        5.444        0.002      340.844       15.145      861.034
10/30/2014  13:36:00      124.999       80.088        8.586       24.753       37.367       31.651      612.713     1396.320     1001.783        1.256        0.151      148.455        9.957        0.004      340.704       14.908      861.007
10/30/2014  13:37:00       68.450       58.962       11.839       40.009       35.093       25.973     1600.686     1231.494      674.603        0.590        0.175       90.343       22.782        0.064      340.912       15.260      860.987
10/30/2014  13:38:00       68.081       43.825       10.609       43.360       28.725       29.874     1880.086      825.099      892.447        0.513        0.180       80.967       24.682        0.093      340.989       15.392      860.944
10/30/2014  13:39:00      121.437       91.305       16.685       35.294       25.079       30.277     1245.641      628.943      916.694        1.308        0.140      151.933       20.357        0.018      340.799       15.068      860.908
10/30/2014  13:40:00       83.208       69.045       14.868       23.816       21.669       17.827      567.202      469.560      317.818        0.663        0.068      108.124        4.691        0.002      340.655       14.827      860.877
10/30/2014  13:41:00       69.628       53.976        7.777       23.477       28.790       19.121      551.162      828.857      365.602        0.478        0.087       88.099       14.987        0.029      340.794       15.059      860.856
10/30/2014  13:42:00      130.483       97.756       25.252       32.414       26.563       33.853     1050.683      705.568     1146.052        1.506        0.145      163.040       13.922        0.007      340.802       15.072      860.838
10/30/2014  13:43:00       84.356       67.039       22.153       32.480       24.469       36.442     1054.972      598.747     1328.054        0.754        0.149      107.751       21.539        0.040      340.950       15.326      860.811
10/30/2014  13:44:00      104.669       79.443        9.196       30.237       25.870       21.583      914.266      669.265      465.822        0.970        0.102      131.403       13.530        0.011      340.905       15.248      860.783
10/30/2014  13:45:00       42.326       31.418        8.985       23.457       20.877       22.670      550.228      435.864      513.917        0.218        0.075       52.712        8.802        0.028      341.046       15.488      860.743
10/30/2014  13:46:00       17.689      -12.491        0.523       13.741       14.739       16.497      188.822      217.235      272.137        0.057        0.034       21.655        9.086        0.176      341.095       15.568      860.709
10/30/2014  13:47:00       23.935      -63.676      -15.643       32.813       26.478       17.284     1076.723      701.066      298.720        0.347        0.104       68.025       14.474        0.045      341.008       15.423      860.679
10/30/2014  13:48:00       45.525       32.519       41.028       35.389       42.665       27.375     1252.379     1820.336      749.381        0.432        0.191       55.946       25.976        0.216      341.097       15.574      860.656
10/30/2014  13:49:00       85.665       46.892       16.546       39.010       36.402       34.225     1521.802     1325.088     1171.367        0.691        0.201       97.659       20.128        0.042      340.995       15.400      860.660
10/30/2014  13:50:00       30.858       21.052        8.912       19.014       27.577       19.101      361.519      760.468      364.867        0.148        0.074       37.356       10.365        0.077      341.126       15.623      860.667
10/30/2014  13:51:00       73.689       23.769        3.243       43.640       39.705       27.997     1904.406     1576.518      783.815        0.513        0.213       77.428       10.975        0.020      341.057       15.506      860.650
10/30/2014  13:52:00       38.939       63.377        5.279       30.646       29.681       22.837      939.179      880.936      521.522        0.395        0.117       74.383       17.849        0.058      341.149       15.662      860.633
10/30/2014  13:53:00       20.650       72.108       -3.891       28.487       43.962       28.078      811.514     1932.641      788.367        0.459        0.177       75.007       27.519        0.135      341.228       15.796      860.591
10/30/2014  13:54:00       71.808       45.915        2.213       48.201       28.239       22.504     2323.355      797.423      506.444        0.545        0.181       85.232        9.678        0.013      341.173       15.702      860.565
10/30/2014  13:55:00       81.081       47.691        8.007       24.539       19.452       18.432      602.174      378.395      339.750        0.512        0.066       94.067       13.347        0.020      341.015       15.435      860.543
10/30/2014  13:56:00       55.908       60.832        7.561       34.416       23.800       18.810     1184.474      566.435      353.828        0.449        0.105       82.621       15.973        0.037      341.138       15.643      860.537
10/30/2014  13:57:00       41.222       56.974       -5.960       37.365       18.551       20.618     1396.165      344.134      425.083        0.357        0.108       70.323       10.781        0.024      341.156       15.674      860.515
10/30/2014  13:58:00       39.201       26.624      -11.630       28.571       19.847       15.033      816.286      393.900      226.000        0.191        0.072       47.388        4.586        0.009      341.079       15.544      860.508
10/30/2014  13:59:00       11.929       19.894       -3.662       18.155       19.369       21.095      329.622      375.177      445.008        0.085        0.057       23.196       11.335        0.239      341.234       15.806      860.492
10/30/2014  14:00:00        8.111       10.600      -10.861       16.854       12.577       11.710      284.062      158.170      137.131        0.044        0.029       13.347        6.658        0.249      341.122       15.616      860.451
10/30/2014  14:01:00        5.029       -3.423       -7.052       12.538        7.720        5.771      157.195       59.599       33.307        0.017        0.013        6.083        3.043        0.250      341.213       15.771      860.424
10/30/2014  14:02:00       -1.463       -7.189       -1.919       11.623       11.506       12.146      135.086      132.398      147.533        0.024        0.021        7.337        9.339        1.620      341.433       16.143      860.383
10/30/2014  14:03:00       24.972      -18.140       -3.083       24.273       29.757       20.493      589.179      885.460      419.947        0.143        0.095       30.865       15.112        0.240      340.997       15.405      860.354
10/30/2014  14:04:00       63.352      -12.355       -4.339       27.433       17.497       23.271      752.560      306.153      541.561        0.289        0.080       64.545       12.946        0.040      341.060       15.512      860.336
10/30/2014  14:05:00       48.223      -19.505        6.740       17.694       18.403       21.552      313.092      338.659      464.477        0.193        0.056       52.018       15.375        0.087      340.795       15.063      860.305
10/30/2014  14:06:00       46.041      -25.063       -5.132       25.497       28.667       24.930      650.076      821.799      621.521        0.243        0.105       52.421       23.137        0.195      340.919       15.272      860.265
10/30/2014  14:07:00       32.692      -21.461       -4.895       18.474       22.811       19.455      341.284      520.352      378.492        0.140        0.062       39.107       11.351        0.084      340.969       15.357      860.252
10/30/2014  14:08:00       36.612       -6.693       -2.068       24.517       30.789       18.524      601.062      947.984      343.153        0.164        0.095       37.219       12.793        0.118      341.133       15.634      860.228
10/30/2014  14:09:00       13.952        7.179        2.099       14.537       13.715       17.941      211.312      188.093      321.883        0.049        0.036       15.690       13.358        0.725      341.318       15.949      860.210
10/30/2014  14:10:00       25.796       -1.764        8.498       18.596       19.276       19.041      345.806      371.546      362.548        0.091        0.054       25.856       15.013        0.337      341.282       15.886      860.206
10/30/2014  14:11:00       22.632       -4.836        8.683       10.470       10.804       18.061      109.620      116.727      326.186        0.058        0.028       23.143        4.640        0.040      341.131       15.632      860.235
10/30/2014  14:12:00       32.344       -5.825        7.352       20.757       28.155       21.606      430.846      792.697      466.818        0.141        0.085       32.865       16.039        0.238      341.117       15.608      860.247
10/30/2014  14:13:00       39.762        0.953        2.107       21.138       22.627       24.409      446.831      511.992      595.779        0.157        0.078       39.774       17.078        0.184      341.137       15.642      860.228
10/30/2014  14:14:00       22.788      -11.238        5.203       14.921       14.420       18.438      222.623      207.928      339.963        0.072        0.039       25.408        7.449        0.086      341.195       15.740      860.200
10/30/2014  14:15:00       15.868      -34.928        4.397       16.691       15.732       18.743      278.584      247.481      351.294        0.118        0.044       38.363       11.280        0.086      341.263       15.855      860.188
10/30/2014  14:16:00       -3.285       -9.397        5.755       39.398       22.303       17.787     1552.210      497.420      316.390        0.125        0.118        9.955       13.367        1.803      341.443       16.159      860.172
10/30/2014  14:17:00       -7.354       -4.122        6.764       21.026       25.139       23.535      442.083      631.967      553.895        0.087        0.081        8.430       17.077        4.103      341.477       16.216      860.159
10/30/2014  14:18:00        2.774      -26.211        8.231       30.951       37.921       22.545      957.949     1437.965      508.263        0.183        0.145       26.357       19.829        0.566      341.591       16.409      860.144
10/30/2014  14:19:00      -78.848      -49.036       -5.360       53.137       28.201       20.523     2823.560      795.316      421.204        0.634        0.202       92.852       16.945        0.033      341.656       16.519      860.130
10/30/2014  14:20:00     -109.000      -23.244       -6.758       19.504       21.305       13.184      380.413      453.898      173.826        0.674        0.050      111.451        8.797        0.006      341.549       16.338      860.104
10/30/2014  14:21:00     -108.036      -47.385       -9.342       22.974       33.448       14.849      527.793     1118.780      220.492        0.794        0.093      117.971        7.097        0.004      341.658       16.525      860.068
10/30/2014  14:22:00     -117.359      -61.222      -10.061       19.138       22.091       16.096      366.245      488.008      259.075        0.937        0.056      132.368        8.760        0.004      341.601       16.426      860.039
10/30/2014  14:23:00      -97.842      -29.858       -8.765       25.642       29.909       20.993      657.519      894.575      440.712        0.627        0.100      102.296       10.498        0.011      341.720       16.629      860.019
10/30/2014  14:24:00     -111.619      -39.606      -19.459       18.110       26.938       13.607      327.955      725.680      185.152        0.782        0.062      118.437       11.584        0.010      341.672       16.547      859.995
10/30/2014  14:25:00     -120.164        1.607      -13.348       25.754       49.072       19.118      663.255     2408.061      365.503        0.903        0.172      120.174       13.366        0.012      341.601       16.426      859.969
10/30/2014  14:26:00      -84.185        9.406       -9.513       25.182       27.555       11.713      634.138      759.253      137.200        0.440        0.077       84.709       14.842        0.031      341.713       16.616      859.935
10/30/2014  14:27:00      -23.763       -5.391        1.318       19.296       19.638       17.084      372.328      385.648      291.865        0.082        0.052       24.367       12.367        0.258      341.996       17.096      859.912
10/30/2014  14:28:00      -16.433      -24.974        2.812       14.088       15.664       14.258      198.467      245.372      203.283        0.077        0.032       29.896        9.332        0.097      342.043       17.178      859.896
10/30/2014  14:29:00        0.689      -19.886        6.648       24.669       30.832       18.341      608.548      950.598      336.410        0.117        0.095       19.898       13.367        0.451      341.972       17.057      859.900
10/30/2014  14:30:00      -15.330      -37.221        2.133       18.800       22.163       16.964      353.445      491.185      287.767        0.138        0.057       40.255        6.877        0.029      341.950       17.018      859.910
10/30/2014  14:31:00       -5.602      -16.422        1.036       16.177       20.313       18.301      261.690      412.631      334.929        0.066        0.050       17.352        9.193        0.281      341.972       17.057      859.917
10/30/2014  14:32:00       -8.605       10.171       11.828       12.401       11.098        8.208      153.790      123.172       67.370        0.033        0.017       13.323        4.454        0.112      342.165       17.383      859.910
10/30/2014  14:33:00        8.186        8.242       22.183       17.954       12.221       10.667      322.336      149.342      113.778        0.061        0.029       11.617        5.528        0.226      342.172       17.395      859.912
10/30/2014  14:34:00      -43.100      -81.296        4.028       31.018       55.847       22.363      962.104     3118.920      500.121        0.653        0.229       92.015       28.296        0.095      341.762       16.700      859.902
10/30/2014  14:35:00      -68.228      -68.973       -6.419       25.276       25.846       14.364      638.891      668.040      206.328        0.548        0.076       97.017       11.659        0.014      341.900       16.934      859.881
10/30/2014  14:36:00      -15.261      -32.026        6.294       21.818       21.701       13.911      476.008      470.919      193.526        0.122        0.057       35.476       10.191        0.083      342.078       17.235      859.873
10/30/2014  14:37:00       -7.759       -1.291       20.032       26.915       23.708       18.690      724.406      562.082      349.326        0.105        0.082        7.866       13.381        2.894      342.229       17.493      859.851
10/30/2014  14:38:00       -3.918        8.340       20.586       11.068       13.696        7.887      122.495      187.579       62.208        0.044        0.019        9.215        7.807        0.718      342.198       17.440      859.836
10/30/2014  14:39:00       18.911        4.078       -5.131       10.370       11.085       10.794      107.540      122.876      116.511        0.037        0.017       19.346        7.704        0.159      341.831       16.818      859.832
10/30/2014  14:40:00       36.411        3.759       23.013       23.966       12.818       18.091      574.369      164.305      327.285        0.147        0.053       36.605       10.406        0.081      341.701       16.595      859.817
10/30/2014  14:41:00       35.276       25.221       15.264       17.218       15.663       16.618      296.450      245.320      276.147        0.147        0.041       43.364       11.806        0.074      341.647       16.504      859.788
10/30/2014  14:42:00       39.422       15.137       -0.558       15.050       17.752       13.390      226.514      315.147      179.280        0.125        0.036       42.228        9.786        0.054      341.683       16.566      859.761
10/30/2014  14:43:00       48.225       -0.712       -0.281       17.438       18.019       19.282      304.069      324.692      371.812        0.166        0.050       48.230        6.096        0.016      341.430       16.139      859.751
10/30/2014  14:44:00       47.345       -2.018        2.233       20.769       18.030       17.554      431.332      325.070      308.131        0.166        0.053       47.388        8.261        0.030      341.367       16.031      859.739
10/30/2014  14:45:00       24.622       10.656        6.170       17.036       19.769       20.173      290.219      390.828      406.959        0.092        0.054       26.829       14.602        0.296      341.690       16.578      859.729
10/30/2014  14:46:00       10.951        6.279       22.161       14.032       18.665       12.476      196.898      348.400      155.663        0.068        0.035       12.624       12.075        0.915      341.873       16.889      859.719
10/30/2014  14:47:00       34.301       -2.779       21.909       31.040       18.674       19.473      963.497      348.709      379.203        0.168        0.085       34.413        9.388        0.074      341.542       16.326      859.724
10/30/2014  14:48:00       14.225       -2.979       24.271       29.237       22.848       14.824      854.803      522.008      219.752        0.120        0.080       14.534       15.316        1.111      341.764       16.705      859.737
10/30/2014  14:49:00       19.603        0.559       20.471       21.491       22.251       14.377      461.878      495.091      206.695        0.098        0.058       19.611       16.124        0.676      341.720       16.626      859.757
10/30/2014  14:50:00        9.144       -3.696       19.559       21.188       35.261       22.067      448.943     1243.326      486.935        0.133        0.109        9.863       23.482        5.669      341.807       16.777      859.769
10/30/2014  14:51:00       30.472       13.252       21.732       29.801       40.657       22.758      888.114     1652.957      517.934        0.232        0.153       33.229       27.490        0.684      341.959       17.036      859.775
10/30/2014  14:52:00       52.342       46.022       13.022       28.109       26.329       15.566      790.106      693.192      242.316        0.338        0.086       69.697       11.695        0.028      341.951       17.022      859.764
10/30/2014  14:53:00       38.617       23.454       12.780       28.896       30.465       24.486      834.963      928.122      599.562        0.228        0.118       45.182       16.236        0.129      341.985       17.078      859.750
10/30/2014  14:54:00       37.659       40.296       11.077       22.337       26.888       21.227      498.931      722.939      450.600        0.242        0.084       55.154       16.661        0.091      341.790       16.748      859.750
10/30/2014  14:55:00       27.318       -9.545       -7.461       27.705       35.579       21.175      767.564     1265.896      448.400        0.169        0.124       28.938       17.972        0.386      341.642       16.495      859.764
10/30/2014  14:56:00       33.868       11.129        6.670       16.831       31.590       15.374      283.290      997.917      236.355        0.142        0.076       35.650       13.113        0.135      341.791       16.748      859.771
10/30/2014  14:57:00       30.507      -10.201       12.804       20.607       20.040       18.511      424.644      401.599      342.662        0.118        0.058       32.168       13.529        0.177      341.742       16.666      859.769
10/30/2014  14:58:00       16.200       13.059        9.759       17.623       28.255       22.440      310.574      798.344      503.559        0.107        0.081       20.808       14.525        0.487      342.075       17.231      859.757
10/30/2014  14:59:00        6.962       24.498       -6.233       17.855       16.643       17.271      318.803      277.005      298.281        0.079        0.045       25.468        6.146        0.058      342.079       17.238      859.741
10/30/2014  15:00:00       58.948       20.165        1.911       25.878       22.053       27.054      669.649      486.351      731.919        0.289        0.094       62.302       17.021        0.075      341.847       16.843      859.719
10/30/2014  15:01:00       66.940       63.844       20.342       27.011       23.196       21.779      729.600      538.036      474.339        0.536        0.087       92.504       10.449        0.013      342.034       17.162      859.708
10/30/2014  15:02:00        9.513       -0.692       25.363       18.441       16.807       16.811      340.061      282.481      282.593        0.082        0.045        9.538       14.148        2.200      341.985       17.077      859.707
10/30/2014  15:03:00        2.251        9.743       14.063       19.499       24.965       17.095      380.205      623.264      292.237        0.080        0.065       10.000       16.924        2.864      341.782       16.734      859.695
10/30/2014  15:04:00       14.301       13.243       16.047       20.332       21.194       17.107      413.375      449.182      292.655        0.090        0.058       19.491       12.670        0.423      341.854       16.856      859.689
10/30/2014  15:05:00       15.360       10.800       -2.669       20.410       16.767       15.089      416.551      281.138      227.684        0.064        0.046       18.777       11.508        0.376      341.911       16.954      859.681
10/30/2014  15:06:00       42.743        3.485        7.202       20.786       20.291       17.377      432.065      411.740      301.955        0.152        0.057       42.885        7.742        0.033      341.772       16.717      859.676
10/30/2014  15:07:00       21.448       17.090        7.901       12.508       14.128       11.478      156.453      199.613      131.737        0.065        0.024       27.424        8.273        0.091      341.683       16.566      859.663
10/30/2014  15:08:00        8.728       13.507       -0.030        7.333        6.677        5.558       53.778       44.584       30.889        0.019        0.006       16.082        3.789        0.056      341.928       16.980      859.654
10/30/2014  15:09:00      -23.232       -4.857        6.756       22.087       13.106        9.351      487.837      171.764       87.442        0.068        0.037       23.734        7.571        0.102      342.056       17.199      859.661
10/30/2014  15:10:00      -45.616      -33.278        2.340       25.172       19.802       12.661      633.620      392.125      160.300        0.219        0.059       56.465       11.083        0.039      342.268       17.560      859.668
10/30/2014  15:11:00      -25.472      -49.833       -0.775       71.838       27.188       23.566     5160.695      739.183      555.376        0.479        0.323       55.966       19.523        0.122      341.957       17.030      859.671
10/30/2014  15:12:00       -8.257      -17.681       -0.149       34.870       25.820       24.848     1215.934      666.685      617.443        0.144        0.125       19.514       12.982        0.443      342.014       17.126      859.668
10/30/2014  15:13:00       16.554       -3.309       12.277       22.783       15.688       17.561      519.053      246.118      308.374        0.075        0.054       16.881        6.218        0.136      341.874       16.891      859.653
10/30/2014  15:14:00       21.279       -2.105       14.602       34.251       19.622       15.693     1173.112      385.023      246.271        0.124        0.090       21.383       15.254        0.509      341.726       16.639      859.634
10/30/2014  15:15:00        3.640        6.393       13.874       15.276       11.452       13.183      233.341      131.146      173.802        0.039        0.027        7.357        8.076        1.205      341.772       16.717      859.615
10/30/2014  15:16:00       11.486      -17.943        2.667       20.623       14.760       13.099      425.329      217.861      171.594        0.064        0.041       21.304        8.899        0.174      341.885       16.909      859.601
10/30/2014  15:17:00      -53.666      -55.912       -9.797       17.724       17.148       13.084      314.141      294.059      171.184        0.344        0.039       77.500        9.496        0.015      342.425       17.824      859.600
10/30/2014  15:18:00      -38.414      -73.506        6.407       33.679       39.139       21.467     1134.307     1531.893      460.853        0.502        0.156       82.938       26.927        0.105      342.384       17.756      859.585
10/30/2014  15:19:00      -26.389      -81.588       -3.059       12.722       26.691        9.453      161.844      712.396       89.367        0.416        0.048       85.749       11.572        0.018      342.358       17.711      859.563
10/30/2014  15:20:00      -92.219      -71.127       -1.515       42.853       40.469       21.503     1836.409     1637.766      462.372        0.875        0.197      116.462       23.195        0.040      342.425       17.824      859.527
10/30/2014  15:21:00     -109.187      -39.189        3.006       44.274       37.200       23.783     1960.164     1383.820      565.635        0.869        0.195      116.007       22.601        0.038      342.444       17.857      859.498
10/30/2014  15:22:00     -110.750      -11.938       -7.571       29.485       28.764       13.473      869.378      827.349      181.518        0.717        0.094      111.392        6.285        0.003      342.393       17.770      859.467
10/30/2014  15:23:00      -47.333      -24.856       -3.729       24.329       22.799       13.994      591.897      519.777      195.833        0.209        0.065       53.462       13.596        0.065      342.482       17.922      859.446
10/30/2014  15:24:00      -20.202      -33.555        3.098       24.818       30.040       19.895      615.932      902.406      395.813        0.173        0.096       39.167       15.226        0.151      342.443       17.856      859.424
10/30/2014  15:25:00      -28.461       -3.805       -2.364       15.055       15.019       18.657      226.656      225.575      348.099        0.082        0.040       28.715       14.300        0.248      342.487       17.932      859.414
10/30/2014  15:26:00      -17.235      -33.912        5.107       19.672       12.661       10.696      387.004      160.305      114.407        0.107        0.033       38.040        8.790        0.053      342.542       18.025      859.412
10/30/2014  15:27:00      -13.652      -15.461        5.322       12.118       10.561        9.259      146.854      111.534       85.724        0.040        0.017       20.626        2.892        0.020      342.583       18.096      859.412
10/30/2014  15:28:00       15.769      -39.270       15.342       28.419       30.414       19.955      807.639      924.995      398.205        0.208        0.107       42.318       19.945        0.222      342.154       17.365      859.416
10/30/2014  15:29:00      -23.445      -46.722        2.101       23.110       19.945       15.929      534.092      397.789      253.720        0.196        0.059       52.274       14.145        0.073      342.436       17.846      859.431
10/30/2014  15:30:00      -44.085      -16.481       -0.577       19.359       22.321       12.319      374.780      498.210      151.756        0.162        0.051       47.065        6.193        0.017      342.478       17.918      859.440
10/30/2014  15:31:00      -41.542      -28.700        7.222       41.547       17.257       14.177     1726.176      297.814      200.993        0.241        0.111       50.492       18.601        0.136      342.483       17.925      859.440
10/30/2014  15:32:00       26.521      -24.980       -4.504       21.341       27.159       22.397      455.436      737.611      501.645        0.152        0.085       36.433       15.878        0.190      342.124       17.312      859.440
10/30/2014  15:33:00      -36.333        7.273       -5.318       33.045       29.910       19.896     1091.970      894.618      395.853        0.189        0.119       37.054       16.861        0.207      342.490       17.936      859.423
10/30/2014  15:34:00      -28.531       17.433       -5.056       28.339       20.115       16.896      803.120      404.614      285.468        0.132        0.075       33.435        7.229        0.047      342.611       18.143      859.398
10/30/2014  15:35:00      -35.416       15.520        9.034       20.415       26.343       23.712      416.770      693.963      562.238        0.162        0.084       38.667       17.212        0.198      342.343       17.686      859.356
10/30/2014  15:36:00       26.221        6.807       20.457       23.850       24.752       19.872      568.818      612.685      394.894        0.136        0.079       27.090       14.003        0.267      342.026       17.148      859.316
10/30/2014  15:37:00       39.272       31.251       -0.780       15.242       17.429       16.461      232.313      303.772      270.969        0.166        0.040       50.189       12.980        0.067      342.037       17.167      859.281
10/30/2014  15:38:00       44.232       21.212       15.895       13.915       11.154       15.681      193.622      124.418      245.888        0.161        0.028       49.055        8.985        0.034      341.972       17.057      859.256
10/30/2014  15:39:00        9.226        2.244       10.905       19.248       12.121        7.880      370.469      146.923       62.101        0.039        0.029        9.495        9.224        0.944      342.435       17.843      859.251
10/30/2014  15:40:00       18.145       -6.930       -5.812       30.037       17.351       20.598      902.203      301.069      424.297        0.102        0.081       19.423       20.748        1.141      342.103       17.276      859.241
10/30/2014  15:41:00       69.320      -14.567       -9.015       34.346       34.393       33.703     1179.626     1182.866     1135.861        0.430        0.175       70.834       21.720        0.094      342.007       17.116      859.230
10/30/2014  15:42:00       37.831      -31.356       15.000       30.241       27.622       23.283      914.541      762.960      542.083        0.243        0.111       49.137       21.634        0.194      342.367       17.727      859.226
10/30/2014  15:43:00       32.667      -17.957        8.499       32.976       35.433       31.113     1087.408     1255.512      967.989        0.239        0.166       37.277       29.331        0.619      342.225       17.487      859.218
10/30/2014  15:44:00       27.303      -14.378       -2.006       17.474       16.607       17.916      305.349      275.787      320.989        0.093        0.045       30.857       10.187        0.109      342.307       17.626      859.222
10/30/2014  15:45:00       31.402      -31.175       -0.314       33.117       14.797       15.582     1096.739      218.951      242.786        0.176        0.078       44.249        9.560        0.047      342.661       18.227      859.207
10/30/2014  15:46:00       54.175      -12.874        8.858       23.452       22.424       20.963      550.010      502.835      439.450        0.234        0.075       55.683       12.622        0.051      342.384       17.757      859.199
10/30/2014  15:47:00       29.941      -10.030        9.234       24.112       21.027       21.771      581.381      442.121      473.974        0.129        0.075       31.576       16.731        0.281      342.364       17.724      859.183
10/30/2014  15:48:00       44.570       -2.889       -3.815       22.315       23.357       16.956      497.969      545.565      287.518        0.167        0.067       44.664        5.535        0.015      342.138       17.337      859.171
10/30/2014  15:49:00       32.469        3.783        6.836       16.084       15.253       14.890      258.707      232.650      221.726        0.091        0.036       32.689        9.778        0.089      342.370       17.731      859.151
10/30/2014  15:50:00       20.031        8.226        5.237       11.080       10.448       12.383      122.773      109.151      153.347        0.044        0.019       21.655        7.990        0.136      342.250       17.527      859.131
10/30/2014  15:51:00       47.998       37.007        0.213       25.991       23.018       17.212      675.518      529.825      296.267        0.259        0.075       60.608       10.224        0.028      342.527       17.999      859.102
10/30/2014  15:52:00       36.188       28.020        1.549       37.773       24.593       24.127     1426.794      604.813      582.114        0.235        0.131       45.768       21.300        0.217      342.530       18.003      859.075
10/30/2014  15:53:00       54.965      -23.623        2.008       29.738       36.846       31.000      884.326     1357.630      960.998        0.339        0.160       59.826       18.263        0.093      342.414       17.806      859.060
10/30/2014  15:54:00       24.739       -7.554        4.689       26.837       20.061       16.356      720.200      402.430      267.528        0.104        0.070       25.866       13.548        0.274      342.368       17.730      859.041
10/30/2014  15:55:00       -5.880      -19.588       18.945       35.849       33.383       18.176     1285.170     1114.447      330.378        0.175        0.136       20.451        9.049        0.196      342.553       18.043      859.046
10/30/2014  15:56:00       -6.287       17.412        7.987       19.569       14.255       19.359      382.960      203.217      374.761        0.068        0.048       18.512       11.908        0.414      342.541       18.024      859.072
10/30/2014  15:57:00        5.183       -9.842       12.158       16.821       16.753       14.020      282.955      280.680      196.553        0.052        0.038       11.123       12.210        1.205      342.811       18.483      859.090
10/30/2014  15:58:00       46.201      -16.946        9.621       39.004       31.143       26.166     1521.299      969.916      684.661        0.284        0.159       49.211       20.644        0.176      342.470       17.902      859.085
10/30/2014  15:59:00       21.063        7.148       12.602       30.748       37.071       23.791      945.437     1374.277      566.033        0.177        0.144       22.243       18.746        0.710      342.555       18.047      859.084
10/30/2014  16:00:00      -14.577       14.823        5.614       16.885       12.295       13.237      285.087      151.171      175.227        0.054        0.031       20.789       10.559        0.258      342.864       18.571      859.096
10/30/2014  16:01:00        1.213        4.918       -2.084       10.435       24.608       13.051      108.880      605.556      170.326        0.046        0.044        5.065       11.939        5.556      342.953       18.723      859.098
10/30/2014  16:02:00       60.864      -86.356       -7.779       56.823       36.239       25.901     3228.849     1313.291      670.864        0.822        0.261      105.649       19.432        0.034      342.914       18.657      859.107
10/30/2014  16:03:00       70.537      -52.720        2.991       53.335       66.965       40.423     2844.581     4484.250     1634.023        0.836        0.448       88.062       49.121        0.311      342.991       18.789      859.118
10/30/2014  16:04:00       20.738      -13.598       16.589       27.619       36.887       19.972      762.784     1360.670      398.872        0.171        0.126       24.799       12.182        0.241      343.030       18.855      859.124
10/30/2014  16:05:00       38.936      -50.985       27.476       40.276       54.140       30.437     1622.162     2931.124      926.418        0.517        0.274       64.152       28.235        0.194      343.177       19.107      859.110
10/30/2014  16:06:00       59.271      -61.490       12.221       48.073       57.696       28.643     2310.972     3328.827      820.400        0.695        0.323       85.406       37.170        0.189      343.121       19.009      859.107
10/30/2014  16:07:00       61.579      -51.090        1.835       61.958       69.671       41.698     3838.796     4854.011     1738.738        0.842        0.522       80.014       46.621        0.340      342.971       18.754      859.097
10/30/2014  16:08:00       91.310      -86.862       -3.954       39.453       56.001       31.791     1556.571     3136.151     1010.659        1.080        0.285      126.026       35.720        0.080      343.028       18.852      859.092
10/30/2014  16:09:00       47.698      -21.143       25.454       43.376       45.169       33.275     1881.502     2040.226     1107.207        0.420        0.251       52.174       28.879        0.306      342.943       18.707      859.093
10/30/2014  16:10:00       63.967      -83.258       -8.090       58.654       75.755       41.500     3440.345     5738.821     1722.259        1.099        0.545      104.993       45.221        0.186      343.079       18.936      859.092
10/30/2014  16:11:00       42.612      -53.376       -9.508       56.672       52.126       42.314     3211.725     2717.117     1790.515        0.624        0.386       68.299       40.855        0.358      343.079       18.937      859.088
10/30/2014  16:12:00       20.562      -42.839        1.700       42.757       51.492       35.528     1828.121     2651.424     1262.221        0.400        0.287       47.518       22.819        0.231      343.062       18.910      859.093
10/30/2014  16:13:00       55.972      -73.268       -3.295       53.946       41.121       31.841     2910.134     1690.915     1013.861        0.706        0.281       92.201       26.444        0.082      343.080       18.940      859.108
10/30/2014  16:14:00      111.669     -130.036      -31.610       33.295       35.733       17.886     1108.547     1276.816      319.902        1.654        0.135      171.404       13.479        0.006      343.027       18.851      859.102
10/30/2014  16:15:00       33.440      -31.993       10.367       54.111       38.337       33.741     2928.024     1469.709     1138.466        0.389        0.277       46.280       37.238        0.647      343.024       18.846      859.113
10/30/2014  16:16:00        2.960      -32.390       -3.839       29.493       28.953       29.623      869.845      838.275      877.529        0.183        0.129       32.525       10.819        0.111      342.900       18.634      859.121
10/30/2014  16:17:00        6.765      -29.292      -10.853       27.244       29.646       25.536      742.228      878.886      652.097        0.165        0.114       30.063       14.355        0.228      342.899       18.632      859.142
10/30/2014  16:18:00      -14.711      -10.657       10.824       16.889       25.075       17.166      285.241      628.732      294.659        0.083        0.060       18.166       12.992        0.511      342.992       18.789      859.154
10/30/2014  16:19:00       -6.382       -1.327        8.729       18.102       12.976       10.572      327.673      168.368      111.774        0.036        0.030        6.518        4.784        0.539      343.067       18.918      859.176
10/30/2014  16:20:00      -55.130      -15.542        1.982       30.093       24.291       17.463      905.616      590.046      304.963        0.254        0.090       57.278       15.129        0.070      343.145       19.050      859.188
10/30/2014  16:21:00      -45.697       -4.792        6.728       42.696       14.877       13.930     1822.947      221.328      194.043        0.220        0.112       45.947       17.453        0.144      343.179       19.109      859.184
10/30/2014  16:22:00      -65.925       -3.565       16.504       42.806       33.886       21.301     1832.379     1148.237      453.721        0.403        0.172       66.022       23.264        0.124      343.106       18.984      859.175
10/30/2014  16:23:00        8.917      -13.066       -2.243       20.964       23.356       14.438      439.506      545.526      208.468        0.072        0.060       15.819        6.180        0.153      342.664       18.232      859.152
10/30/2014  16:24:00       21.163        4.030       14.433       15.905       17.582       14.962      252.955      309.122      223.851        0.073        0.039       21.543        8.875        0.170      342.497       17.949      859.140
10/30/2014  16:25:00       38.110      -13.288       -6.318       16.279       19.391       13.705      264.998      376.007      187.833        0.125        0.041       40.360        8.395        0.043      342.576       18.081      859.142
10/30/2014  16:26:00       30.437        0.132       27.472       27.903       23.123       20.311      778.568      534.678      412.516        0.170        0.086       30.437       14.469        0.226      342.369       17.731      859.149
10/30/2014  16:27:00       41.966      -18.374       10.557       30.800       23.701       24.583      948.668      561.718      604.316        0.216        0.106       45.812       11.915        0.068      342.373       17.737      859.160
10/30/2014  16:28:00       18.688      -25.065       15.480       41.414       42.198       32.702     1715.117     1780.701     1069.409        0.289        0.228       31.265       23.192        0.550      342.763       18.399      859.159
10/30/2014  16:29:00       -9.584      -34.382       21.664       23.414       40.504       25.690      548.202     1640.610      659.993        0.230        0.142       35.692       14.357        0.162      343.104       18.981      859.151
10/30/2014  16:30:00        2.430        5.838        9.901       19.134       20.359       22.263      366.092      414.500      495.659        0.071        0.064        6.323       16.028        6.425      342.771       18.414      859.123
10/30/2014  16:31:00        9.141      -12.774        9.314       28.811       26.215       20.549      830.081      687.228      422.259        0.114        0.097       15.708       22.081        1.976      342.495       17.945      859.098
10/30/2014  16:32:00       23.845       -7.374        6.958       14.860       15.418       11.770      220.816      237.730      138.541        0.063        0.030       24.959        6.039        0.059      342.448       17.866      859.071
10/30/2014  16:33:00       24.639       10.153       -3.336       10.430       13.583       15.788      108.776      184.495      249.258        0.063        0.027       26.648       11.353        0.182      342.788       18.443      859.054
10/30/2014  16:34:00        2.912       30.017        0.998        8.852       14.881       14.344       78.362      221.436      205.737        0.071        0.025       30.158        5.856        0.038      342.769       18.410      859.045
10/30/2014  16:35:00      -23.092       23.186       -9.857       11.199       11.763        8.380      125.412      138.364       70.227        0.075        0.017       32.724        7.041        0.046      343.102       18.978      859.039
10/30/2014  16:36:00      -57.371       -2.781      -13.644       23.589       15.670        8.959      556.448      245.534       80.256        0.218        0.044       57.438       10.656        0.034      343.109       18.992      859.042
10/30/2014  16:37:00      -19.973      -23.410       16.779       39.667       45.062       24.366     1573.456     2030.563      593.710        0.271        0.210       30.772       28.490        0.857      343.032       18.858      859.048
10/30/2014  16:38:00      -47.896      -26.920       15.861       36.369       36.166       25.559     1322.712     1308.003      653.276        0.328        0.164       54.943       28.081        0.261      343.059       18.905      859.052
10/30/2014  16:39:00      -80.234      -74.797        2.292       50.902       29.091       21.986     2591.036      846.274      483.374        0.798        0.196      109.690       23.284        0.045      343.056       18.897      859.059
10/30/2014  16:40:00      -78.650      -76.071       -2.116       32.245       35.717       26.190     1039.747     1275.726      685.903        0.749        0.150      109.419       19.667        0.032      343.095       18.966      859.061
10/30/2014  16:41:00      -66.107      -56.635       -2.214       31.578       25.579       22.352      997.152      654.298      499.612        0.487        0.108       87.050       17.696        0.041      343.114       18.998      859.065
10/30/2014  16:42:00      -73.527      -60.316       -0.289       39.710       22.551       21.370     1576.917      508.555      456.695        0.579        0.127       95.101       21.563        0.051      343.094       18.965      859.057
10/30/2014  16:43:00      -81.245      -78.073       -4.665       16.728       15.505       13.061      279.822      240.407      170.592        0.670        0.035      112.677        7.967        0.005      343.078       18.937      859.038
10/30/2014  16:44:00      -61.940      -36.285        2.515       33.108       32.411       18.922     1096.147     1050.470      358.053        0.383        0.125       71.786       17.375        0.059      343.112       18.995      859.016
10/30/2014  16:45:00      -81.269      -73.204       -2.014       57.131       37.250       22.080     3263.921     1387.553      487.539        0.855        0.257      109.378       25.150        0.053      343.080       18.940      858.998
10/30/2014  16:46:00     -126.577      -43.011       -2.377       29.979       23.863       15.892      898.736      569.431      252.562        0.980        0.086      133.685       15.833        0.014      343.018       18.831      858.980
10/30/2014  16:47:00      -80.013       -2.264       -9.845       28.516       10.273       13.765      813.166      105.541      189.478        0.381        0.055       80.045       16.871        0.044      343.051       18.892      858.967
10/30/2014  16:48:00       28.905      -11.615        9.027       28.772       14.508       16.194      827.854      210.480      262.233        0.118        0.065       31.151       12.729        0.167      342.357       17.710      858.946
10/30/2014  16:49:00       15.604        4.526       19.795       20.044       19.726       16.748      401.775      389.131      280.507        0.086        0.054       16.247       13.493        0.690      342.310       17.629      858.928
10/30/2014  16:50:00       40.291       -9.024       13.458       20.830       22.741       18.937      433.878      517.140      358.628        0.160        0.065       41.289       17.319        0.176      342.240       17.510      858.900
10/30/2014  16:51:00       -6.282       18.550       15.433       10.342       14.806       13.265      106.965      219.231      175.951        0.056        0.025       19.585        2.918        0.022      342.342       17.684      858.873
10/30/2014  16:52:00       -1.234       -1.712        0.179        5.224        5.983        6.921       27.288       35.790       47.896        0.006        0.006        2.110        4.348        4.245      342.593       18.110      858.855
10/30/2014  16:53:00       -5.094       15.470       15.385       14.493       23.674       20.426      210.036      560.445      417.224        0.084        0.059       16.288       19.852        1.486      342.488       17.934      858.832
10/30/2014  16:54:00       15.005       -5.851       10.760       31.072       19.380       17.813      965.500      375.592      317.307        0.102        0.083       16.106       11.968        0.552      342.209       17.459      858.805
10/30/2014  16:55:00       43.934      -14.255        4.294       20.628       16.202       15.362      425.502      262.520      235.985        0.154        0.046       46.189        7.908        0.029      342.310       17.630      858.789
10/30/2014  16:56:00       13.467        6.321       -2.399       10.918       12.043       14.158      119.194      145.037      200.444        0.035        0.023       14.877        7.041        0.224      342.682       18.263      858.772
10/30/2014  16:57:00       55.859       -9.691       11.502       21.348       14.282       21.425      455.731      203.971      459.011        0.223        0.056       56.693        9.537        0.028      342.295       17.603      858.751
10/30/2014  16:58:00       16.844       -4.416        6.075       11.187       12.008       10.083      125.156      144.200      101.660        0.036        0.019       17.414        6.240        0.128      342.617       18.152      858.724
10/30/2014  16:59:00       20.440      -23.220        8.062       14.735       10.829       11.950      217.118      117.278      142.795        0.075        0.024       30.935        7.948        0.066      342.670       18.242      858.706
10/30/2014  17:00:00       17.796       -4.237       15.845       21.865       16.555       12.641      478.066      274.068      159.787        0.075        0.046       18.294       10.977        0.360      342.349       17.697      858.693
10/30/2014  17:01:00       25.801        0.333       20.756       24.740       12.414       18.033      612.056      154.116      325.192        0.109        0.055       25.803       10.191        0.156      342.310       17.630      858.681
10/30/2014  17:02:00       27.593       -7.597        4.422       19.572       17.607       21.061      383.048      309.997      443.569        0.099        0.057       28.620       10.221        0.128      342.391       17.768      858.668
10/30/2014  17:03:00       28.024       -4.315       12.065       16.506       14.889       12.132      272.436      221.689      147.194        0.080        0.032       28.354       10.422        0.135      342.372       17.735      858.665
10/30/2014  17:04:00        8.106      -10.952        3.047       12.236       14.990        8.885      149.724      224.686       78.944        0.032        0.023       13.626        4.146        0.093      342.677       18.256      858.659
10/30/2014  17:05:00        3.209       -6.923       -0.973       12.609        9.798        8.795      158.988       96.005       77.350        0.020        0.017        7.631        6.777        0.789      342.454       17.874      858.659
10/30/2014  17:06:00      -46.678       -9.949       -5.307        8.972        8.281        7.829       80.499       68.574       61.294        0.126        0.011       47.726        4.716        0.010      342.733       18.349      858.657
10/30/2014  17:07:00      -64.161      -17.424       -4.143       10.852       10.409        7.273      117.772      108.340       52.899        0.236        0.014       66.485        4.206        0.004      342.675       18.250      858.644
10/30/2014  17:08:00      -83.274      -23.483       -2.143       12.155        9.846        8.343      147.732       96.936       69.613        0.390        0.016       86.521        5.663        0.004      342.656       18.217      858.633
10/30/2014  17:09:00      -92.682      -25.644        1.851       30.448       22.829       16.589      927.093      521.184      275.194        0.549        0.086       96.164       16.118        0.028      342.705       18.302      858.625
10/30/2014  17:10:00      -96.658      -27.879        4.521       41.493       25.200       17.361     1721.696      635.044      301.397        0.640        0.133      100.598       19.094        0.036      342.794       18.453      858.619
10/30/2014  17:11:00      -68.286      -23.689        6.572       39.018       20.910       17.226     1522.414      437.209      296.725        0.376        0.113       72.279       21.026        0.085      342.782       18.433      858.627
10/30/2014  17:12:00      -38.733      -22.883        7.579       34.114       24.013       15.359     1163.792      576.623      235.911        0.203        0.099       44.988       17.318        0.148      342.744       18.367      858.633
10/30/2014  17:13:00      -34.784      -12.291        6.853       25.582       18.555       15.201      654.446      344.280      231.078        0.132        0.061       36.892       14.211        0.148      342.641       18.192      858.631
10/30/2014  17:14:00      -34.900       -9.088        1.736       16.048       21.072       10.754      257.552      444.027      115.655        0.106        0.041       36.063        9.617        0.071      342.741       18.362      858.636
10/30/2014  17:15:00      -15.745      -11.638      -13.382       23.530       23.484       13.800      553.663      551.500      190.432        0.093        0.065       19.579       15.538        0.630      342.592       18.108      858.653
10/30/2014  17:16:00      -11.584        3.419       -0.797       29.305       18.220       20.459      858.797      331.961      418.565        0.088        0.080       12.078       15.132        1.570      342.249       17.525      858.660
10/30/2014  17:17:00      -46.964       -5.835        8.596       23.647       23.336       13.841      559.185      544.572      191.560        0.180        0.065       47.325       10.593        0.050      342.531       18.005      858.681
10/30/2014  17:18:00     -127.322      -35.433       -0.574       28.338       22.184       17.230      803.055      492.119      296.857        0.953        0.080      132.161       16.475        0.016      342.728       18.341      858.695
10/30/2014  17:19:00      -93.028      -11.279        0.792       34.559       32.165       22.127     1194.292     1034.604      489.619        0.575        0.136       93.710       23.041        0.060      342.707       18.304      858.710
10/30/2014  17:20:00     -109.103      -19.335       -1.577       49.428       25.961       20.675     2443.129      673.956      427.458        0.791        0.177      110.803       22.888        0.043      342.752       18.382      858.712
10/30/2014  17:21:00     -114.852      -27.240       -5.535       49.146       29.951       21.730     2415.378      897.058      472.186        0.887        0.189      118.038       23.411        0.039      342.734       18.350      858.711
10/30/2014  17:22:00     -102.348      -25.648       -0.771       42.894       24.876       16.624     1839.930      618.822      276.364        0.693        0.137      105.513       16.897        0.026      342.757       18.388      858.701
10/30/2014  17:23:00     -105.254      -32.311       -4.049       29.698       24.108       13.264      881.972      581.194      175.947        0.689        0.082      110.101       15.021        0.019      342.773       18.416      858.689
10/30/2014  17:24:00      -50.039      -26.914        2.516       37.746       19.865       16.794     1424.770      394.606      282.042        0.267        0.105       56.818       19.709        0.120      342.700       18.293      858.670
10/30/2014  17:25:00      -32.565       -6.725        1.577       23.606       13.480       11.834      557.246      181.717      140.051        0.099        0.044       33.252       13.611        0.168      342.623       18.161      858.649
10/30/2014  17:26:00      -19.541       -4.988        5.297       14.313       15.582       11.100      204.854      242.806      123.201        0.050        0.029       20.168        9.818        0.237      342.620       18.158      858.640
10/30/2014  17:27:00       -6.194       -5.741       -1.246       21.389       10.916        8.838      457.491      119.164       78.104        0.036        0.033        8.445        4.060        0.231      342.674       18.248      858.650
10/30/2014  17:28:00       20.777      -12.334       -3.882       34.146       20.438       14.303     1165.931      417.714      204.581        0.119        0.089       24.162        8.755        0.131      342.261       17.549      858.649
10/30/2014  17:29:00        5.385        4.731       17.235       25.776       22.839       16.751      664.408      521.630      280.589        0.091        0.073        7.168       10.356        2.087      342.192       17.430      858.655
10/30/2014  17:30:00      -22.486       -4.860        2.252        8.000       10.014        7.571       63.992      100.285       57.322        0.038        0.011       23.005        6.055        0.069      342.685       18.266      858.660
10/30/2014  17:31:00      -27.952      -36.166       -0.494       14.624       18.584       11.843      213.876      345.362      140.252        0.139        0.035       45.709        7.835        0.029      342.785       18.439      858.656
10/30/2014  17:32:00      -19.171      -19.100        5.746       20.693       16.298        9.477      428.194      265.636       89.806        0.077        0.039       27.062       10.505        0.151      342.639       18.189      858.652
10/30/2014  17:33:00      -33.746      -31.675       -2.739       16.716       12.424        8.859      279.420      154.359       78.476        0.133        0.026       46.283        4.702        0.010      342.641       18.192      858.653
10/30/2014  17:34:00      -17.054       -5.827        7.905       12.536       13.349       11.728      157.142      178.191      137.537        0.043        0.024       18.022        7.986        0.196      342.617       18.153      858.651
10/30/2014  17:35:00      -39.022      -27.165       -3.439        9.745       11.299        7.384       94.973      127.665       54.527        0.127        0.014       47.546        5.722        0.014      342.507       17.966      858.648
10/30/2014  17:36:00      -28.116      -25.002       -1.479       12.910       10.455        7.273      166.676      109.299       52.903        0.087        0.016       37.624        3.949        0.011      342.447       17.864      858.638
10/30/2014  17:37:00      -47.253      -17.417        1.972       41.511       15.897       11.929     1723.197      252.715      142.294        0.233        0.106       50.361       17.662        0.123      342.365       17.724      858.634
10/30/2014  17:38:00      -67.654      -32.147       -8.036        9.475        8.007        6.832       89.779       64.104       46.679        0.294        0.010       74.903        4.022        0.003      342.350       17.697      858.631
10/30/2014  17:39:00      -66.236      -25.141       -6.157        9.322        9.399        6.750       86.908       88.340       45.556        0.264        0.011       70.847        4.605        0.004      342.367       17.725      858.632
10/30/2014  17:40:00      -66.992      -11.906       -7.514       15.515       11.512        6.405      240.715      132.532       41.029        0.255        0.021       68.041        5.947        0.008      342.334       17.672      858.645
10/30/2014  17:41:00      -51.698       -6.711       -2.431       20.479       14.992       10.734      419.374      224.765      115.223        0.174        0.038       52.132       11.667        0.050      342.303       17.617      858.657
10/30/2014  17:42:00      -62.766      -11.289       -4.095        8.508       10.352        6.318       72.382      107.170       39.912        0.215        0.011       63.773        3.754        0.003      342.429       17.830      858.662
10/30/2014  17:43:00      -57.579      -12.350       -1.772        8.640        8.916        5.799       74.642       79.502       33.625        0.183        0.009       58.888        4.030        0.005      342.390       17.766      858.663
10/30/2014  17:44:00      -56.973      -18.150       -6.621       10.696        8.933        7.154      114.396       79.803       51.174        0.193        0.012       59.794        5.704        0.009      342.410       17.799      858.659
10/30/2014  17:45:00      -63.548      -20.507       -6.723       10.030       11.584        6.901      100.604      134.178       47.618        0.239        0.014       66.775        4.517        0.005      342.251       17.531      858.666
10/30/2014  17:46:00      -70.701      -10.329        1.180       28.545       24.026       14.281      814.819      577.257      203.943        0.335        0.080       71.452       10.526        0.022      342.257       17.540      858.667
10/30/2014  17:47:00      -59.243      -12.536        3.418       26.310       22.979       14.554      692.229      528.043      211.826        0.256        0.072       60.554       14.725        0.059      342.225       17.487      858.660
10/30/2014  17:48:00      -64.381        0.099       -1.356       20.308       21.605       14.863      412.428      466.764      220.917        0.262        0.055       64.381       10.666        0.027      342.159       17.373      858.653
10/30/2014  17:49:00      -27.022      -15.660        2.773       22.397       15.317       10.850      501.638      234.608      117.727        0.092        0.043       31.232        9.998        0.102      342.106       17.283      858.645
10/30/2014  17:50:00       -9.013      -16.028        4.835       26.082       18.108       14.986      680.257      327.895      224.579        0.080        0.062       18.388       13.547        0.543      341.988       17.083      858.641
10/30/2014  17:51:00       15.116       -7.459       15.213       39.253       13.977       19.064     1540.796      195.357      363.424        0.131        0.105       16.857       10.849        0.414      341.720       16.629      858.638
10/30/2014  17:52:00      -23.127      -18.160        6.461       37.431       17.847       20.629     1401.047      318.500      425.536        0.153        0.107       29.405       23.996        0.666      341.937       16.997      858.627
10/30/2014  17:53:00      -77.079      -27.742       -5.311       15.102       14.863        9.828      228.077      220.913       96.598        0.364        0.027       81.919        7.801        0.009      342.032       17.158      858.620
10/30/2014  17:54:00      -62.818      -11.565        3.367       34.348       26.277       16.148     1179.772      690.490      260.764        0.311        0.107       63.873       19.863        0.097      341.830       16.815      858.613
10/30/2014  17:55:00      -83.234       -5.441       -2.195       34.166       27.598       18.752     1167.335      761.650      351.646        0.462        0.114       83.412       18.070        0.047      341.728       16.641      858.629
10/30/2014  17:56:00      -93.692       -8.071       -3.303       36.165       34.284       18.988     1307.884     1175.405      360.548        0.585        0.142       94.039       19.729        0.044      341.646       16.503      858.630
10/30/2014  17:57:00      -83.296      -33.054        5.484       44.170       33.820       20.168     1951.013     1143.791      406.743        0.578        0.175       89.615       21.643        0.058      341.663       16.531      858.628
10/30/2014  17:58:00      -74.146      -13.562        5.799       43.758       33.635       20.686     1914.735     1131.327      427.918        0.459        0.174       75.376       23.222        0.095      341.698       16.592      858.623
10/30/2014  17:59:00      -91.185      -28.103        4.053       35.345       32.406       20.168     1249.275     1050.152      406.746        0.591        0.135       95.417       21.336        0.050      341.984       17.077      858.607
10/30/2014  18:00:00      -98.027      -14.757       -0.631       41.845       34.015       21.693     1751.036     1157.045      470.588        0.660        0.169       99.131       20.110        0.041      341.936       16.993      858.592
10/30/2014  18:01:00     -123.071       -5.222       -9.162       33.336       24.329       16.690     1111.317      591.893      278.568        0.862        0.099      123.182       13.593        0.012      341.678       16.557      858.581
10/30/2014  18:02:00     -134.782       20.862       -7.246       25.443       24.161       16.398      647.330      583.735      268.900        1.008        0.075      136.387       12.873        0.009      341.800       16.763      858.564
10/30/2014  18:03:00     -120.259       36.011       -6.672       29.796       18.795       12.122      887.789      353.266      146.938        0.860        0.069      125.535       11.381        0.008      341.898       16.931      858.568
10/30/2014  18:04:00      -97.414       15.088       -8.022       24.910       21.617       13.523      620.517      467.291      182.878        0.553        0.064       98.575       11.349        0.013      341.910       16.950      858.566
10/30/2014  18:05:00      -84.427       14.944       -2.766       18.915       18.316       14.182      357.794      335.463      201.131        0.413        0.045       85.739       10.450        0.015      341.816       16.792      858.574
10/30/2014  18:06:00      -57.027       -7.271       -1.395       34.431       22.371       18.058     1185.474      500.459      326.096        0.266        0.101       57.489       20.641        0.129      341.706       16.605      858.582
10/30/2014  18:07:00      -63.423       -0.133       -6.667       43.635       22.175       17.895     1904.030      491.722      320.216        0.339        0.136       63.423       23.915        0.142      341.563       16.362      858.596
10/30/2014  18:08:00      -82.619       -6.682       -4.456       30.632       25.665       17.529      938.318      658.685      307.271        0.440        0.095       82.888       18.014        0.047      341.449       16.170      858.611
10/30/2014  18:09:00      -61.255      -14.808        0.210       18.829       22.285       13.648      354.549      496.628      186.263        0.250        0.052       63.020        6.972        0.012      341.382       16.056      858.608
10/30/2014  18:10:00      -40.380       -0.946        3.640       18.842       12.073        8.989      355.020      145.758       80.797        0.111        0.029       40.391       10.165        0.063      341.353       16.007      858.607
10/30/2014  18:11:00      -64.512       17.698       -4.768       25.939       19.341       13.391      672.848      374.060      179.313        0.286        0.061       66.896        9.648        0.021      341.408       16.099      858.595
10/30/2014  18:12:00      -48.808       23.283       -9.588       22.735       22.509       14.525      516.862      506.660      210.978        0.213        0.062       54.077       13.199        0.060      341.665       16.536      858.584
10/30/2014  18:13:00      -20.425       14.092       -3.834       15.934       12.090        9.148      253.883      146.161       83.680        0.056        0.024       24.814        5.588        0.051      341.733       16.650      858.580
10/30/2014  18:14:00      -15.613       -4.458       -1.919        9.165        8.080        6.712       84.002       65.281       45.051        0.023        0.010       16.237        5.568        0.118      341.677       16.554      858.564
10/30/2014  18:15:00       14.903      -13.789        5.013        8.922       10.714        8.854       79.597      114.786       78.387        0.036        0.014       20.304        5.631        0.077      341.726       16.638      858.553
10/30/2014  18:16:00        8.004        4.522        4.342        8.513        3.941        8.210       72.476       15.528       67.410        0.013        0.008        9.193        7.160        0.607      341.600       16.424      858.537
10/30/2014  18:17:00       20.232       -0.006        2.177       11.344       10.762        8.438      128.684      115.827       71.194        0.036        0.016       20.232        4.482        0.049      341.358       16.016      858.537
10/30/2014  18:18:00        1.471       19.254        1.818        8.100       11.534        4.502       65.607      133.038       20.267        0.030        0.011       19.310        2.180        0.013      341.643       16.497      858.533
10/30/2014  18:19:00       24.830       13.222        4.535       14.097       13.210       13.772      198.717      174.498      189.681        0.069        0.028       28.131        8.050        0.082      341.470       16.204      858.536
10/30/2014  18:20:00       55.476      -27.498        5.407       23.866       21.323       19.656      569.594      454.685      386.376        0.264        0.071       61.917       13.717        0.049      341.058       15.507      858.526
10/30/2014  18:21:00       35.234       -3.295       19.201       25.602       14.769       13.793      655.482      218.113      190.238        0.134        0.053       35.387        5.306        0.022      341.187       15.726      858.505
10/30/2014  18:22:00       24.290       -7.216       12.000       18.822       16.544       13.920      354.261      273.703      193.779        0.080        0.041       25.339        7.488        0.087      341.122       15.615      858.487
10/30/2014  18:23:00      -22.833      -13.717        0.714       50.471       14.367       11.145     2547.291      206.403      124.212        0.179        0.144       26.636       16.824        0.399      341.150       15.663      858.466
10/30/2014  18:24:00     -144.848      -39.671      -11.995       19.148       13.914        7.973      366.660      193.613       63.563        1.166        0.031      150.182        8.079        0.003      341.136       15.641      858.466
10/30/2014  18:25:00     -176.898      -37.854      -17.406       19.546       16.984       13.867      382.029      288.460      192.286        1.695        0.043      180.902       10.983        0.004      341.184       15.720      858.466
10/30/2014  18:26:00     -124.180      -15.054       -2.650       32.773       35.211       24.028     1074.063     1239.811      577.333        0.927        0.145      125.089       19.249        0.024      341.124       15.621      858.468
10/30/2014  18:27:00     -116.727      -33.739       -3.449       23.910       34.323       15.653      571.683     1178.050      245.007        0.838        0.100      121.506       12.365        0.010      341.283       15.889      858.484
10/30/2014  18:28:00      -95.919      -72.229       -0.105       29.160       31.678       16.900      850.330     1003.506      285.607        0.828        0.107      120.073       18.715        0.024      341.295       15.908      858.484
10/30/2014  18:29:00     -136.798      -65.242       -4.856       18.844       27.520       14.191      355.082      757.329      201.376        1.215        0.066      151.559       10.903        0.005      341.340       15.985      858.500
10/30/2014  18:30:00     -178.541      -48.040      -12.151       30.303       32.572       19.156      918.295     1060.940      366.959        1.834        0.117      184.891       15.798        0.007      341.245       15.823      858.505
10/30/2014  18:31:00     -145.214      -21.638       -4.247       49.443       46.566       29.361     2444.617     2168.381      862.053        1.352        0.274      146.818       29.831        0.041      341.223       15.788      858.527
10/30/2014  18:32:00     -146.820      -30.137      -12.185       44.006       42.208       26.599     1936.537     1781.530      707.508        1.352        0.221      149.881       22.242        0.022      341.173       15.701      858.525
10/30/2014  18:33:00     -192.730      -65.502        0.168       78.853       57.452       36.004     6217.799     3300.737     1296.267        2.612        0.541      203.557       28.998        0.020      341.117       15.606      858.553
10/30/2014  18:34:00     -162.494      -43.685       -9.735       47.920       38.027       25.788     2296.334     1446.029      665.010        1.641        0.220      168.264       22.703        0.018      341.399       16.083      858.546
10/30/2014  18:35:00      -51.368      -23.689        0.977       53.465       32.240       20.071     2858.454     1039.442      402.828        0.375        0.215       56.567       24.393        0.186      341.215       15.774      858.545
10/30/2014  18:36:00       19.459       -6.144       18.265       25.149       20.765       15.626      632.496      431.180      244.179        0.103        0.065       20.406       13.774        0.456      340.907       15.252      858.535
10/30/2014  18:37:00       -1.156      -23.229        9.681       34.391       27.130       11.669     1182.746      736.035      136.159        0.134        0.103       23.257        6.005        0.067      340.972       15.361      858.543
10/30/2014  18:38:00      -18.807      -25.027        4.378       28.466       25.159       16.126      810.323      632.952      260.039        0.135        0.085       31.306        5.870        0.035      341.242       15.818      858.545
10/30/2014  18:39:00       10.101       10.663        4.475       16.989       21.965       11.428      288.629      482.476      130.592        0.057        0.045       14.688        5.617        0.146      341.188       15.724      858.550
10/30/2014  18:40:00      -43.116        0.301       -9.725       28.954       35.875       11.857      838.333     1286.981      140.594        0.211        0.113       43.117        8.245        0.037      341.598       16.422      858.541
10/30/2014  18:41:00      -91.539      -48.613       -9.001       15.656       15.094       10.469      245.109      227.816      109.609        0.570        0.029      103.647        8.808        0.007      341.344       15.990      858.551
10/30/2014  18:42:00      -97.824      -25.554       -7.190       26.458       23.543       17.083      700.034      554.273      291.824        0.591        0.077      101.107       12.329        0.015      341.553       16.344      858.557
10/30/2014  18:43:00      -65.802      -43.251        1.033       23.124       19.762       14.515      534.710      390.529      210.686        0.367        0.057       78.743       12.335        0.025      341.302       15.921      858.560
10/30/2014  18:44:00      -98.196      -40.107       -7.020       32.265       15.442       13.153     1041.037      238.447      173.010        0.638        0.073      106.071       13.038        0.015      341.355       16.009      858.564
10/30/2014  18:45:00     -138.268      -17.041       -9.110       51.846       50.060       25.565     2688.048     2506.044      653.556        1.267        0.292      139.315       30.062        0.047      341.181       15.715      858.568
10/30/2014  18:46:00     -177.254       23.232      -22.331       48.130       45.035       34.124     2316.487     2028.126     1164.439        1.898        0.275      178.770       29.928        0.028      341.265       15.857      858.563
10/30/2014  18:47:00     -107.178       44.340      -10.678       58.045       38.902       25.097     3369.245     1513.353      629.840        0.954        0.276      115.987       24.298        0.044      341.258       15.848      858.518
10/30/2014  18:48:00      -72.980       76.463      -11.891       40.001       29.994       15.327     1600.098      899.632      234.915        0.702        0.137      105.701       13.685        0.017      341.361       16.020      858.494
10/30/2014  18:49:00      -99.583       90.536      -22.161       26.081       32.819       17.363      680.240     1077.059      301.482        1.033        0.103      134.587       14.780        0.012      341.827       16.810      858.457
10/30/2014  18:50:00      -13.932       64.806       -0.490       52.296       36.282       19.004     2734.907     1316.394      361.150        0.440        0.221       66.286       23.510        0.126      341.945       17.012      858.429
10/30/2014  18:51:00        7.381       50.924       -1.452       17.100       31.076       11.816      292.399      965.733      139.624        0.202        0.070       51.457       15.167        0.087      341.689       16.576      858.418
10/30/2014  18:52:00       -5.961        6.171       -6.518       18.740       17.698       14.110      351.171      313.233      199.097        0.049        0.043        8.580       12.525        2.131      341.342       15.987      858.401
10/30/2014  18:53:00      -52.554      -13.347       -5.997       19.294       11.115        7.365      372.252      123.553       54.238        0.176        0.028       54.222        6.621        0.015      341.069       15.527      858.408
10/30/2014  18:54:00      -53.320      -12.306       -5.198       19.419       11.303        8.413      377.090      127.766       70.774        0.180        0.029       54.722        4.308        0.006      341.000       15.410      858.401
10/30/2014  18:55:00        2.476       11.533        2.115       13.216       10.579       10.738      174.670      111.923      115.306        0.027        0.020       11.796       10.379        0.774      340.976       15.369      858.399
10/30/2014  18:56:00       64.741        6.094       20.761       38.709       40.422       25.995     1498.379     1633.961      675.727        0.423        0.190       65.027       23.384        0.129      340.951       15.326      858.391
10/30/2014  18:57:00      -48.340       -6.999       -7.935       46.793       33.390       15.713     2189.587     1114.896      246.911        0.300        0.178       48.844       13.987        0.082      341.313       15.940      858.408
10/30/2014  18:58:00      -28.084      -17.482       -0.203       25.272       18.398       12.412      638.673      338.470      154.057        0.111        0.057       33.080       14.964        0.205      340.927       15.285      858.421
10/30/2014  18:59:00       14.149       10.881        0.053        9.489       14.294        9.751       90.046      204.324       95.086        0.035        0.019       17.849        6.996        0.154      341.156       15.674      858.398
10/30/2014  19:00:00        5.845        1.325        3.015       13.872        7.559        7.966      192.440       57.141       63.457        0.018        0.016        5.993       10.286        2.946      341.129       15.629      858.390
10/30/2014  19:01:00      -22.800      -21.072        3.729       44.278       23.744       15.385     1960.510      563.754      236.710        0.187        0.138       31.047       23.658        0.581      341.202       15.751      858.397
10/30/2014  19:02:00      -75.002      -31.496       -3.600       24.477       13.757        9.475      599.109      189.244       89.774        0.375        0.044       81.347       10.146        0.016      340.941       15.309      858.395
10/30/2014  19:03:00     -118.971       -4.710      -12.199       39.714       31.991       19.995     1577.203     1023.416      399.788        0.866        0.150      119.064       20.321        0.029      341.035       15.469      858.375
10/30/2014  19:04:00      -40.382       23.554       -2.532       25.115       15.975       18.606      630.761      255.214      346.189        0.171        0.062       46.749       17.744        0.144      341.219       15.782      858.344
10/30/2014  19:05:00      -85.490       11.936      -12.561       36.316       12.654       11.709     1318.871      160.128      137.096        0.461        0.081       86.319       15.922        0.034      341.351       16.002      858.324
10/30/2014  19:06:00      -53.663       30.212       -7.860       28.744       21.578       12.299      826.191      465.625      151.273        0.265        0.072       61.583       11.607        0.036      341.909       16.950      858.288
10/30/2014  19:07:00      -72.066       20.039      -14.967       15.683       39.700       11.678      245.944     1576.115      136.383        0.389        0.098       74.800        7.857        0.011      341.830       16.815      858.269
10/30/2014  19:08:00      -61.038      -15.247        2.293       23.722       20.962       11.967      562.739      439.401      143.219        0.255        0.057       62.914        7.641        0.015      340.991       15.393      858.263
10/30/2014  19:09:00      -72.980        2.573       -8.104       37.231       24.605       16.310     1386.136      605.426      266.026        0.383        0.113       73.026       12.746        0.030      341.373       16.041      858.244
10/30/2014  19:10:00      -93.953       -5.852      -12.155       32.500       35.039       20.096     1056.279     1227.724      403.864        0.585        0.134       94.135       15.076        0.026      341.724       16.636      858.239
10/30/2014  19:11:00      -90.558      -11.734       -8.642       30.495       29.348       13.222      929.954      861.306      174.814        0.519        0.098       91.315       10.766        0.014      341.055       15.503      858.247
10/30/2014  19:12:00      -40.359      -15.959       -5.722       16.308       18.471       12.947      265.962      341.190      167.623        0.135        0.039       43.400       10.702        0.061      340.993       15.398      858.246
10/30/2014  19:13:00      -62.814       -0.321      -11.013       26.436       23.292       13.801      698.861      542.514      190.459        0.275        0.072       62.815       11.815        0.035      341.318       15.948      858.236
10/30/2014  19:14:00      -68.125       22.602      -10.665       17.756       32.783       12.390      315.279     1074.714      153.516        0.340        0.077       71.777       12.473        0.030      341.490       16.241      858.241
10/30/2014  19:15:00      -86.229       22.320       -2.518       45.247       43.117       22.869     2047.277     1859.093      522.979        0.618        0.221       89.071       19.735        0.049      341.775       16.723      858.233
10/30/2014  19:16:00      -65.444        0.287        3.470       36.475       35.808       16.171     1330.447     1282.190      261.517        0.358        0.144       65.444       17.539        0.072      341.573       16.379      858.235
10/30/2014  19:17:00      -93.424      -20.791       -1.774       51.349       23.551       19.100     2636.742      554.648      364.793        0.636        0.178       95.709       23.568        0.061      341.781       16.732      858.238
10/30/2014  19:18:00      -16.573       10.575       13.256       14.540       15.701       16.541      211.398      246.509      273.595        0.065        0.037       19.659        8.706        0.196      341.297       15.911      858.228
10/30/2014  19:19:00       -2.788       11.239       10.615       24.311       25.769       15.502      591.036      664.059      240.298        0.087        0.075       11.580       15.925        1.891      341.433       16.142      858.219
10/30/2014  19:20:00      -57.671      -43.055        3.594       33.338       31.440       21.365     1111.437      988.483      456.480        0.387        0.128       71.970       18.805        0.068      341.359       16.017      858.229
10/30/2014  19:21:00      -39.095      -33.084        3.749       44.796       42.809       20.640     2006.722     1832.632      426.023        0.345        0.213       51.215       19.577        0.146      341.429       16.136      858.241
10/30/2014  19:22:00     -104.939      -79.992        4.264       42.505       36.000       27.197     1806.711     1296.033      739.681        1.064        0.192      131.951       24.418        0.034      341.808       16.778      858.249
10/30/2014  19:23:00      -52.437      -64.547       12.943       61.019       49.769       31.175     3723.325     2476.994      971.888        0.713        0.359       83.162       32.817        0.156      341.892       16.920      858.257
10/30/2014  19:24:00      -56.575      -71.139        0.712       36.914       40.123       21.578     1362.653     1609.868      465.608        0.585        0.172       90.893       20.501        0.051      342.013       17.125      858.255
10/30/2014  19:25:00      -52.358      -98.096        3.079       22.563       34.398       16.614      509.078     1183.247      276.028        0.717        0.098      111.195       14.424        0.017      342.147       17.352      858.273
10/30/2014  19:26:00      -18.187      -99.476       14.328       26.205       44.419       20.937      686.694     1973.052      438.376        0.676        0.155      101.125       17.705        0.031      342.093       17.261      858.298
10/30/2014  19:27:00       -9.821      -76.848       10.901       29.465       61.573       19.490      868.210     3791.193      379.843        0.558        0.252       77.473       20.292        0.069      342.124       17.313      858.276
10/30/2014  19:28:00      -13.591      -60.230        2.783       32.779       32.249       21.396     1074.473     1040.023      457.787        0.320        0.129       61.744       12.509        0.041      341.845       16.839      858.285
10/30/2014  19:29:00      -22.380      -93.644       -3.705       21.564       31.843       18.297      465.014     1013.964      334.793        0.555        0.091       96.281       11.542        0.014      342.122       17.310      858.303
10/30/2014  19:30:00       -0.613      -31.097       17.231       21.079       26.496       20.716      444.308      702.058      429.166        0.142        0.079       31.103       13.816        0.197      341.721       16.630      858.316
10/30/2014  19:31:00       26.533      -22.181        7.191       31.369       22.468       25.877      983.991      504.818      669.596        0.170        0.108       34.583       18.527        0.287      341.117       15.607      858.320
10/30/2014  19:32:00       15.167      -33.436       -2.972       34.579       32.847       31.259     1195.741     1078.955      977.097        0.230        0.163       36.715       27.903        0.578      340.897       15.235      858.338
10/30/2014  19:33:00       14.934       11.587       35.354       32.002       19.931       23.822     1024.152      397.230      567.474        0.180        0.099       18.902       14.668        0.602      340.988       15.389      858.338
10/30/2014  19:34:00       42.015        6.111       34.145       54.257       52.044       43.150     2943.845     2708.564     1861.880        0.524        0.376       42.457       40.726        0.920      340.664       14.840      858.306
10/30/2014  19:35:00        3.677       17.409       63.771       48.859       71.329       57.779     2387.153     5087.869     3338.408        0.760        0.541       17.793       56.928       10.237      340.901       15.242      858.285
10/30/2014  19:36:00       79.551      -84.967       -2.175       47.637       54.857       31.317     2269.331     3009.254      980.770        0.990        0.313      116.395       27.288        0.055      341.365       16.026      858.323
10/30/2014  19:37:00      122.192     -109.935        2.225       70.606       61.884       40.646     4985.248     3829.683     1652.097        1.874        0.523      164.367       35.308        0.046      341.295       15.906      858.315
10/30/2014  19:38:00        0.992      -71.633       26.750       47.256       79.209       52.047     2233.094     6274.017     2708.860        0.853        0.561       71.640       50.437        0.496      341.211       15.766      858.312
10/30/2014  19:39:00       61.474      -42.154       11.591       52.121       69.959       44.849     2716.645     4894.329     2011.414        0.765        0.481       74.539       48.799        0.429      341.206       15.758      858.308
10/30/2014  19:40:00        8.844       24.165       52.140       25.832       39.964       21.880      667.291     1597.104      478.747        0.306        0.137       25.733        9.771        0.144      340.764       15.010      858.280
10/30/2014  19:41:00       45.580      -31.507       11.738       46.594       56.698       30.775     2170.961     3214.652      947.087        0.477        0.317       55.410       35.257        0.405      340.989       15.391      858.270
10/30/2014  19:42:00       63.660      -55.497       11.836       55.600       62.018       35.360     3091.374     3846.211     1250.355        0.773        0.409       84.455       40.668        0.232      341.095       15.568      858.251
10/30/2014  19:43:00       98.824      -47.787        9.573       48.245       57.571       39.568     2327.591     3314.415     1565.595        0.967        0.360      109.771       36.921        0.113      341.253       15.837      858.221
10/30/2014  19:44:00       19.030      -25.073       22.837       36.939       41.531       29.380     1364.472     1724.848      863.167        0.273        0.198       31.477       23.222        0.544      340.880       15.204      858.198
10/30/2014  19:45:00       48.693       -6.352       18.616       48.030       34.707       33.154     2306.868     1204.601     1099.184        0.368        0.231       49.105       27.616        0.316      340.843       15.144      858.216
10/30/2014  19:46:00       18.050       36.138       52.245       39.449       41.107       26.693     1556.196     1689.765      712.507        0.416        0.198       40.395       25.287        0.392      340.743       14.975      858.223
10/30/2014  19:47:00       28.679      -65.332       14.919       43.188       60.218       42.448     1865.230     3626.160     1801.792        0.630        0.365       71.349       31.640        0.197      341.333       15.973      858.251
10/30/2014  19:48:00       31.474      -53.187       26.003       53.462       60.239       32.350     2858.205     3628.787     1046.540        0.601        0.377       61.801       31.154        0.254      341.263       15.855      858.258
10/30/2014  19:49:00       27.865      -51.798        0.129       29.911       32.228       23.913      894.686     1038.650      571.808        0.298        0.125       58.818       18.777        0.102      341.049       15.492      858.266
10/30/2014  19:50:00       16.939      -15.862       15.399       29.034       52.441       31.088      842.949     2750.050      966.457        0.267        0.228       23.206       28.575        1.516      340.881       15.209      858.257
10/30/2014  19:51:00       14.747      -28.206       13.016       33.638       23.099       24.853     1131.537      533.582      617.670        0.173        0.114       31.828       24.247        0.580      340.848       15.151      858.256
10/30/2014  19:52:00       43.717      -17.204       11.785       34.616       24.367       23.424     1198.298      593.742      548.663        0.234        0.117       46.981       15.009        0.102      340.661       14.837      858.269
10/30/2014  19:53:00       14.528      -13.868        7.616       19.179       18.414       15.361      367.820      339.084      235.962        0.070        0.047       20.085       10.497        0.273      340.607       14.744      858.283
10/30/2014  19:54:00       21.654      -17.051        6.525       20.470       20.198       16.112      419.026      407.955      259.611        0.094        0.054       27.562       13.647        0.245      340.480       14.529      858.296
10/30/2014  19:55:00        8.208       -5.852       21.238       29.519       31.270       20.908      871.355      977.802      437.140        0.142        0.114       10.080       15.720        2.432      340.840       15.138      858.299
10/30/2014  19:56:00        9.088      -24.818       13.120       20.460       26.559       24.152      418.615      705.371      583.314        0.129        0.085       26.430       22.416        0.719      340.822       15.108      858.302
10/30/2014  19:57:00      -15.110      -18.163        6.306       18.741       20.723       11.409      351.244      429.435      130.156        0.075        0.046       23.627        9.691        0.168      341.196       15.741      858.314
10/30/2014  19:58:00      -17.198      -27.131        0.341       19.638       27.376       13.616      385.660      749.433      185.388        0.118        0.066       32.122        9.554        0.088      341.320       15.951      858.322
10/30/2014  19:59:00      -49.831      -71.967       -1.225       42.996       32.288       19.367     1848.623     1042.532      375.098        0.546        0.163       87.535       16.398        0.035      341.693       16.583      858.317
10/30/2014  20:00:00      -60.382     -133.764       -2.631       30.986       35.586       18.499      960.119     1266.379      342.217        1.206        0.128      146.761       14.441        0.010      341.794       16.754      858.315
10/30/2014  20:01:00      -62.971     -110.898       -5.941       34.646       47.778       15.513     1200.361     2282.695      240.668        1.001        0.186      127.529       15.589        0.015      341.755       16.689      858.322
10/30/2014  20:02:00        1.525        5.312        3.148       34.091       35.119       19.371     1162.211     1233.376      375.239        0.141        0.139        5.527       21.465       15.083      341.362       16.022      858.333
10/30/2014  20:03:00       19.052      -65.858       11.181       40.494       45.681       32.114     1639.753     2086.754     1031.288        0.479        0.238       68.559       21.021        0.094      341.463       16.195      858.356
10/30/2014  20:04:00        2.152      -76.390        6.750       50.576       59.297       29.451     2557.925     3516.167      867.371        0.641        0.347       76.421       28.653        0.141      341.332       15.971      858.369
10/30/2014  20:05:00      -34.525     -108.506       -7.724       46.118       45.932       28.920     2126.876     2109.736      836.356        0.905        0.254      113.866       20.814        0.033      341.706       16.606      858.387
10/30/2014  20:06:00      -14.232      -54.775        6.086       46.989       34.208       23.876     2207.927     1170.204      570.063        0.359        0.197       56.593       14.590        0.066      341.571       16.377      858.385
10/30/2014  20:07:00      -29.674      -80.812        1.154       41.764       72.333       22.286     1744.225     5232.049      496.680        0.744        0.374       86.088       16.991        0.039      341.516       16.282      858.375
10/30/2014  20:08:00      -92.995     -184.200      -11.500       34.179       40.961       23.975     1168.192     1677.834      574.806        2.306        0.171      206.344       16.348        0.006      341.610       16.440      858.357
10/30/2014  20:09:00      -79.298     -129.598       -2.777       43.344       51.012       20.760     1878.731     2602.257      430.972        1.400        0.246      151.933       16.759        0.012      341.591       16.407      858.363
10/30/2014  20:10:00     -103.667     -142.577       -4.275       38.459       47.902       26.380     1479.122     2294.596      695.902        1.778        0.223      176.281       17.185        0.010      341.573       16.378      858.364
10/30/2014  20:11:00      -56.183     -106.762        5.912       66.214       78.446       35.601     4384.245     6153.803     1267.431        1.320        0.590      120.643       35.523        0.087      341.627       16.470      858.367
10/30/2014  20:12:00      -29.331      -75.857       -4.917       47.963       40.445       27.861     2300.418     1635.802      776.226        0.567        0.236       81.330       20.170        0.062      341.691       16.579      858.368
10/30/2014  20:13:00     -101.186      -92.977        4.150       83.510       61.836       35.453     6973.957     3823.724     1256.940        1.548        0.603      137.417       38.242        0.077      341.720       16.628      858.396
10/30/2014  20:14:00     -103.893     -157.053       -8.701       56.338       47.195       24.721     3174.017     2227.369      611.132        2.077        0.301      188.307       29.054        0.024      341.684       16.566      858.401
10/30/2014  20:15:00      -25.744     -150.379      -10.376       78.688       81.782       41.841     6191.853     6688.242     1750.637        1.900        0.732      152.567       23.385        0.023      341.752       16.681      858.403
10/30/2014  20:16:00      -96.298     -170.766      -10.012      124.797       84.549       44.302    15574.407     7148.556     1962.628        3.161        1.234      196.047       20.109        0.011      341.925       16.975      858.391
10/30/2014  20:17:00      -88.793     -178.332        4.766       81.113       82.526       43.535     6579.252     6810.539     1895.253        2.749        0.764      199.215       47.144        0.056      342.106       17.282      858.396
10/30/2014  20:18:00      -43.353      -32.655       11.023       43.289       36.310       26.409     1873.937     1318.395      697.429        0.348        0.194       54.275       25.114        0.214      341.832       16.818      858.402
10/30/2014  20:19:00      -76.478      -15.283       -1.630       37.358       30.349       24.522     1395.624      921.045      601.337        0.450        0.146       77.990       12.142        0.024      341.801       16.766      858.403
10/30/2014  20:20:00       -8.293       -7.020        0.657       25.763       38.023       30.592      663.753     1445.744      935.863        0.158        0.152       10.865       23.675        4.748      341.542       16.327      858.396
10/30/2014  20:21:00      -46.492      -55.258       16.110       43.946       32.650       28.895     1931.292     1066.008      834.912        0.465        0.192       72.215       16.521        0.052      341.783       16.737      858.403
10/30/2014  20:22:00      -16.400        0.903       11.555       28.184       22.788       20.767      794.355      519.272      431.272        0.107        0.087       16.425       20.243        1.519      341.449       16.170      858.410
10/30/2014  20:23:00       13.975      -39.888        6.151       54.461       43.847       34.051     2966.029     1922.544     1159.447        0.393        0.302       42.265       30.288        0.514      341.557       16.351      858.372
10/30/2014  20:24:00       62.309      -69.925       -1.005       63.005       63.124       49.681     3969.654     3984.660     2468.178        0.960        0.521       93.658       49.469        0.279      341.556       16.348      858.347
10/30/2014  20:25:00        7.255      -65.816        1.144       42.729       45.602       43.091     1825.745     2079.550     1856.841        0.507        0.288       66.215       28.122        0.180      341.546       16.335      858.368
10/30/2014  20:26:00      -44.967     -114.269        0.886       64.707       74.948       39.630     4186.936     5617.243     1570.564        1.323        0.569      122.798       42.343        0.119      341.854       16.854      858.385
10/30/2014  20:27:00      -17.291      -11.694       16.843       38.078       40.219       21.429     1449.910     1617.535      459.208        0.212        0.176       20.874       22.304        1.142      341.647       16.505      858.405
10/30/2014  20:28:00      -14.590     -133.871        9.154       51.001       63.945       27.624     2601.064     4089.002      763.083        1.283        0.373      134.664        9.400        0.005      341.979       17.067      858.418
10/30/2014  20:29:00      -93.381     -163.956       -1.917       37.524       48.846       25.500     1408.044     2385.888      650.273        2.002        0.222      188.684       22.456        0.014      342.014       17.126      858.414
10/30/2014  20:30:00     -100.875     -195.020        0.740       46.673       47.326       32.811     2178.396     2239.730     1076.570        2.685        0.275      219.565       30.946        0.020      342.062       17.206      858.420
10/30/2014  20:31:00      -84.562     -153.222       -4.459       53.160       72.418       33.577     2826.019     5244.429     1127.410        1.992        0.460      175.008       26.993        0.024      342.187       17.419      858.410
10/30/2014  20:32:00      -60.238     -139.267        9.986       61.372       91.167       36.593     3766.492     8311.403     1339.042        1.827        0.671      151.736       44.943        0.088      342.282       17.581      858.397
10/30/2014  20:33:00     -101.501     -190.422       -4.540       51.482       42.904       29.610     2650.366     1840.742      876.755        2.597        0.268      215.785       25.925        0.014      342.429       17.828      858.388
10/30/2014  20:34:00      -38.852     -114.966        3.111       51.588       44.213       34.687     2661.356     1954.781     1203.176        1.028        0.291      121.354       31.427        0.067      342.335       17.672      858.386
10/30/2014  20:35:00     -125.860     -103.110       -1.906       77.427       94.312       40.838     5994.960     8894.754     1667.778        2.151        0.828      162.703       40.701        0.063      342.173       17.396      858.386
10/30/2014  20:36:00     -131.275     -149.463      -17.608       96.185       93.358       48.029     9251.515     8715.698     2306.752        3.007        1.014      198.928       44.769        0.051      342.165       17.381      858.383
10/30/2014  20:37:00      -61.037     -130.072        8.575       42.201      125.620       35.297     1780.929    15780.294     1245.865        1.976        0.940      143.681       21.711        0.023      342.139       17.338      858.371
10/30/2014  20:38:00     -115.859     -116.058        3.816       77.081       62.042       41.478     5941.432     3849.190     1720.445        1.921        0.576      163.990       36.372        0.049      342.261       17.545      858.363
10/30/2014  20:39:00     -115.874     -101.748       -4.683       67.456       50.913       30.639     4550.247     2592.142      938.746        1.594        0.404      154.206       27.093        0.031      342.284       17.586      858.358
10/30/2014  20:40:00     -187.165     -135.007        0.683      103.045       72.713       42.410    10618.307     5287.145     1798.650        3.548        0.885      230.776       46.300        0.040      342.153       17.360      858.350
10/30/2014  20:41:00     -189.079      -86.562       -2.411       70.109       41.106       32.205     4915.242     1689.705     1037.165        2.544        0.382      207.951       35.328        0.029      342.033       17.156      858.330
10/30/2014  20:42:00     -131.678      -31.385       -3.084       71.231       69.840       34.368     5073.899     4877.648     1181.186        1.473        0.557      135.366       36.661        0.073      341.840       16.831      858.310
10/30/2014  20:43:00     -119.480      -16.232       -8.933       47.024       31.386       22.165     2211.257      985.109      491.281        0.915        0.184      120.577       15.414        0.016      341.911       16.954      858.281
10/30/2014  20:44:00      -62.115      -35.694        0.178       57.319       30.369       24.586     3285.466      922.306      604.495        0.497        0.241       71.640       28.595        0.159      341.752       16.684      858.273
10/30/2014  20:45:00      -34.960      -33.028       13.518       46.618       37.696       32.430     2173.223     1420.959     1051.696        0.357        0.232       48.094       32.580        0.459      341.943       17.008      858.274
10/30/2014  20:46:00     -118.777      -52.246       -0.679       71.404       52.291       24.804     5098.476     2734.379      615.216        1.264        0.422      129.760       21.495        0.027      341.946       17.011      858.264
10/30/2014  20:47:00     -132.249      -78.530        1.091       61.092       47.400       33.802     3732.201     2246.735     1142.565        1.539        0.356      153.807       28.799        0.035      341.970       17.053      858.272
10/30/2014  20:48:00     -180.387     -101.310        3.041       74.254       57.312       39.819     5513.656     3284.655     1585.552        2.660        0.519      206.889       40.132        0.038      341.922       16.968      858.282
10/30/2014  20:49:00     -123.462      -55.975       -5.934       51.334       54.513       23.357     2635.230     2971.685      545.556        1.228        0.308      135.558       21.333        0.025      342.419       17.815      858.256
10/30/2014  20:50:00     -105.376      -42.391       -2.564       47.510       53.648       26.853     2257.182     2878.126      721.082        0.938        0.293      113.583       28.286        0.062      342.411       17.802      858.226
10/30/2014  20:51:00     -108.158      -99.020       -3.614       71.454       49.436       27.615     5105.690     2443.946      762.588        1.491        0.416      146.640       28.618        0.038      342.278       17.575      858.238
10/30/2014  20:52:00     -174.796      -75.107      -15.211       62.194       55.179       35.503     3868.127     3044.701     1260.466        2.230        0.409      190.249       28.109        0.022      342.399       17.778      858.225
10/30/2014  20:53:00     -127.276      -95.804       -6.880       56.785       49.597       31.925     3224.564     2459.851     1019.197        1.606        0.335      159.303       31.109        0.038      342.339       17.678      858.226
10/30/2014  20:54:00      -88.862      -59.919       13.676       74.846       73.807       39.974     5601.960     5447.496     1597.905        1.216        0.632      107.176       36.422        0.115      342.157       17.368      858.226
10/30/2014  20:55:00      -74.144        8.463        7.240       73.851       49.335       36.034     5453.998     2433.952     1298.423        0.740        0.459       74.625       30.356        0.165      341.973       17.058      858.228
10/30/2014  20:56:00      -27.492       25.665        5.813       33.136       23.634       21.158     1097.968      558.580      447.673        0.178        0.105       37.610       11.403        0.092      341.774       16.719      858.221
10/30/2014  20:57:00        8.852      -31.114       -2.894       34.517       24.591       14.060     1191.442      604.695      197.692        0.152        0.100       32.349       10.175        0.099      341.779       16.729      858.238
10/30/2014  20:58:00       56.885      -20.033       20.635       45.903       40.220       28.255     2107.131     1617.615      798.338        0.429        0.226       60.309       26.667        0.196      341.343       15.991      858.230
10/30/2014  20:59:00       33.804      -92.215       11.112       39.135       59.046       34.556     1531.537     3486.395     1194.147        0.799        0.311       98.216       31.305        0.102      341.915       16.959      858.236
10/30/2014  21:00:00      -56.200     -115.140      -11.991       67.509       67.562       37.471     4557.431     4564.610     1404.096        1.354        0.526      128.124       41.366        0.104      342.366       17.727      858.237
10/30/2014  21:01:00       26.229      -22.028       24.669       42.859       52.358       31.035     1836.866     2741.346      963.193        0.366        0.277       34.252       31.912        0.868      341.855       16.857      858.243
10/30/2014  21:02:00       33.917        4.832       23.477       43.372       30.901       26.405     1881.115      954.890      697.234        0.263        0.177       34.259       26.189        0.584      341.181       15.717      858.218
10/30/2014  21:03:00       24.687       31.475       53.669       43.184       43.083       42.319     1864.851     1856.175     1790.863        0.500        0.276       40.001       32.159        0.646      341.196       15.741      858.193
10/30/2014  21:04:00       29.664      -48.931       25.848       36.944       80.949       42.600     1364.888     6552.660     1814.731        0.684        0.487       57.220       38.695        0.457      341.670       16.542      858.192
10/30/2014  21:05:00       34.479      -52.475       -0.456       45.022       63.454       41.031     2026.984     4026.443     1683.569        0.584        0.387       62.789       35.913        0.327      342.006       17.114      858.211
10/30/2014  21:06:00      -68.886     -132.648      -13.353       52.940       37.063       29.990     2802.689     1373.686      899.412        1.380        0.254      149.468       19.234        0.017      342.286       17.589      858.238
10/30/2014  21:07:00      -27.067      -81.642        4.425       32.355       67.994       24.333     1046.856     4623.209      592.110        0.684        0.313       86.012       18.233        0.045      342.276       17.571      858.219
10/30/2014  21:08:00       15.499      -20.147       13.277       53.174       35.731       26.552     2827.516     1276.682      704.982        0.281        0.240       25.419       25.695        1.022      341.958       17.033      858.204
10/30/2014  21:09:00       64.934       -1.088       20.545       48.772       52.884       37.220     2378.697     2796.699     1385.321        0.560        0.328       64.943       36.664        0.319      341.391       16.073      858.203
10/30/2014  21:10:00       -2.639       54.180       71.111       32.268       60.258       36.135     1041.224     3631.072     1305.733        0.699        0.299       54.244       39.302        0.525      341.240       15.816      858.165
10/30/2014  21:11:00       19.704      -66.442       50.901       78.297       96.731       62.406     6130.406     9356.815     3894.498        1.338        0.969       69.302       65.644        0.897      341.761       16.696      858.154
10/30/2014  21:12:00        1.253      -57.854       27.851       70.750       90.184       54.430     5005.515     8133.094     2962.639        1.011        0.805       57.868       54.758        0.895      342.012       17.124      858.190
10/30/2014  21:13:00      -59.826      -51.122       -5.245       41.167       34.536       22.350     1694.724     1192.718      499.540        0.480        0.169       78.693       12.708        0.026      341.800       16.764      858.227
10/30/2014  21:14:00      -44.897      -47.305       18.465       30.435       31.667       23.256      926.304     1002.818      540.821        0.353        0.123       65.219       17.686        0.074      341.902       16.936      858.246
10/30/2014  21:15:00       25.194      -54.002       16.566       67.475       69.231       40.333     4552.832     4792.937     1626.730        0.740        0.549       59.590       39.784        0.446      341.916       16.962      858.251
10/30/2014  21:16:00       19.267      -27.028       10.783       43.890       60.442       26.373     1926.312     3653.258      695.548        0.375        0.314       33.192       25.279        0.580      341.581       16.393      858.248
10/30/2014  21:17:00        4.711      -34.473        4.993       20.079       42.011       17.765      403.158     1764.898      315.582        0.186        0.124       34.794        7.580        0.047      341.404       16.092      858.260
10/30/2014  21:18:00       -5.788       23.525        3.168       33.364       34.589       27.456     1113.145     1196.392      753.817        0.183        0.153       24.227       26.635        1.209      341.313       15.939      858.289
10/30/2014  21:19:00      -24.720       48.557       -7.597       22.411       30.801       16.678      502.252      948.725      278.156        0.238        0.086       54.487       18.081        0.110      341.526       16.301      858.305
10/30/2014  21:20:00      -42.036       32.537       -9.994       17.919       17.607        8.588      321.077      310.024       73.747        0.182        0.035       53.157        5.288        0.010      341.780       16.729      858.294
10/30/2014  21:21:00      -87.812       55.608      -20.226       23.346       18.703       11.285      545.042      349.787      127.344        0.612        0.051      103.938       12.297        0.014      341.692       16.581      858.281
10/30/2014  21:22:00      -91.203       -2.454      -14.149       37.689       43.616       16.908     1420.473     1902.391      285.869        0.607        0.180       91.236       15.179        0.028      341.738       16.659      858.279
10/30/2014  21:23:00     -131.431     -112.487       -3.837      121.312       63.489       38.484    14716.624     4030.849     1481.043        2.508        1.011      172.995       49.950        0.083      341.852       16.851      858.303
10/30/2014  21:24:00     -172.016     -112.124      -18.992       90.058       84.434       47.190     8110.402     7129.038     2226.864        2.999        0.873      205.332       44.450        0.047      342.262       17.547      858.286
10/30/2014  21:25:00      -16.039     -126.528       14.711       85.305       92.431       50.561     7276.972     8543.517     2556.426        1.743        0.919      127.541       48.599        0.145      342.268       17.557      858.266
10/30/2014  21:26:00      -54.425     -271.208        0.953       64.093       97.870       33.420     4107.913     9578.585     1116.897        4.566        0.740      276.615       17.383        0.004      342.331       17.663      858.268
10/30/2014  21:27:00      -76.562     -197.936       -7.309       56.636       75.651       38.745     3207.654     5723.036     1501.158        2.776        0.522      212.228       28.557        0.018      342.350       17.696      858.254
10/30/2014  21:28:00      -70.733      -84.831       -3.500       32.275       51.734       32.113     1041.674     2676.424     1031.273        0.848        0.237      110.451       29.792        0.073      342.289       17.594      858.234
10/30/2014  21:29:00      -10.904      -78.270        0.909       41.369       42.736       23.536     1711.364     1826.368      553.920        0.517        0.205       79.026       19.234        0.059      342.229       17.492      858.190
10/30/2014  21:30:00      -55.491      -79.971       -4.937       37.819       51.154       31.574     1430.240     2616.735      996.940        0.727        0.252       97.338       26.823        0.076      342.240       17.510      858.177
10/30/2014  21:31:00      -40.640      -79.523        2.313       39.407       40.425       24.220     1552.939     1634.214      586.615        0.588        0.189       89.306       25.695        0.083      342.006       17.113      858.215
10/30/2014  21:32:00      -62.670      -28.554        7.869       72.868       48.625       24.842     5309.756     2364.350      617.115        0.655        0.415       68.869       20.796        0.091      341.923       16.973      858.234
10/30/2014  21:33:00      -89.320      -90.109        2.649       76.064       50.954       34.076     5785.735     2596.289     1161.185        1.282        0.477      126.876       42.277        0.111      341.815       16.790      858.265
10/30/2014  21:34:00     -109.432      -27.795        0.252       68.723       54.092       27.265     4722.782     2925.896      743.395        1.057        0.420      112.907       28.690        0.065      341.873       16.888      858.249
10/30/2014  21:35:00     -131.732     -127.773        5.533       76.397       80.226       42.078     5836.449     6436.245     1770.572        2.387        0.702      183.520       33.940        0.034      341.976       17.061      858.292
10/30/2014  21:36:00       25.546      -29.004       41.570       63.754       88.443       49.487     4064.510     7822.241     2449.009        0.878        0.717       38.651       54.834        2.013      341.089       15.560      858.296
10/30/2014  21:37:00       51.870       21.289       63.586       83.352       58.665       51.546     6947.619     3441.546     2656.999        1.011        0.652       56.069       49.404        0.776      340.390       14.376      858.285
10/30/2014  21:38:00       73.099       30.815       36.878       43.207       66.282       44.150     1866.881     4393.285     1949.179        0.793        0.410       79.329       37.664        0.225      340.334       14.283      858.254
10/30/2014  21:39:00       33.532      -43.398        0.065       55.094       63.519       45.174     3035.345     4034.666     2040.676        0.606        0.456       54.844       36.407        0.441      340.308       14.240      858.239
10/30/2014  21:40:00       65.282     -123.828      -10.340       58.956       59.553       37.262     3475.865     3546.573     1388.480        1.405        0.421      139.983       25.276        0.033      340.815       15.094      858.258
10/30/2014  21:41:00       76.012        1.683        8.682       50.510       59.768       33.454     2551.243     3572.261     1119.143        0.655        0.362       76.031       26.727        0.124      340.693       14.891      858.246
10/30/2014  21:42:00       56.293        8.024       17.574       37.629       49.375       37.932     1415.969     2437.884     1438.829        0.442        0.265       56.862       32.978        0.336      340.431       14.447      858.238
10/30/2014  21:43:00       48.799       39.543       47.517       49.953       44.272       38.133     2495.327     1960.002     1454.149        0.605        0.295       62.809       33.039        0.277      340.204       14.063      858.212
10/30/2014  21:44:00       32.783      -33.129       13.162       33.912       35.700       34.983     1150.036     1274.488     1223.814        0.300        0.182       46.608       23.308        0.250      340.112       13.909      858.210
10/30/2014  21:45:00       15.548      -44.933       -9.183       35.165       32.279       24.970     1236.561     1041.910      623.492        0.262        0.145       47.547       16.807        0.125      340.069       13.836      858.206
10/30/2014  21:46:00        6.900      -24.399       -7.286       44.236       19.106       24.407     1956.861      365.023      595.703        0.181        0.146       25.356       24.427        0.928      340.190       14.039      858.189
10/30/2014  21:47:00      -40.154        1.131       -8.855       19.413       14.234        8.145      376.881      202.601       66.334        0.117        0.032       40.169        5.245        0.017      340.598       14.729      858.198
10/30/2014  21:48:00       21.470       36.910       20.543       35.161       16.352       15.580     1236.262      267.378      242.750        0.200        0.087       42.700       20.124        0.222      340.639       14.799      858.189
10/30/2014  21:49:00       63.164       54.867        5.982       20.652       29.513       20.617      426.507      871.037      425.054        0.438        0.086       83.666       17.661        0.045      340.418       14.424      858.164
10/30/2014  21:50:00       81.088       68.831       31.700       24.722       25.364       22.846      611.171      643.328      521.935        0.705        0.089      106.363       10.657        0.010      340.354       14.316      858.145
10/30/2014  21:51:00       40.234       -1.825       10.390       26.587       32.953       20.729      706.878     1085.910      429.682        0.198        0.111       40.275       12.971        0.104      340.320       14.258      858.173
10/30/2014  21:52:00      -72.602      -38.321        0.647       65.922       28.282       18.897     4345.729      799.851      357.081        0.612        0.275       82.094       26.066        0.101      340.422       14.432      858.226
10/30/2014  21:53:00      -52.015       -7.777       -2.590       58.859       18.923       19.505     3464.380      358.065      380.455        0.349        0.210       52.593       30.600        0.339      340.467       14.507      858.240
10/30/2014  21:54:00       33.191        1.335       24.151       41.769       35.628       28.856     1744.680     1269.322      832.655        0.277        0.192       33.218       26.714        0.647      340.007       13.730      858.257
10/30/2014  21:55:00       10.866       31.020       51.895       42.060       44.720       39.158     1769.046     1999.834     1533.352        0.454        0.265       32.868       32.739        0.992      339.964       13.658      858.249
10/30/2014  21:56:00       66.733      -39.032       19.764       52.528       44.538       36.352     2759.167     1983.674     1321.456        0.621        0.303       77.310       37.993        0.242      340.043       13.791      858.250
10/30/2014  21:57:00       30.259       20.152       39.159       34.232       24.723       20.679     1171.855      611.250      427.624        0.253        0.111       36.355       15.921        0.192      340.007       13.731      858.246
10/30/2014  21:58:00      -21.359       47.693       -5.931       34.471       28.834       19.050     1188.228      831.394      362.900        0.257        0.119       52.258       17.770        0.116      340.286       14.202      858.205
10/30/2014  21:59:00      -56.967       28.960      -10.196       24.455       15.317       14.971      598.027      234.613      224.127        0.262        0.053       63.906       10.973        0.029      340.341       14.293      858.192
10/30/2014  22:00:00       23.662      -13.328       -2.636       12.442       22.442       15.842      154.813      503.625      250.956        0.083        0.045       27.157       10.094        0.138      340.313       14.248      858.212
10/30/2014  22:01:00       49.181      -56.572       -6.053       25.046       27.306       19.847      627.282      745.594      393.917        0.371        0.088       74.961       13.063        0.030      340.146       13.964      858.249
10/30/2014  22:02:00      101.717     -108.145       -8.006       42.385       38.617       22.881     1796.508     1491.267      523.536        1.296        0.191      148.464       22.209        0.022      340.861       15.173      858.312
10/30/2014  22:03:00       39.219      -54.533       -3.983       46.902       59.594       35.549     2199.787     3551.490     1263.700        0.577        0.351       67.171       35.724        0.283      340.829       15.119      858.316
10/30/2014  22:04:00       11.480       -5.714       10.303       43.360       39.619       27.353     1880.049     1569.669      748.199        0.223        0.210       12.823       15.810        1.520      340.532       14.616      858.271
10/30/2014  22:05:00      -48.474       21.467        2.094       36.056       19.711       13.722     1300.039      388.531      188.285        0.235        0.094       53.014       15.818        0.089      340.595       14.725      858.219
10/30/2014  22:06:00       53.885       50.981        0.471       22.222       32.582       19.699      493.829     1061.569      388.063        0.372        0.097       74.180       16.051        0.047      340.616       14.761      858.155
10/30/2014  22:07:00       24.019       33.007       -9.493       18.293       47.064       11.638      334.628     2214.997      135.432        0.222        0.134       40.821       14.650        0.129      340.758       14.999      858.142
10/30/2014  22:08:00       26.843      -74.477        7.955       37.009       41.819       29.518     1369.635     1748.862      871.284        0.516        0.199       79.167       25.613        0.105      340.803       15.075      858.258
10/30/2014  22:09:00       14.955      -11.295       -3.467       45.587       58.319       26.849     2078.178     3401.057      720.895        0.328        0.310       18.741       18.117        0.934      340.821       15.108      858.240
10/30/2014  22:10:00       62.717       28.757       -5.979       36.300       45.972       27.901     1317.714     2113.424      778.459        0.450        0.210       68.995       28.682        0.173      340.149       13.971      858.147
10/30/2014  22:11:00        9.120      -60.234       -3.449       22.695       28.581       20.436      515.056      816.892      417.620        0.274        0.087       60.921       18.038        0.088      339.957       13.647      858.240
10/30/2014  22:12:00      -51.188      -76.435       -2.012       33.737       35.668       16.161     1138.207     1272.171      261.170        0.557        0.134       91.992       11.680        0.016      340.684       14.876      858.283
10/30/2014  22:13:00      -32.632      -23.240       22.596       38.898       59.380       30.077     1513.055     3525.960      904.652        0.403        0.297       40.062       41.709        1.084      340.728       14.949      858.259
10/30/2014  22:14:00      -38.104      -23.757       19.157       42.118       27.348       18.714     1773.939      747.920      350.201        0.263        0.144       44.903       11.568        0.066      340.746       14.978      858.235
10/30/2014  22:15:00      -21.518        9.390       12.114       19.404       23.884       23.374      376.499      570.442      546.328        0.110        0.075       23.477       20.815        0.786      340.419       14.426      858.249
10/30/2014  22:16:00        7.516        4.029       12.271       20.535       14.241       10.921      421.705      202.792      119.277        0.048        0.037        8.528        7.742        0.824      340.152       13.976      858.207
10/30/2014  22:17:00       43.524       65.150        6.264       21.946       30.510       19.844      481.611      930.849      393.804        0.399        0.090       78.351       21.065        0.072      340.230       14.107      858.141
10/30/2014  22:18:00      118.607       54.072        5.551       67.142       38.913       36.167     4508.055     1514.189     1308.079        1.217        0.367      130.351       29.551        0.051      340.144       13.961      858.145
10/30/2014  22:19:00      124.258       72.135        2.867       52.663       32.798       27.443     2773.368     1075.734      753.135        1.263        0.230      143.679        9.741        0.005      340.095       13.880      858.219
10/30/2014  22:20:00      -62.797      -29.411       -2.156       57.378       47.819       19.826     3292.234     2286.683      393.069        0.539        0.299       69.343       24.296        0.123      340.205       14.065      858.257
10/30/2014  22:21:00      -81.402      -16.045       -1.992       32.572       36.361       14.895     1060.937     1322.113      221.862        0.475        0.130       82.968       10.893        0.017      340.365       14.336      858.277
10/30/2014  22:22:00        8.529       25.398       15.117       17.400       24.772       13.060      302.747      613.634      170.555        0.102        0.054       26.792       14.434        0.290      340.400       14.393      858.262
10/30/2014  22:23:00      -15.772       56.123      -15.404       25.938       17.893       16.565      672.769      320.167      274.387        0.245        0.063       58.297        5.600        0.009      340.903       15.246      858.182
10/30/2014  22:24:00       -2.076       -0.152       -3.225       16.476       55.564       21.275      271.467     3087.324      452.630        0.191        0.191        2.082       22.968      121.718      341.634       16.484      858.174
10/30/2014  22:25:00      -45.655        9.649        3.691       22.015       16.948       13.459      484.655      287.246      181.143        0.157        0.048       46.663       12.438        0.071      341.464       16.196      858.191
10/30/2014  22:26:00       37.340       12.261       17.553       49.306       39.198       21.854     2431.109     1536.508      477.576        0.315        0.222       39.301       14.868        0.143      340.519       14.594      858.207
10/30/2014  22:27:00       28.331       13.403        6.663       49.743       29.312       21.705     2474.401      859.193      471.091        0.241        0.190       31.342       12.213        0.152      340.067       13.832      858.244
10/30/2014  22:28:00       28.656       92.110       -0.468       26.341       45.161       20.391      693.837     2039.535      415.794        0.623        0.157       96.465       24.481        0.064      339.998       13.716      858.285
10/30/2014  22:29:00       63.506       84.403        0.715       37.005       29.461       22.936     1369.347      867.929      526.043        0.696        0.138      105.626       17.753        0.028      340.065       13.828      858.277
10/30/2014  22:30:00       61.480       72.272        6.347       58.535       32.959       28.442     3426.354     1086.295      808.941        0.718        0.266       94.884       27.342        0.083      340.070       13.837      858.237
10/30/2014  22:31:00      -44.110      117.783      -27.227       47.640       90.977       25.361     2269.534     8276.887      643.160        1.387        0.559      125.772       36.755        0.085      340.368       14.341      858.148
10/30/2014  22:32:00      -99.633      -55.045      -14.262       46.708       34.179       24.798     2181.669     1168.235      614.918        0.856        0.198      113.827       15.378        0.018      339.944       13.623      858.177
10/30/2014  22:33:00      -31.051      -12.521        7.662       32.927       44.398       26.989     1084.198     1971.159      728.421        0.248        0.189       33.480       21.833        0.425      339.984       13.692      858.248
10/30/2014  22:34:00      -26.108       65.838       -1.276       26.407       23.969       17.250      697.350      574.535      297.578        0.329        0.078       70.826       14.999        0.045      340.368       14.341      858.232
10/30/2014  22:35:00      -70.804       59.503      -16.888       26.620       27.889       14.663      708.603      777.816      214.992        0.527        0.085       92.486       15.441        0.028      340.773       15.025      858.151
10/30/2014  22:36:00      -93.512      -47.580       -6.462       31.664       29.247       17.626     1002.611      855.411      310.681        0.661        0.108      104.921       19.129        0.033      340.296       14.218      858.148
10/30/2014  22:37:00       42.297      -57.832       24.866       39.239       32.591       27.633     1539.702     1062.189      763.606        0.456        0.168       71.649       19.784        0.076      340.264       14.165      858.224
10/30/2014  22:38:00      -15.250      -82.144        3.432       46.802       31.421       18.917     2190.381      987.257      357.847        0.526        0.177       83.548       13.349        0.026      340.676       14.861      858.281
10/30/2014  22:39:00       -0.153      -17.312       13.142       26.926       40.620       26.551      725.023     1649.984      704.981        0.178        0.154       17.313       19.335        1.247      340.284       14.198      858.269
10/30/2014  22:40:00       15.391      -34.726       21.137       31.937       45.325       24.571     1019.948     2054.332      603.716        0.278        0.184       37.984       21.002        0.306      340.149       13.971      858.215
10/30/2014  22:41:00       47.581      -89.349        0.141       48.463       51.686       28.749     2348.662     2671.393      826.488        0.805        0.292      101.228       18.530        0.034      340.418       14.426      858.234
10/30/2014  22:42:00      -54.637      -27.850       -3.009       64.663       24.141       23.344     4181.277      582.779      544.938        0.454        0.265       61.326       11.050        0.032      340.339       14.291      858.320
10/30/2014  22:43:00     -112.203      -71.511        2.161       43.360       35.989       24.679     1880.097     1295.225      609.077        1.075        0.189      133.054       22.802        0.029      340.470       14.512      858.347
10/30/2014  22:44:00      -55.004      -48.900       -3.466       34.905       21.392       19.045     1218.349      457.629      362.710        0.373        0.102       73.598       16.949        0.053      340.701       14.904      858.314
10/30/2014  22:45:00       -1.501        9.919        5.958       15.849       22.104       11.824      251.201      488.597      139.797        0.051        0.044       10.032       11.942        1.417      340.490       14.546      858.202
10/30/2014  22:46:00      -81.418       50.727      -13.709       31.015       32.384       19.080      961.957     1048.710      364.065        0.588        0.119       95.928       19.343        0.041      340.390       14.378      858.143
10/30/2014  22:47:00      -37.103      -29.976        1.545       19.782       30.155       11.223      391.343      909.312      125.951        0.185        0.071       47.699        9.647        0.041      340.816       15.097      858.185
10/30/2014  22:48:00      -67.982      -21.734       -0.319       39.380       34.364       14.825     1550.797     1180.869      219.778        0.402        0.148       71.372       13.454        0.036      340.550       14.647      858.211
10/30/2014  22:49:00      -24.495       -0.436        9.147       28.576       30.215       19.404      816.603      912.932      376.505        0.139        0.105       24.498       13.159        0.289      340.367       14.337      858.176
10/30/2014  22:50:00        8.843       17.132        2.345       38.991       21.149       19.125     1520.313      447.298      365.768        0.135        0.117       19.280       13.526        0.492      340.546       14.641      858.081
10/30/2014  22:51:00        4.653       -6.233        6.445       21.991       31.387       25.689      483.604      985.132      659.940        0.111        0.106        7.778        9.650        1.539      340.989       15.392      858.025
10/30/2014  22:52:00       28.067      -29.421       11.620       19.620       22.560       17.620      384.957      508.955      310.454        0.150        0.060       40.661       11.978        0.087      340.366       14.337      858.004
10/30/2014  22:53:00       51.597       13.128       20.916       27.478       34.913       21.292      755.035     1218.943      453.341        0.285        0.121       53.241       16.322        0.094      340.068       13.834      858.028
10/30/2014  22:54:00       29.150        5.593       38.565       42.075       63.885       41.173     1770.312     4081.339     1695.215        0.496        0.377       29.682       26.805        0.816      339.898       13.547      858.031
10/30/2014  22:55:00       94.389       79.452       60.275       96.671       36.576       40.272     9345.204     1337.837     1621.818        1.558        0.615      123.377       48.975        0.158      339.886       13.526      857.983
10/30/2014  22:56:00      189.936       71.260        9.137       77.615       48.255       41.856     6024.154     2328.573     1751.954        2.567        0.505      202.864       32.610        0.026      340.189       14.036      857.896
10/30/2014  22:57:00      141.884       89.698       34.492       55.921       30.850       37.030     3127.172      951.736     1371.211        1.741        0.273      167.860       31.857        0.036      340.296       14.217      857.897
10/30/2014  22:58:00       87.641       54.500       23.127       40.399       35.241       29.433     1632.077     1241.947      866.318        0.746        0.187      103.205       22.344        0.047      340.173       14.010      857.897
10/30/2014  22:59:00       21.417       -7.696       23.237       29.780       32.192       28.547      886.862     1036.333      814.943        0.190        0.137       22.757       22.703        0.995      339.823       13.421      857.950
10/30/2014  23:00:00       13.619       11.627       57.741       27.839       40.463       21.779      775.021     1637.249      474.308        0.327        0.144       17.907       15.068        0.708      339.762       13.318      858.008
10/30/2014  23:01:00       44.462      -36.064       17.761       38.915       48.575       35.197     1514.390     2359.576     1238.845        0.435        0.256       57.249       26.767        0.219      339.973       13.673      858.016
10/30/2014  23:02:00       47.337      -44.945        6.581       35.929       41.590       27.799     1290.914     1729.714      772.777        0.405        0.190       65.275       26.168        0.161      340.019       13.752      857.960
10/30/2014  23:03:00       16.711       -3.297        4.891       20.599       17.957       21.462      424.334      322.442      460.596        0.076        0.060       17.033       13.574        0.635      339.794       13.371      857.908
10/30/2014  23:04:00       28.215       -9.840        4.633       27.415       18.596       15.640      751.567      345.827      244.612        0.113        0.067       29.882        6.171        0.043      339.959       13.650      857.914
10/30/2014  23:05:00       -5.272       -5.449        3.076        9.157        9.813        5.401       83.843       96.304       29.174        0.014        0.010        7.582        5.578        0.541      339.997       13.715      857.943
10/30/2014  23:06:00      -42.170      -31.756       -8.110       52.759       21.757       13.002     2783.550      473.364      169.059        0.314        0.171       52.790       18.237        0.119      340.149       13.969      857.968
10/30/2014  23:07:00      -95.327      -14.130       -1.132       29.383       26.047       15.468      863.346      678.431      239.246        0.553        0.089       96.368        7.874        0.007      340.097       13.882      857.931
10/30/2014  23:08:00      -48.134       44.951        7.171       29.353       25.609       17.249      861.624      655.804      297.536        0.310        0.091       65.859       15.394        0.055      340.073       13.842      857.861
10/30/2014  23:09:00        9.766       74.158        0.613       17.700       23.263       19.847      313.281      541.149      393.909        0.342        0.062       74.798       14.057        0.035      340.169       14.003      857.824
10/30/2014  23:10:00       52.679       68.623      -10.479       36.001       39.533       17.550     1296.100     1562.828      307.990        0.538        0.158       86.511       15.472        0.032      340.085       13.861      857.805
10/30/2014  23:11:00       69.363       46.755       15.813       24.897       30.899       20.788      619.873      954.735      432.154        0.463        0.100       83.649       13.458        0.026      339.983       13.691      857.829
10/30/2014  23:12:00       21.425       18.161       31.959       33.239       33.343       17.828     1104.835     1111.775      317.842        0.217        0.127       28.086       12.634        0.202      339.717       13.242      857.861
10/30/2014  23:13:00        8.561      -23.345       16.689       25.407       40.618       25.038      645.520     1649.792      626.895        0.191        0.146       24.865       15.285        0.378      339.784       13.357      857.890
10/30/2014  23:14:00       21.985      -58.203       -8.514       27.126       30.124       15.299      735.800      907.454      234.058        0.291        0.094       62.217        9.191        0.022      339.670       13.163      857.941
10/30/2014  23:15:00       -6.378       14.649       14.169       14.440       17.678       12.803      208.508      312.511      163.924        0.057        0.034       15.977        6.097        0.146      339.649       13.128      857.989
10/30/2014  23:16:00       35.952       -1.680       -1.234       23.239       17.010       17.305      540.031      289.349      299.459        0.121        0.056       35.991        7.357        0.042      339.648       13.125      858.011
10/30/2014  23:17:00       31.406       27.871        3.843       20.420       12.746       11.914      416.965      162.455      141.939        0.125        0.036       41.990       13.271        0.100      339.903       13.555      858.024
10/30/2014  23:18:00       94.936       59.136       13.209       18.508       19.088       22.770      342.561      364.363      518.476        0.695        0.061      111.848       14.260        0.016      339.832       13.434      858.012
10/30/2014  23:19:00      122.083       71.523       10.527       32.570       25.594       18.588     1060.774      655.068      345.528        1.110        0.103      141.491        9.689        0.005      340.048       13.801      858.024
10/30/2014  23:20:00       64.155       43.194       16.287       26.095       17.569       18.642      680.969      308.661      347.512        0.379        0.067       77.341       12.077        0.024      340.041       13.790      858.019
10/30/2014  23:21:00       72.771       48.409        4.522       28.792       23.061       20.849      828.967      531.820      434.686        0.473        0.090       87.401       13.937        0.025      339.986       13.696      858.023
10/30/2014  23:22:00       90.984       56.976       18.010       29.906       20.663       20.629      894.386      426.956      425.562        0.680        0.087      107.352       18.968        0.031      339.925       13.592      858.014
10/30/2014  23:23:00       17.058       19.469       24.522       22.457       19.965       14.474      504.311      398.610      209.483        0.119        0.056       25.884        6.228        0.058      339.710       13.233      858.045
10/30/2014  23:24:00      -17.660      -16.423       -8.592       11.543       13.099        9.311      133.234      171.573       86.701        0.052        0.020       24.116        8.320        0.119      339.702       13.217      858.043
10/30/2014  23:25:00       38.940       15.362       13.263       28.768       13.872       15.727      827.592      192.438      247.327        0.160        0.063       41.861       10.129        0.059      339.918       13.581      857.987
10/30/2014  23:26:00       44.331      -64.565        6.700       27.061       36.400       20.076      732.306     1324.962      403.059        0.432        0.123       78.319       20.366        0.068      339.769       13.331      857.928
10/30/2014  23:27:00       36.970      -60.732       -0.811       27.233       36.451       23.680      741.616     1328.655      560.754        0.384        0.132       71.100       24.373        0.118      339.933       13.607      857.958
10/30/2014  23:28:00       23.333      -15.315       10.314       27.495       36.505       26.421      755.989     1332.645      698.046        0.184        0.139       27.910       21.802        0.610      339.958       13.649      857.956
10/30/2014  23:29:00       19.919      -29.651       16.150       23.986       37.461       25.558      575.310     1403.344      653.220        0.208        0.132       35.721       24.159        0.457      339.873       13.504      857.943
10/30/2014  23:30:00       62.004      -62.731       -6.848       25.308       36.201       28.691      640.472     1310.517      823.197        0.530        0.139       88.202       18.989        0.046      340.111       13.907      857.984
10/30/2014  23:31:00       23.405      -27.173        8.589       28.208       39.091       12.618      795.699     1528.094      159.210        0.192        0.124       35.863       14.114        0.155      340.286       14.202      857.922
10/30/2014  23:32:00      -25.290      108.483      -10.069       35.194       57.112       19.795     1238.628     3261.730      391.823        0.870        0.245      111.392       24.108        0.047      340.535       14.621      857.764
10/30/2014  23:33:00      -47.525       88.788      -16.714       36.268       49.299       25.500     1315.365     2430.365      650.266        0.741        0.220      100.707       21.659        0.046      340.299       14.224      857.674
10/30/2014  23:34:00      -13.337       20.034        9.402       16.937       26.180       14.791      286.846      685.374      218.777        0.093        0.060       24.067       15.737        0.428      340.199       14.056      857.707
10/30/2014  23:35:00       -5.063      -30.094       -0.455       23.299       17.537       14.473      542.849      307.537      209.454        0.100        0.053       30.517       11.977        0.154      340.340       14.292      857.792
10/30/2014  23:36:00      -66.456      -36.812        3.296       57.485       29.363       21.535     3304.468      862.165      463.742        0.521        0.232       75.971       25.546        0.113      340.215       14.081      857.855
10/30/2014  23:37:00      -30.372       20.491        1.501       31.493       30.611       18.128      991.817      937.026      328.613        0.180        0.113       36.638       17.907        0.239      340.179       14.021      857.796
10/30/2014  23:38:00       -7.150      -62.690       -5.417       24.624       22.658       14.828      606.320      513.368      219.868        0.267        0.067       63.096        8.750        0.019      340.136       13.947      857.795
10/30/2014  23:39:00       11.400        1.736       15.349       30.715       28.114       16.555      943.408      790.376      274.071        0.119        0.100       11.532        4.919        0.182      339.997       13.713      857.811
10/30/2014  23:40:00      117.109       60.842       47.738       55.327       64.118       50.245     3061.048     4111.158     2524.536        1.469        0.485      131.971       43.108        0.107      339.997       13.713      857.816
10/30/2014  23:41:00      112.217       72.947       39.392       49.519       40.125       30.782     2452.137     1609.995      947.530        1.224        0.250      133.843       19.402        0.021      340.244       14.131      857.825
10/30/2014  23:42:00       24.800        3.570       25.329       36.276       28.674       19.146     1315.965      822.192      366.563        0.189        0.125       25.056       12.610        0.253      340.062       13.824      857.859
10/30/2014  23:43:00       69.887       50.398       39.789       36.134       25.277       19.534     1305.666      638.932      381.594        0.567        0.116       86.164       11.303        0.017      340.037       13.782      857.840
10/30/2014  23:44:00      100.001       54.764       38.640       43.144       53.740       35.878     1861.398     2888.002     1287.257        1.026        0.302      114.014       34.866        0.094      340.051       13.805      857.827
10/30/2014  23:45:00       91.980       76.262       64.129       48.961       40.494       43.086     2397.203     1639.785     1856.377        1.214        0.295      119.483       35.574        0.089      340.030       13.769      857.843
10/30/2014  23:46:00       87.173       61.019       44.405       40.603       37.922       32.002     1648.642     1438.090     1024.144        0.870        0.206      106.407       27.311        0.066      339.924       13.591      857.826
10/30/2014  23:47:00      130.577       93.923       11.901       26.424       23.468       22.533      698.222      550.727      507.733        1.388        0.088      160.848       14.730        0.008      340.530       14.614      857.745
10/30/2014  23:48:00       57.175       25.463       27.361       62.530       34.745       28.851     3910.062     1207.234      832.371        0.531        0.297       62.589       14.666        0.055      340.964       15.349      857.748
10/30/2014  23:49:00     -104.067      -13.487       -8.562       33.197       23.264       17.204     1102.054      541.199      295.987        0.651        0.097      104.937       12.319        0.014      339.964       13.659      857.736
10/30/2014  23:50:00      -10.674       21.018       12.127       45.581       24.141       21.451     2077.640      582.767      460.129        0.191        0.156       23.573       19.478        0.683      340.558       14.662      857.708
10/30/2014  23:51:00       71.788       12.947        1.179       34.427       29.286       26.747     1185.249      857.670      715.403        0.404        0.138       72.946       14.965        0.042      340.616       14.760      857.697
10/30/2014  23:52:00       53.220       31.058        6.611       20.556       22.339       20.275      422.557      499.013      411.085        0.259        0.067       61.620       17.523        0.081      340.277       14.186      857.684
10/30/2014  23:53:00        5.100       32.176       -7.601       24.034       32.025       11.562      577.613     1025.581      133.676        0.143        0.087       32.578       15.421        0.224      340.107       13.900      857.684
10/30/2014  23:54:00      -43.417      -43.992      -12.265       27.752       27.063       11.510      770.164      732.403      132.486        0.280        0.082       61.809        8.284        0.018      340.072       13.840      857.721
10/30/2014  23:55:00      -84.188      -17.300      -10.259       16.299       15.376       11.696      265.661      236.433      136.805        0.407        0.032       85.947       10.959        0.016      340.035       13.778      857.719
10/30/2014  23:56:00      -69.866      -54.629       -7.746       17.039       10.565       10.856      290.310      111.620      117.859        0.422        0.026       88.688        9.474        0.011      340.137       13.950      857.732
10/30/2014  23:57:00      -58.080       13.082      -10.849       18.565       44.677       10.021      344.653     1996.072      100.412        0.305        0.122       59.535       15.293        0.066      340.748       14.983      857.726
10/30/2014  23:58:00     -143.011        2.988      -22.064       43.696       47.768       15.851     1909.377     2281.775      251.259        1.269        0.222      143.042       15.987        0.012      340.540       14.631      857.655
10/30/2014  23:59:00      -96.727      -18.344        2.595       67.326       64.430       29.072     4532.831     4151.241      845.184        0.961        0.476       98.451       33.259        0.114      340.029       13.767      857.624
